<?xml version="1.0" encoding="UTF-8" standalone="no" ?>
<gpx xmlns="http://www.topografix.com/GPX/1/1" xmlns:xsi="http://www.w3.org/2001/XMLSchema-instance" xsi:schemaLocation="http://www.topografix.com/GPX/1/1 http://www.topografix.com/GPX/1/1/gpx.xsd" version="1.1" creator="VisuGPX - https://www.visugpx.com">
  <metadata>
    <name>07082022</name>
    <desc><![CDATA[boucle au départ de Payolle puis courtaou des esclozes et retour]]></desc>
  </metadata>
  <trk>
    <name><![CDATA[07082022_1]]></name>
    <trkseg>
      <trkpt lat="42.94227" lon="0.28479">
        <ele>1106.4</ele>
        <time>2022-08-07T06:47:19Z</time>
      </trkpt>
      <trkpt lat="42.94228" lon="0.2848">
        <ele>1095.4</ele>
        <time>2022-08-07T06:47:30Z</time>
      </trkpt>
      <trkpt lat="42.9423" lon="0.28478">
        <ele>1095.4</ele>
        <time>2022-08-07T06:47:32Z</time>
      </trkpt>
      <trkpt lat="42.94242" lon="0.28462">
        <ele>1095.2</ele>
        <time>2022-08-07T06:47:38Z</time>
      </trkpt>
      <trkpt lat="42.9425" lon="0.28454">
        <ele>1094.8</ele>
        <time>2022-08-07T06:47:41Z</time>
      </trkpt>
      <trkpt lat="42.94257" lon="0.28449">
        <ele>1094.8</ele>
        <time>2022-08-07T06:47:43Z</time>
      </trkpt>
      <trkpt lat="42.94264" lon="0.28445">
        <ele>1094.6</ele>
        <time>2022-08-07T06:47:45Z</time>
      </trkpt>
      <trkpt lat="42.94278" lon="0.28429">
        <ele>1094.4</ele>
        <time>2022-08-07T06:47:50Z</time>
      </trkpt>
      <trkpt lat="42.94282" lon="0.28413">
        <ele>1094.4</ele>
        <time>2022-08-07T06:47:53Z</time>
      </trkpt>
      <trkpt lat="42.94282" lon="0.28407">
        <ele>1094.2</ele>
        <time>2022-08-07T06:47:54Z</time>
      </trkpt>
      <trkpt lat="42.94282" lon="0.2836">
        <ele>1093.8</ele>
        <time>2022-08-07T06:48:00Z</time>
      </trkpt>
      <trkpt lat="42.94281" lon="0.28343">
        <ele>1093.8</ele>
        <time>2022-08-07T06:48:02Z</time>
      </trkpt>
      <trkpt lat="42.9428" lon="0.28317">
        <ele>1093.6</ele>
        <time>2022-08-07T06:48:05Z</time>
      </trkpt>
      <trkpt lat="42.94279" lon="0.28291">
        <ele>1093.4</ele>
        <time>2022-08-07T06:48:08Z</time>
      </trkpt>
      <trkpt lat="42.94285" lon="0.28227">
        <ele>1093.2</ele>
        <time>2022-08-07T06:48:15Z</time>
      </trkpt>
      <trkpt lat="42.94289" lon="0.2821">
        <ele>1093</ele>
        <time>2022-08-07T06:48:17Z</time>
      </trkpt>
      <trkpt lat="42.94296" lon="0.28195">
        <ele>1092.8</ele>
        <time>2022-08-07T06:48:19Z</time>
      </trkpt>
      <trkpt lat="42.94299" lon="0.28187">
        <ele>1092.6</ele>
        <time>2022-08-07T06:48:20Z</time>
      </trkpt>
      <trkpt lat="42.94307" lon="0.28173">
        <ele>1092.4</ele>
        <time>2022-08-07T06:48:22Z</time>
      </trkpt>
      <trkpt lat="42.94311" lon="0.28166">
        <ele>1092.4</ele>
        <time>2022-08-07T06:48:23Z</time>
      </trkpt>
      <trkpt lat="42.94323" lon="0.28146">
        <ele>1092.4</ele>
        <time>2022-08-07T06:48:26Z</time>
      </trkpt>
      <trkpt lat="42.94327" lon="0.28138">
        <ele>1092.2</ele>
        <time>2022-08-07T06:48:27Z</time>
      </trkpt>
      <trkpt lat="42.94333" lon="0.28122">
        <ele>1092.2</ele>
        <time>2022-08-07T06:48:29Z</time>
      </trkpt>
      <trkpt lat="42.94337" lon="0.28105">
        <ele>1092</ele>
        <time>2022-08-07T06:48:31Z</time>
      </trkpt>
      <trkpt lat="42.9434" lon="0.28087">
        <ele>1092</ele>
        <time>2022-08-07T06:48:33Z</time>
      </trkpt>
      <trkpt lat="42.94345" lon="0.28053">
        <ele>1091.6</ele>
        <time>2022-08-07T06:48:37Z</time>
      </trkpt>
      <trkpt lat="42.94349" lon="0.28036">
        <ele>1091.4</ele>
        <time>2022-08-07T06:48:39Z</time>
      </trkpt>
      <trkpt lat="42.94357" lon="0.28012">
        <ele>1091.2</ele>
        <time>2022-08-07T06:48:42Z</time>
      </trkpt>
      <trkpt lat="42.94366" lon="0.2797">
        <ele>1090.8</ele>
        <time>2022-08-07T06:48:47Z</time>
      </trkpt>
      <trkpt lat="42.94366" lon="0.27961">
        <ele>1090.8</ele>
        <time>2022-08-07T06:48:48Z</time>
      </trkpt>
      <trkpt lat="42.94366" lon="0.27926">
        <ele>1090.4</ele>
        <time>2022-08-07T06:48:52Z</time>
      </trkpt>
      <trkpt lat="42.94365" lon="0.27917">
        <ele>1090.4</ele>
        <time>2022-08-07T06:48:53Z</time>
      </trkpt>
      <trkpt lat="42.94364" lon="0.27908">
        <ele>1090.4</ele>
        <time>2022-08-07T06:48:54Z</time>
      </trkpt>
      <trkpt lat="42.94358" lon="0.27882">
        <ele>1090</ele>
        <time>2022-08-07T06:48:57Z</time>
      </trkpt>
      <trkpt lat="42.94356" lon="0.27867">
        <ele>1089.4</ele>
        <time>2022-08-07T06:48:59Z</time>
      </trkpt>
      <trkpt lat="42.94355" lon="0.2784">
        <ele>1088.2</ele>
        <time>2022-08-07T06:49:03Z</time>
      </trkpt>
      <trkpt lat="42.94354" lon="0.27826">
        <ele>1087.8</ele>
        <time>2022-08-07T06:49:05Z</time>
      </trkpt>
      <trkpt lat="42.94354" lon="0.27807">
        <ele>1087.4</ele>
        <time>2022-08-07T06:49:08Z</time>
      </trkpt>
      <trkpt lat="42.94351" lon="0.27802">
        <ele>1087.4</ele>
        <time>2022-08-07T06:49:09Z</time>
      </trkpt>
      <trkpt lat="42.94347" lon="0.27799">
        <ele>1087.2</ele>
        <time>2022-08-07T06:49:10Z</time>
      </trkpt>
      <trkpt lat="42.94343" lon="0.27799">
        <ele>1087</ele>
        <time>2022-08-07T06:49:11Z</time>
      </trkpt>
      <trkpt lat="42.94339" lon="0.278">
        <ele>1087</ele>
        <time>2022-08-07T06:49:12Z</time>
      </trkpt>
      <trkpt lat="42.94328" lon="0.27807">
        <ele>1086.6</ele>
        <time>2022-08-07T06:49:15Z</time>
      </trkpt>
      <trkpt lat="42.94323" lon="0.27815">
        <ele>1086.4</ele>
        <time>2022-08-07T06:49:17Z</time>
      </trkpt>
      <trkpt lat="42.94316" lon="0.27827">
        <ele>1086.6</ele>
        <time>2022-08-07T06:49:20Z</time>
      </trkpt>
      <trkpt lat="42.94309" lon="0.27839">
        <ele>1086.8</ele>
        <time>2022-08-07T06:49:23Z</time>
      </trkpt>
      <trkpt lat="42.94291" lon="0.27874">
        <ele>1088.2</ele>
        <time>2022-08-07T06:49:32Z</time>
      </trkpt>
      <trkpt lat="42.94287" lon="0.27883">
        <ele>1088.6</ele>
        <time>2022-08-07T06:49:34Z</time>
      </trkpt>
      <trkpt lat="42.94278" lon="0.27904">
        <ele>1089.2</ele>
        <time>2022-08-07T06:49:39Z</time>
      </trkpt>
      <trkpt lat="42.94276" lon="0.27908">
        <ele>1089.4</ele>
        <time>2022-08-07T06:49:40Z</time>
      </trkpt>
      <trkpt lat="42.9426" lon="0.2794">
        <ele>1090</ele>
        <time>2022-08-07T06:49:48Z</time>
      </trkpt>
      <trkpt lat="42.94253" lon="0.27958">
        <ele>1090.4</ele>
        <time>2022-08-07T06:49:52Z</time>
      </trkpt>
      <trkpt lat="42.94247" lon="0.2797">
        <ele>1090.6</ele>
        <time>2022-08-07T06:49:55Z</time>
      </trkpt>
      <trkpt lat="42.94236" lon="0.27987">
        <ele>1091.2</ele>
        <time>2022-08-07T06:50:00Z</time>
      </trkpt>
      <trkpt lat="42.94229" lon="0.27987">
        <ele>1091.6</ele>
        <time>2022-08-07T06:50:03Z</time>
      </trkpt>
      <trkpt lat="42.94226" lon="0.27986">
        <ele>1091.6</ele>
        <time>2022-08-07T06:50:04Z</time>
      </trkpt>
      <trkpt lat="42.9422" lon="0.27974">
        <ele>1092.4</ele>
        <time>2022-08-07T06:50:09Z</time>
      </trkpt>
      <trkpt lat="42.94218" lon="0.27968">
        <ele>1092.6</ele>
        <time>2022-08-07T06:50:11Z</time>
      </trkpt>
      <trkpt lat="42.94217" lon="0.27961">
        <ele>1093</ele>
        <time>2022-08-07T06:50:13Z</time>
      </trkpt>
      <trkpt lat="42.94216" lon="0.27953">
        <ele>1093.6</ele>
        <time>2022-08-07T06:50:16Z</time>
      </trkpt>
      <trkpt lat="42.94216" lon="0.27932">
        <ele>1094.8</ele>
        <time>2022-08-07T06:50:23Z</time>
      </trkpt>
      <trkpt lat="42.94216" lon="0.27929">
        <ele>1094.8</ele>
        <time>2022-08-07T06:50:24Z</time>
      </trkpt>
      <trkpt lat="42.94218" lon="0.27914">
        <ele>1096</ele>
        <time>2022-08-07T06:50:30Z</time>
      </trkpt>
      <trkpt lat="42.94217" lon="0.27909">
        <ele>1096.6</ele>
        <time>2022-08-07T06:50:32Z</time>
      </trkpt>
      <trkpt lat="42.94215" lon="0.27901">
        <ele>1097.2</ele>
        <time>2022-08-07T06:50:35Z</time>
      </trkpt>
      <trkpt lat="42.9421" lon="0.27895">
        <ele>1097.8</ele>
        <time>2022-08-07T06:50:38Z</time>
      </trkpt>
      <trkpt lat="42.94203" lon="0.27887">
        <ele>1098.2</ele>
        <time>2022-08-07T06:50:42Z</time>
      </trkpt>
      <trkpt lat="42.942" lon="0.27884">
        <ele>1098.4</ele>
        <time>2022-08-07T06:50:44Z</time>
      </trkpt>
      <trkpt lat="42.94196" lon="0.27881">
        <ele>1098.6</ele>
        <time>2022-08-07T06:50:46Z</time>
      </trkpt>
      <trkpt lat="42.94182" lon="0.27874">
        <ele>1099.4</ele>
        <time>2022-08-07T06:50:54Z</time>
      </trkpt>
      <trkpt lat="42.9417" lon="0.27867">
        <ele>1100</ele>
        <time>2022-08-07T06:51:00Z</time>
      </trkpt>
      <trkpt lat="42.94164" lon="0.27864">
        <ele>1100.6</ele>
        <time>2022-08-07T06:51:03Z</time>
      </trkpt>
      <trkpt lat="42.94154" lon="0.27856">
        <ele>1101.2</ele>
        <time>2022-08-07T06:51:08Z</time>
      </trkpt>
      <trkpt lat="42.94145" lon="0.27848">
        <ele>1101.6</ele>
        <time>2022-08-07T06:51:12Z</time>
      </trkpt>
      <trkpt lat="42.94136" lon="0.27838">
        <ele>1101.8</ele>
        <time>2022-08-07T06:51:16Z</time>
      </trkpt>
      <trkpt lat="42.94123" lon="0.27816">
        <ele>1102</ele>
        <time>2022-08-07T06:51:23Z</time>
      </trkpt>
      <trkpt lat="42.94118" lon="0.27799">
        <ele>1102.4</ele>
        <time>2022-08-07T06:51:28Z</time>
      </trkpt>
      <trkpt lat="42.94114" lon="0.27789">
        <ele>1102.4</ele>
        <time>2022-08-07T06:51:31Z</time>
      </trkpt>
      <trkpt lat="42.94109" lon="0.27759">
        <ele>1102.6</ele>
        <time>2022-08-07T06:51:39Z</time>
      </trkpt>
      <trkpt lat="42.94104" lon="0.27725">
        <ele>1103.2</ele>
        <time>2022-08-07T06:51:48Z</time>
      </trkpt>
      <trkpt lat="42.94101" lon="0.27705">
        <ele>1103.8</ele>
        <time>2022-08-07T06:51:54Z</time>
      </trkpt>
      <trkpt lat="42.941" lon="0.27692">
        <ele>1104.2</ele>
        <time>2022-08-07T06:51:58Z</time>
      </trkpt>
      <trkpt lat="42.94097" lon="0.27676">
        <ele>1104.8</ele>
        <time>2022-08-07T06:52:03Z</time>
      </trkpt>
      <trkpt lat="42.94095" lon="0.27661">
        <ele>1105</ele>
        <time>2022-08-07T06:52:07Z</time>
      </trkpt>
      <trkpt lat="42.94091" lon="0.27636">
        <ele>1105.8</ele>
        <time>2022-08-07T06:52:14Z</time>
      </trkpt>
      <trkpt lat="42.9409" lon="0.27625">
        <ele>1106.2</ele>
        <time>2022-08-07T06:52:17Z</time>
      </trkpt>
      <trkpt lat="42.94088" lon="0.27608">
        <ele>1106.8</ele>
        <time>2022-08-07T06:52:22Z</time>
      </trkpt>
      <trkpt lat="42.94086" lon="0.2759">
        <ele>1107.2</ele>
        <time>2022-08-07T06:52:27Z</time>
      </trkpt>
      <trkpt lat="42.94083" lon="0.27574">
        <ele>1108</ele>
        <time>2022-08-07T06:52:32Z</time>
      </trkpt>
      <trkpt lat="42.94083" lon="0.27565">
        <ele>1108.2</ele>
        <time>2022-08-07T06:52:35Z</time>
      </trkpt>
      <trkpt lat="42.94082" lon="0.27543">
        <ele>1109</ele>
        <time>2022-08-07T06:52:42Z</time>
      </trkpt>
      <trkpt lat="42.94081" lon="0.27534">
        <ele>1109.4</ele>
        <time>2022-08-07T06:52:45Z</time>
      </trkpt>
      <trkpt lat="42.94081" lon="0.27522">
        <ele>1110</ele>
        <time>2022-08-07T06:52:49Z</time>
      </trkpt>
      <trkpt lat="42.94079" lon="0.2751">
        <ele>1110.6</ele>
        <time>2022-08-07T06:52:53Z</time>
      </trkpt>
      <trkpt lat="42.94078" lon="0.27498">
        <ele>1111.2</ele>
        <time>2022-08-07T06:52:57Z</time>
      </trkpt>
      <trkpt lat="42.94075" lon="0.27474">
        <ele>1112.2</ele>
        <time>2022-08-07T06:53:05Z</time>
      </trkpt>
      <trkpt lat="42.94071" lon="0.27452">
        <ele>1113</ele>
        <time>2022-08-07T06:53:13Z</time>
      </trkpt>
      <trkpt lat="42.94071" lon="0.27449">
        <ele>1113.4</ele>
        <time>2022-08-07T06:53:14Z</time>
      </trkpt>
      <trkpt lat="42.94072" lon="0.27427">
        <ele>1114.2</ele>
        <time>2022-08-07T06:53:21Z</time>
      </trkpt>
      <trkpt lat="42.94073" lon="0.2742">
        <ele>1114.4</ele>
        <time>2022-08-07T06:53:23Z</time>
      </trkpt>
      <trkpt lat="42.94077" lon="0.27399">
        <ele>1114.8</ele>
        <time>2022-08-07T06:53:29Z</time>
      </trkpt>
      <trkpt lat="42.94082" lon="0.27372">
        <ele>1115.4</ele>
        <time>2022-08-07T06:53:38Z</time>
      </trkpt>
      <trkpt lat="42.94082" lon="0.27369">
        <ele>1115.4</ele>
        <time>2022-08-07T06:53:39Z</time>
      </trkpt>
      <trkpt lat="42.9408" lon="0.27355">
        <ele>1116.6</ele>
        <time>2022-08-07T06:53:45Z</time>
      </trkpt>
      <trkpt lat="42.9408" lon="0.27353">
        <ele>1116.8</ele>
        <time>2022-08-07T06:53:46Z</time>
      </trkpt>
      <trkpt lat="42.94076" lon="0.27341">
        <ele>1117.6</ele>
        <time>2022-08-07T06:53:52Z</time>
      </trkpt>
      <trkpt lat="42.94076" lon="0.27339">
        <ele>1117.8</ele>
        <time>2022-08-07T06:53:53Z</time>
      </trkpt>
      <trkpt lat="42.94071" lon="0.27329">
        <ele>1118.8</ele>
        <time>2022-08-07T06:53:58Z</time>
      </trkpt>
      <trkpt lat="42.94068" lon="0.27324">
        <ele>1119.4</ele>
        <time>2022-08-07T06:54:01Z</time>
      </trkpt>
      <trkpt lat="42.94063" lon="0.2732">
        <ele>1120</ele>
        <time>2022-08-07T06:54:05Z</time>
      </trkpt>
      <trkpt lat="42.94059" lon="0.27317">
        <ele>1120.4</ele>
        <time>2022-08-07T06:54:08Z</time>
      </trkpt>
      <trkpt lat="42.94058" lon="0.27316">
        <ele>1120.6</ele>
        <time>2022-08-07T06:54:09Z</time>
      </trkpt>
      <trkpt lat="42.94054" lon="0.27313">
        <ele>1121</ele>
        <time>2022-08-07T06:54:12Z</time>
      </trkpt>
      <trkpt lat="42.94048" lon="0.27308">
        <ele>1121.8</ele>
        <time>2022-08-07T06:54:17Z</time>
      </trkpt>
      <trkpt lat="42.94046" lon="0.27307">
        <ele>1122</ele>
        <time>2022-08-07T06:54:18Z</time>
      </trkpt>
      <trkpt lat="42.94039" lon="0.27301">
        <ele>1123</ele>
        <time>2022-08-07T06:54:24Z</time>
      </trkpt>
      <trkpt lat="42.94037" lon="0.27299">
        <ele>1123.4</ele>
        <time>2022-08-07T06:54:26Z</time>
      </trkpt>
      <trkpt lat="42.94032" lon="0.27295">
        <ele>1124.2</ele>
        <time>2022-08-07T06:54:30Z</time>
      </trkpt>
      <trkpt lat="42.94025" lon="0.27291">
        <ele>1125</ele>
        <time>2022-08-07T06:54:36Z</time>
      </trkpt>
      <trkpt lat="42.94024" lon="0.2729">
        <ele>1125.4</ele>
        <time>2022-08-07T06:54:37Z</time>
      </trkpt>
      <trkpt lat="42.94017" lon="0.27282">
        <ele>1126.4</ele>
        <time>2022-08-07T06:54:44Z</time>
      </trkpt>
      <trkpt lat="42.94011" lon="0.27277">
        <ele>1127.8</ele>
        <time>2022-08-07T06:54:50Z</time>
      </trkpt>
      <trkpt lat="42.94009" lon="0.27275">
        <ele>1128.2</ele>
        <time>2022-08-07T06:54:52Z</time>
      </trkpt>
      <trkpt lat="42.94004" lon="0.27272">
        <ele>1129</ele>
        <time>2022-08-07T06:54:56Z</time>
      </trkpt>
      <trkpt lat="42.93998" lon="0.2727">
        <ele>1129.6</ele>
        <time>2022-08-07T06:55:01Z</time>
      </trkpt>
      <trkpt lat="42.93996" lon="0.2727">
        <ele>1129.8</ele>
        <time>2022-08-07T06:55:02Z</time>
      </trkpt>
      <trkpt lat="42.9399" lon="0.27266">
        <ele>1131</ele>
        <time>2022-08-07T06:55:07Z</time>
      </trkpt>
      <trkpt lat="42.93985" lon="0.27264">
        <ele>1131.8</ele>
        <time>2022-08-07T06:55:12Z</time>
      </trkpt>
      <trkpt lat="42.93983" lon="0.27264">
        <ele>1132</ele>
        <time>2022-08-07T06:55:13Z</time>
      </trkpt>
      <trkpt lat="42.93977" lon="0.27263">
        <ele>1133</ele>
        <time>2022-08-07T06:55:19Z</time>
      </trkpt>
      <trkpt lat="42.93972" lon="0.27263">
        <ele>1133.8</ele>
        <time>2022-08-07T06:55:23Z</time>
      </trkpt>
      <trkpt lat="42.9397" lon="0.27263">
        <ele>1134.2</ele>
        <time>2022-08-07T06:55:24Z</time>
      </trkpt>
      <trkpt lat="42.93965" lon="0.2726">
        <ele>1135</ele>
        <time>2022-08-07T06:55:29Z</time>
      </trkpt>
      <trkpt lat="42.93964" lon="0.2726">
        <ele>1135.4</ele>
        <time>2022-08-07T06:55:30Z</time>
      </trkpt>
      <trkpt lat="42.93958" lon="0.27258">
        <ele>1136.4</ele>
        <time>2022-08-07T06:55:35Z</time>
      </trkpt>
      <trkpt lat="42.93955" lon="0.27257">
        <ele>1136.8</ele>
        <time>2022-08-07T06:55:37Z</time>
      </trkpt>
      <trkpt lat="42.93951" lon="0.27257">
        <ele>1137.6</ele>
        <time>2022-08-07T06:55:41Z</time>
      </trkpt>
      <trkpt lat="42.93947" lon="0.27258">
        <ele>1138</ele>
        <time>2022-08-07T06:55:44Z</time>
      </trkpt>
      <trkpt lat="42.93944" lon="0.27256">
        <ele>1138.6</ele>
        <time>2022-08-07T06:55:47Z</time>
      </trkpt>
      <trkpt lat="42.93939" lon="0.27255">
        <ele>1139.2</ele>
        <time>2022-08-07T06:55:51Z</time>
      </trkpt>
      <trkpt lat="42.93938" lon="0.27255">
        <ele>1139.6</ele>
        <time>2022-08-07T06:55:52Z</time>
      </trkpt>
      <trkpt lat="42.9393" lon="0.27253">
        <ele>1140.6</ele>
        <time>2022-08-07T06:55:59Z</time>
      </trkpt>
      <trkpt lat="42.93928" lon="0.27252">
        <ele>1141</ele>
        <time>2022-08-07T06:56:01Z</time>
      </trkpt>
      <trkpt lat="42.93924" lon="0.27251">
        <ele>1141.6</ele>
        <time>2022-08-07T06:56:05Z</time>
      </trkpt>
      <trkpt lat="42.9392" lon="0.2725">
        <ele>1142.2</ele>
        <time>2022-08-07T06:56:08Z</time>
      </trkpt>
      <trkpt lat="42.93914" lon="0.2725">
        <ele>1142.8</ele>
        <time>2022-08-07T06:56:13Z</time>
      </trkpt>
      <trkpt lat="42.93913" lon="0.2725">
        <ele>1142.8</ele>
        <time>2022-08-07T06:56:14Z</time>
      </trkpt>
      <trkpt lat="42.9391" lon="0.27249">
        <ele>1143.4</ele>
        <time>2022-08-07T06:56:17Z</time>
      </trkpt>
      <trkpt lat="42.93908" lon="0.27248">
        <ele>1143.8</ele>
        <time>2022-08-07T06:56:19Z</time>
      </trkpt>
      <trkpt lat="42.93901" lon="0.27245">
        <ele>1144.8</ele>
        <time>2022-08-07T06:56:25Z</time>
      </trkpt>
      <trkpt lat="42.939" lon="0.27245">
        <ele>1145</ele>
        <time>2022-08-07T06:56:26Z</time>
      </trkpt>
      <trkpt lat="42.93892" lon="0.27242">
        <ele>1146</ele>
        <time>2022-08-07T06:56:33Z</time>
      </trkpt>
      <trkpt lat="42.93891" lon="0.27241">
        <ele>1146.2</ele>
        <time>2022-08-07T06:56:34Z</time>
      </trkpt>
      <trkpt lat="42.93885" lon="0.2724">
        <ele>1147.2</ele>
        <time>2022-08-07T06:56:39Z</time>
      </trkpt>
      <trkpt lat="42.93882" lon="0.27239">
        <ele>1147.6</ele>
        <time>2022-08-07T06:56:42Z</time>
      </trkpt>
      <trkpt lat="42.93876" lon="0.27237">
        <ele>1148.4</ele>
        <time>2022-08-07T06:56:47Z</time>
      </trkpt>
      <trkpt lat="42.93871" lon="0.27235">
        <ele>1149</ele>
        <time>2022-08-07T06:56:51Z</time>
      </trkpt>
      <trkpt lat="42.93869" lon="0.27234">
        <ele>1149.4</ele>
        <time>2022-08-07T06:56:53Z</time>
      </trkpt>
      <trkpt lat="42.93859" lon="0.2723">
        <ele>1150.2</ele>
        <time>2022-08-07T06:57:01Z</time>
      </trkpt>
      <trkpt lat="42.93858" lon="0.27229">
        <ele>1150.2</ele>
        <time>2022-08-07T06:57:02Z</time>
      </trkpt>
      <trkpt lat="42.93854" lon="0.27227">
        <ele>1150.6</ele>
        <time>2022-08-07T06:57:05Z</time>
      </trkpt>
      <trkpt lat="42.9385" lon="0.27225">
        <ele>1151.2</ele>
        <time>2022-08-07T06:57:08Z</time>
      </trkpt>
      <trkpt lat="42.93847" lon="0.27225">
        <ele>1151.4</ele>
        <time>2022-08-07T06:57:10Z</time>
      </trkpt>
      <trkpt lat="42.93839" lon="0.27221">
        <ele>1152.4</ele>
        <time>2022-08-07T06:57:17Z</time>
      </trkpt>
      <trkpt lat="42.93838" lon="0.2722">
        <ele>1152.4</ele>
        <time>2022-08-07T06:57:18Z</time>
      </trkpt>
      <trkpt lat="42.93827" lon="0.27217">
        <ele>1153.2</ele>
        <time>2022-08-07T06:57:27Z</time>
      </trkpt>
      <trkpt lat="42.93821" lon="0.27215">
        <ele>1153.4</ele>
        <time>2022-08-07T06:57:31Z</time>
      </trkpt>
      <trkpt lat="42.93811" lon="0.27209">
        <ele>1153.6</ele>
        <time>2022-08-07T06:57:37Z</time>
      </trkpt>
      <trkpt lat="42.93799" lon="0.27202">
        <ele>1154.2</ele>
        <time>2022-08-07T06:57:45Z</time>
      </trkpt>
      <trkpt lat="42.93796" lon="0.27201">
        <ele>1154.2</ele>
        <time>2022-08-07T06:57:47Z</time>
      </trkpt>
      <trkpt lat="42.93782" lon="0.272">
        <ele>1155</ele>
        <time>2022-08-07T06:57:55Z</time>
      </trkpt>
      <trkpt lat="42.93777" lon="0.27199">
        <ele>1155.2</ele>
        <time>2022-08-07T06:57:58Z</time>
      </trkpt>
      <trkpt lat="42.93771" lon="0.27197">
        <ele>1155.6</ele>
        <time>2022-08-07T06:58:02Z</time>
      </trkpt>
      <trkpt lat="42.9377" lon="0.27198">
        <ele>1155.6</ele>
        <time>2022-08-07T06:58:03Z</time>
      </trkpt>
      <trkpt lat="42.93766" lon="0.27199">
        <ele>1156</ele>
        <time>2022-08-07T06:58:06Z</time>
      </trkpt>
      <trkpt lat="42.93763" lon="0.27198">
        <ele>1156.2</ele>
        <time>2022-08-07T06:58:08Z</time>
      </trkpt>
      <trkpt lat="42.93759" lon="0.27197">
        <ele>1156.6</ele>
        <time>2022-08-07T06:58:11Z</time>
      </trkpt>
      <trkpt lat="42.93753" lon="0.27195">
        <ele>1157.4</ele>
        <time>2022-08-07T06:58:15Z</time>
      </trkpt>
      <trkpt lat="42.93749" lon="0.27194">
        <ele>1157.8</ele>
        <time>2022-08-07T06:58:18Z</time>
      </trkpt>
      <trkpt lat="42.93744" lon="0.27193">
        <ele>1158</ele>
        <time>2022-08-07T06:58:21Z</time>
      </trkpt>
      <trkpt lat="42.93743" lon="0.27194">
        <ele>1158.2</ele>
        <time>2022-08-07T06:58:22Z</time>
      </trkpt>
      <trkpt lat="42.93742" lon="0.27194">
        <ele>1158.4</ele>
        <time>2022-08-07T06:58:23Z</time>
      </trkpt>
      <trkpt lat="42.93735" lon="0.27193">
        <ele>1159</ele>
        <time>2022-08-07T06:58:28Z</time>
      </trkpt>
      <trkpt lat="42.93733" lon="0.27193">
        <ele>1159.2</ele>
        <time>2022-08-07T06:58:30Z</time>
      </trkpt>
      <trkpt lat="42.93727" lon="0.27192">
        <ele>1160</ele>
        <time>2022-08-07T06:58:35Z</time>
      </trkpt>
      <trkpt lat="42.93724" lon="0.27191">
        <ele>1160.4</ele>
        <time>2022-08-07T06:58:37Z</time>
      </trkpt>
      <trkpt lat="42.93716" lon="0.27188">
        <ele>1161.2</ele>
        <time>2022-08-07T06:58:43Z</time>
      </trkpt>
      <trkpt lat="42.93713" lon="0.27187">
        <ele>1161.2</ele>
        <time>2022-08-07T06:58:45Z</time>
      </trkpt>
      <trkpt lat="42.93708" lon="0.27185">
        <ele>1162.2</ele>
        <time>2022-08-07T06:58:49Z</time>
      </trkpt>
      <trkpt lat="42.93703" lon="0.27182">
        <ele>1162.8</ele>
        <time>2022-08-07T06:58:53Z</time>
      </trkpt>
      <trkpt lat="42.93699" lon="0.2718">
        <ele>1163</ele>
        <time>2022-08-07T06:58:56Z</time>
      </trkpt>
      <trkpt lat="42.93697" lon="0.27178">
        <ele>1163.4</ele>
        <time>2022-08-07T06:58:57Z</time>
      </trkpt>
      <trkpt lat="42.93692" lon="0.27175">
        <ele>1164</ele>
        <time>2022-08-07T06:59:01Z</time>
      </trkpt>
      <trkpt lat="42.93691" lon="0.27174">
        <ele>1164</ele>
        <time>2022-08-07T06:59:02Z</time>
      </trkpt>
      <trkpt lat="42.93686" lon="0.27171">
        <ele>1164.6</ele>
        <time>2022-08-07T06:59:05Z</time>
      </trkpt>
      <trkpt lat="42.93683" lon="0.27168">
        <ele>1165</ele>
        <time>2022-08-07T06:59:08Z</time>
      </trkpt>
      <trkpt lat="42.93679" lon="0.27166">
        <ele>1165.2</ele>
        <time>2022-08-07T06:59:11Z</time>
      </trkpt>
      <trkpt lat="42.93677" lon="0.27165">
        <ele>1165.4</ele>
        <time>2022-08-07T06:59:13Z</time>
      </trkpt>
      <trkpt lat="42.93676" lon="0.27164">
        <ele>1165.6</ele>
        <time>2022-08-07T06:59:14Z</time>
      </trkpt>
      <trkpt lat="42.93674" lon="0.27164">
        <ele>1165.6</ele>
        <time>2022-08-07T06:59:15Z</time>
      </trkpt>
      <trkpt lat="42.93669" lon="0.27161">
        <ele>1166</ele>
        <time>2022-08-07T06:59:19Z</time>
      </trkpt>
      <trkpt lat="42.93665" lon="0.27158">
        <ele>1166.6</ele>
        <time>2022-08-07T06:59:22Z</time>
      </trkpt>
      <trkpt lat="42.93661" lon="0.27154">
        <ele>1166.8</ele>
        <time>2022-08-07T06:59:25Z</time>
      </trkpt>
      <trkpt lat="42.93653" lon="0.27149">
        <ele>1167.4</ele>
        <time>2022-08-07T06:59:31Z</time>
      </trkpt>
      <trkpt lat="42.93651" lon="0.27149">
        <ele>1167.4</ele>
        <time>2022-08-07T06:59:32Z</time>
      </trkpt>
      <trkpt lat="42.93644" lon="0.27145">
        <ele>1168.2</ele>
        <time>2022-08-07T06:59:38Z</time>
      </trkpt>
      <trkpt lat="42.93641" lon="0.27144">
        <ele>1168.4</ele>
        <time>2022-08-07T06:59:40Z</time>
      </trkpt>
      <trkpt lat="42.93636" lon="0.27142">
        <ele>1169</ele>
        <time>2022-08-07T06:59:45Z</time>
      </trkpt>
      <trkpt lat="42.9363" lon="0.2714">
        <ele>1169.4</ele>
        <time>2022-08-07T06:59:49Z</time>
      </trkpt>
      <trkpt lat="42.93625" lon="0.27136">
        <ele>1170</ele>
        <time>2022-08-07T06:59:53Z</time>
      </trkpt>
      <trkpt lat="42.93617" lon="0.27131">
        <ele>1170.6</ele>
        <time>2022-08-07T06:59:59Z</time>
      </trkpt>
      <trkpt lat="42.93612" lon="0.27127">
        <ele>1170.8</ele>
        <time>2022-08-07T07:00:02Z</time>
      </trkpt>
      <trkpt lat="42.93602" lon="0.27121">
        <ele>1171.4</ele>
        <time>2022-08-07T07:00:09Z</time>
      </trkpt>
      <trkpt lat="42.93599" lon="0.2712">
        <ele>1171.4</ele>
        <time>2022-08-07T07:00:11Z</time>
      </trkpt>
      <trkpt lat="42.93596" lon="0.27118">
        <ele>1171.6</ele>
        <time>2022-08-07T07:00:13Z</time>
      </trkpt>
      <trkpt lat="42.93593" lon="0.27116">
        <ele>1171.8</ele>
        <time>2022-08-07T07:00:15Z</time>
      </trkpt>
      <trkpt lat="42.9359" lon="0.27114">
        <ele>1172</ele>
        <time>2022-08-07T07:00:17Z</time>
      </trkpt>
      <trkpt lat="42.93588" lon="0.27114">
        <ele>1172.2</ele>
        <time>2022-08-07T07:00:19Z</time>
      </trkpt>
      <trkpt lat="42.93587" lon="0.27112">
        <ele>1172.2</ele>
        <time>2022-08-07T07:00:22Z</time>
      </trkpt>
      <trkpt lat="42.93586" lon="0.27111">
        <ele>1172.2</ele>
        <time>2022-08-07T07:00:23Z</time>
      </trkpt>
      <trkpt lat="42.93581" lon="0.27106">
        <ele>1172.4</ele>
        <time>2022-08-07T07:00:25Z</time>
      </trkpt>
      <trkpt lat="42.93573" lon="0.27101">
        <ele>1172.6</ele>
        <time>2022-08-07T07:00:28Z</time>
      </trkpt>
      <trkpt lat="42.93571" lon="0.271">
        <ele>1172.6</ele>
        <time>2022-08-07T07:00:29Z</time>
      </trkpt>
      <trkpt lat="42.93561" lon="0.27095">
        <ele>1173</ele>
        <time>2022-08-07T07:00:34Z</time>
      </trkpt>
      <trkpt lat="42.9354" lon="0.2708">
        <ele>1173.2</ele>
        <time>2022-08-07T07:00:42Z</time>
      </trkpt>
      <trkpt lat="42.93531" lon="0.27074">
        <ele>1173.2</ele>
        <time>2022-08-07T07:00:45Z</time>
      </trkpt>
      <trkpt lat="42.93522" lon="0.27067">
        <ele>1173.4</ele>
        <time>2022-08-07T07:00:49Z</time>
      </trkpt>
      <trkpt lat="42.93507" lon="0.27058">
        <ele>1173.6</ele>
        <time>2022-08-07T07:00:55Z</time>
      </trkpt>
      <trkpt lat="42.93502" lon="0.27055">
        <ele>1173.6</ele>
        <time>2022-08-07T07:00:57Z</time>
      </trkpt>
      <trkpt lat="42.93489" lon="0.27051">
        <ele>1173.6</ele>
        <time>2022-08-07T07:01:01Z</time>
      </trkpt>
      <trkpt lat="42.93483" lon="0.27054">
        <ele>1173.8</ele>
        <time>2022-08-07T07:01:05Z</time>
      </trkpt>
      <trkpt lat="42.93478" lon="0.27054">
        <ele>1174</ele>
        <time>2022-08-07T07:01:07Z</time>
      </trkpt>
      <trkpt lat="42.93467" lon="0.27054">
        <ele>1174.2</ele>
        <time>2022-08-07T07:01:12Z</time>
      </trkpt>
      <trkpt lat="42.93462" lon="0.27059">
        <ele>1174.4</ele>
        <time>2022-08-07T07:01:16Z</time>
      </trkpt>
      <trkpt lat="42.9345" lon="0.27057">
        <ele>1175.2</ele>
        <time>2022-08-07T07:01:24Z</time>
      </trkpt>
      <trkpt lat="42.93445" lon="0.27056">
        <ele>1175.4</ele>
        <time>2022-08-07T07:01:27Z</time>
      </trkpt>
      <trkpt lat="42.93438" lon="0.27053">
        <ele>1175.6</ele>
        <time>2022-08-07T07:01:31Z</time>
      </trkpt>
      <trkpt lat="42.93431" lon="0.27047">
        <ele>1176.2</ele>
        <time>2022-08-07T07:01:37Z</time>
      </trkpt>
      <trkpt lat="42.93423" lon="0.27041">
        <ele>1177</ele>
        <time>2022-08-07T07:01:43Z</time>
      </trkpt>
      <trkpt lat="42.93421" lon="0.27039">
        <ele>1177.2</ele>
        <time>2022-08-07T07:01:45Z</time>
      </trkpt>
      <trkpt lat="42.93415" lon="0.27033">
        <ele>1178</ele>
        <time>2022-08-07T07:01:50Z</time>
      </trkpt>
      <trkpt lat="42.93412" lon="0.27032">
        <ele>1178.4</ele>
        <time>2022-08-07T07:01:53Z</time>
      </trkpt>
      <trkpt lat="42.93406" lon="0.27027">
        <ele>1179</ele>
        <time>2022-08-07T07:01:57Z</time>
      </trkpt>
      <trkpt lat="42.93402" lon="0.27024">
        <ele>1179.2</ele>
        <time>2022-08-07T07:02:00Z</time>
      </trkpt>
      <trkpt lat="42.93395" lon="0.27015">
        <ele>1179.8</ele>
        <time>2022-08-07T07:02:06Z</time>
      </trkpt>
      <trkpt lat="42.9339" lon="0.27008">
        <ele>1180.2</ele>
        <time>2022-08-07T07:02:10Z</time>
      </trkpt>
      <trkpt lat="42.93385" lon="0.27002">
        <ele>1180.8</ele>
        <time>2022-08-07T07:02:14Z</time>
      </trkpt>
      <trkpt lat="42.93376" lon="0.26985">
        <ele>1181.4</ele>
        <time>2022-08-07T07:02:21Z</time>
      </trkpt>
      <trkpt lat="42.93375" lon="0.2698">
        <ele>1181.4</ele>
        <time>2022-08-07T07:02:23Z</time>
      </trkpt>
      <trkpt lat="42.93367" lon="0.2696">
        <ele>1181.8</ele>
        <time>2022-08-07T07:02:31Z</time>
      </trkpt>
      <trkpt lat="42.93366" lon="0.26942">
        <ele>1181.8</ele>
        <time>2022-08-07T07:02:37Z</time>
      </trkpt>
      <trkpt lat="42.93378" lon="0.26921">
        <ele>1181.4</ele>
        <time>2022-08-07T07:02:44Z</time>
      </trkpt>
      <trkpt lat="42.93383" lon="0.26904">
        <ele>1181.4</ele>
        <time>2022-08-07T07:02:49Z</time>
      </trkpt>
      <trkpt lat="42.93381" lon="0.26892">
        <ele>1181.6</ele>
        <time>2022-08-07T07:02:53Z</time>
      </trkpt>
      <trkpt lat="42.9338" lon="0.26891">
        <ele>1181.6</ele>
        <time>2022-08-07T07:02:54Z</time>
      </trkpt>
      <trkpt lat="42.9338" lon="0.26884">
        <ele>1181.8</ele>
        <time>2022-08-07T07:02:59Z</time>
      </trkpt>
      <trkpt lat="42.93377" lon="0.26881">
        <ele>1181.8</ele>
        <time>2022-08-07T07:03:01Z</time>
      </trkpt>
      <trkpt lat="42.93371" lon="0.2688">
        <ele>1181.8</ele>
        <time>2022-08-07T07:03:04Z</time>
      </trkpt>
      <trkpt lat="42.93362" lon="0.26874">
        <ele>1181.8</ele>
        <time>2022-08-07T07:03:08Z</time>
      </trkpt>
      <trkpt lat="42.93359" lon="0.26871">
        <ele>1181.8</ele>
        <time>2022-08-07T07:03:10Z</time>
      </trkpt>
      <trkpt lat="42.93345" lon="0.26861">
        <ele>1181.8</ele>
        <time>2022-08-07T07:03:15Z</time>
      </trkpt>
      <trkpt lat="42.93318" lon="0.2684">
        <ele>1181.8</ele>
        <time>2022-08-07T07:03:23Z</time>
      </trkpt>
      <trkpt lat="42.93307" lon="0.26819">
        <ele>1182</ele>
        <time>2022-08-07T07:03:29Z</time>
      </trkpt>
      <trkpt lat="42.933" lon="0.26785">
        <ele>1182</ele>
        <time>2022-08-07T07:03:37Z</time>
      </trkpt>
      <trkpt lat="42.93293" lon="0.2674">
        <ele>1181.8</ele>
        <time>2022-08-07T07:03:47Z</time>
      </trkpt>
      <trkpt lat="42.93278" lon="0.26707">
        <ele>1181.2</ele>
        <time>2022-08-07T07:03:54Z</time>
      </trkpt>
      <trkpt lat="42.93255" lon="0.26673">
        <ele>1180.4</ele>
        <time>2022-08-07T07:04:02Z</time>
      </trkpt>
      <trkpt lat="42.93249" lon="0.26663">
        <ele>1180</ele>
        <time>2022-08-07T07:04:05Z</time>
      </trkpt>
      <trkpt lat="42.93241" lon="0.2665">
        <ele>1179.8</ele>
        <time>2022-08-07T07:04:09Z</time>
      </trkpt>
      <trkpt lat="42.93228" lon="0.26627">
        <ele>1180.2</ele>
        <time>2022-08-07T07:04:16Z</time>
      </trkpt>
      <trkpt lat="42.93217" lon="0.26606">
        <ele>1181</ele>
        <time>2022-08-07T07:04:23Z</time>
      </trkpt>
      <trkpt lat="42.93215" lon="0.26599">
        <ele>1181</ele>
        <time>2022-08-07T07:04:25Z</time>
      </trkpt>
      <trkpt lat="42.93218" lon="0.2657">
        <ele>1182</ele>
        <time>2022-08-07T07:04:32Z</time>
      </trkpt>
      <trkpt lat="42.93229" lon="0.2654">
        <ele>1182.4</ele>
        <time>2022-08-07T07:04:41Z</time>
      </trkpt>
      <trkpt lat="42.93241" lon="0.26523">
        <ele>1182.8</ele>
        <time>2022-08-07T07:04:47Z</time>
      </trkpt>
      <trkpt lat="42.93246" lon="0.26518">
        <ele>1183</ele>
        <time>2022-08-07T07:04:49Z</time>
      </trkpt>
      <trkpt lat="42.93263" lon="0.2651">
        <ele>1183.4</ele>
        <time>2022-08-07T07:04:56Z</time>
      </trkpt>
      <trkpt lat="42.93274" lon="0.26519">
        <ele>1183.4</ele>
        <time>2022-08-07T07:05:01Z</time>
      </trkpt>
      <trkpt lat="42.93288" lon="0.26533">
        <ele>1183.2</ele>
        <time>2022-08-07T07:05:06Z</time>
      </trkpt>
      <trkpt lat="42.93292" lon="0.26536">
        <ele>1183</ele>
        <time>2022-08-07T07:05:07Z</time>
      </trkpt>
      <trkpt lat="42.93306" lon="0.26547">
        <ele>1181.8</ele>
        <time>2022-08-07T07:05:11Z</time>
      </trkpt>
      <trkpt lat="42.93316" lon="0.26555">
        <ele>1181.4</ele>
        <time>2022-08-07T07:05:13Z</time>
      </trkpt>
      <trkpt lat="42.9333" lon="0.2656">
        <ele>1180.6</ele>
        <time>2022-08-07T07:05:17Z</time>
      </trkpt>
      <trkpt lat="42.93338" lon="0.26556">
        <ele>1179.4</ele>
        <time>2022-08-07T07:05:20Z</time>
      </trkpt>
      <trkpt lat="42.93339" lon="0.26554">
        <ele>1179</ele>
        <time>2022-08-07T07:05:21Z</time>
      </trkpt>
      <trkpt lat="42.93343" lon="0.2655">
        <ele>1178.2</ele>
        <time>2022-08-07T07:05:23Z</time>
      </trkpt>
      <trkpt lat="42.93348" lon="0.26541">
        <ele>1177.6</ele>
        <time>2022-08-07T07:05:27Z</time>
      </trkpt>
      <trkpt lat="42.93349" lon="0.26539">
        <ele>1177.6</ele>
        <time>2022-08-07T07:05:28Z</time>
      </trkpt>
      <trkpt lat="42.93357" lon="0.26539">
        <ele>1177.4</ele>
        <time>2022-08-07T07:05:31Z</time>
      </trkpt>
      <trkpt lat="42.93367" lon="0.26541">
        <ele>1177.2</ele>
        <time>2022-08-07T07:05:34Z</time>
      </trkpt>
      <trkpt lat="42.93376" lon="0.26543">
        <ele>1177</ele>
        <time>2022-08-07T07:05:36Z</time>
      </trkpt>
      <trkpt lat="42.93401" lon="0.26548">
        <ele>1176</ele>
        <time>2022-08-07T07:05:41Z</time>
      </trkpt>
      <trkpt lat="42.93406" lon="0.26549">
        <ele>1175.8</ele>
        <time>2022-08-07T07:05:42Z</time>
      </trkpt>
      <trkpt lat="42.93435" lon="0.26553">
        <ele>1175</ele>
        <time>2022-08-07T07:05:47Z</time>
      </trkpt>
      <trkpt lat="42.93441" lon="0.26554">
        <ele>1174.8</ele>
        <time>2022-08-07T07:05:48Z</time>
      </trkpt>
      <trkpt lat="42.93461" lon="0.26553">
        <ele>1173.6</ele>
        <time>2022-08-07T07:05:51Z</time>
      </trkpt>
      <trkpt lat="42.9348" lon="0.2655">
        <ele>1172.8</ele>
        <time>2022-08-07T07:05:54Z</time>
      </trkpt>
      <trkpt lat="42.93486" lon="0.26549">
        <ele>1172.4</ele>
        <time>2022-08-07T07:05:55Z</time>
      </trkpt>
      <trkpt lat="42.9351" lon="0.26543">
        <ele>1171.2</ele>
        <time>2022-08-07T07:05:59Z</time>
      </trkpt>
      <trkpt lat="42.93521" lon="0.26539">
        <ele>1171</ele>
        <time>2022-08-07T07:06:01Z</time>
      </trkpt>
      <trkpt lat="42.93527" lon="0.26538">
        <ele>1171</ele>
        <time>2022-08-07T07:06:02Z</time>
      </trkpt>
      <trkpt lat="42.9354" lon="0.26538">
        <ele>1170.2</ele>
        <time>2022-08-07T07:06:05Z</time>
      </trkpt>
      <trkpt lat="42.93544" lon="0.26538">
        <ele>1170</ele>
        <time>2022-08-07T07:06:06Z</time>
      </trkpt>
      <trkpt lat="42.93563" lon="0.26542">
        <ele>1169.8</ele>
        <time>2022-08-07T07:06:11Z</time>
      </trkpt>
      <trkpt lat="42.9359" lon="0.26553">
        <ele>1170</ele>
        <time>2022-08-07T07:06:19Z</time>
      </trkpt>
      <trkpt lat="42.93608" lon="0.26563">
        <ele>1170.4</ele>
        <time>2022-08-07T07:06:26Z</time>
      </trkpt>
      <trkpt lat="42.93624" lon="0.26573">
        <ele>1170.8</ele>
        <time>2022-08-07T07:06:32Z</time>
      </trkpt>
      <trkpt lat="42.93628" lon="0.26576">
        <ele>1171.2</ele>
        <time>2022-08-07T07:06:34Z</time>
      </trkpt>
      <trkpt lat="42.93644" lon="0.2659">
        <ele>1171.6</ele>
        <time>2022-08-07T07:06:41Z</time>
      </trkpt>
      <trkpt lat="42.9365" lon="0.26595">
        <ele>1172</ele>
        <time>2022-08-07T07:06:44Z</time>
      </trkpt>
      <trkpt lat="42.93668" lon="0.26609">
        <ele>1172.8</ele>
        <time>2022-08-07T07:06:53Z</time>
      </trkpt>
      <trkpt lat="42.93674" lon="0.26612">
        <ele>1173.2</ele>
        <time>2022-08-07T07:06:56Z</time>
      </trkpt>
      <trkpt lat="42.93686" lon="0.26622">
        <ele>1173.8</ele>
        <time>2022-08-07T07:07:02Z</time>
      </trkpt>
      <trkpt lat="42.9369" lon="0.26625">
        <ele>1174</ele>
        <time>2022-08-07T07:07:04Z</time>
      </trkpt>
      <trkpt lat="42.93702" lon="0.26633">
        <ele>1175</ele>
        <time>2022-08-07T07:07:11Z</time>
      </trkpt>
      <trkpt lat="42.93704" lon="0.26634">
        <ele>1175.2</ele>
        <time>2022-08-07T07:07:12Z</time>
      </trkpt>
      <trkpt lat="42.9371" lon="0.26635">
        <ele>1175.8</ele>
        <time>2022-08-07T07:07:15Z</time>
      </trkpt>
      <trkpt lat="42.93713" lon="0.26637">
        <ele>1176</ele>
        <time>2022-08-07T07:07:17Z</time>
      </trkpt>
      <trkpt lat="42.93716" lon="0.26638">
        <ele>1176.2</ele>
        <time>2022-08-07T07:07:18Z</time>
      </trkpt>
      <trkpt lat="42.9372" lon="0.26639">
        <ele>1176.4</ele>
        <time>2022-08-07T07:07:20Z</time>
      </trkpt>
      <trkpt lat="42.93727" lon="0.26642">
        <ele>1176.8</ele>
        <time>2022-08-07T07:07:24Z</time>
      </trkpt>
      <trkpt lat="42.93732" lon="0.26643">
        <ele>1177.2</ele>
        <time>2022-08-07T07:07:27Z</time>
      </trkpt>
      <trkpt lat="42.93743" lon="0.26643">
        <ele>1178.2</ele>
        <time>2022-08-07T07:07:33Z</time>
      </trkpt>
      <trkpt lat="42.93759" lon="0.26639">
        <ele>1179.2</ele>
        <time>2022-08-07T07:07:42Z</time>
      </trkpt>
      <trkpt lat="42.93773" lon="0.26636">
        <ele>1180.2</ele>
        <time>2022-08-07T07:07:50Z</time>
      </trkpt>
      <trkpt lat="42.93774" lon="0.26635">
        <ele>1180.4</ele>
        <time>2022-08-07T07:07:51Z</time>
      </trkpt>
      <trkpt lat="42.93782" lon="0.2663">
        <ele>1181</ele>
        <time>2022-08-07T07:07:56Z</time>
      </trkpt>
      <trkpt lat="42.93786" lon="0.26628">
        <ele>1181.4</ele>
        <time>2022-08-07T07:07:59Z</time>
      </trkpt>
      <trkpt lat="42.9379" lon="0.26623">
        <ele>1182.2</ele>
        <time>2022-08-07T07:08:03Z</time>
      </trkpt>
      <trkpt lat="42.93791" lon="0.26622">
        <ele>1182.4</ele>
        <time>2022-08-07T07:08:04Z</time>
      </trkpt>
      <trkpt lat="42.93793" lon="0.2662">
        <ele>1183</ele>
        <time>2022-08-07T07:08:06Z</time>
      </trkpt>
      <trkpt lat="42.93797" lon="0.26617">
        <ele>1183.6</ele>
        <time>2022-08-07T07:08:09Z</time>
      </trkpt>
      <trkpt lat="42.93797" lon="0.26616">
        <ele>1183.6</ele>
        <time>2022-08-07T07:08:10Z</time>
      </trkpt>
      <trkpt lat="42.938" lon="0.2661">
        <ele>1184.6</ele>
        <time>2022-08-07T07:08:14Z</time>
      </trkpt>
      <trkpt lat="42.93801" lon="0.26607">
        <ele>1185</ele>
        <time>2022-08-07T07:08:16Z</time>
      </trkpt>
      <trkpt lat="42.93803" lon="0.26603">
        <ele>1185.6</ele>
        <time>2022-08-07T07:08:18Z</time>
      </trkpt>
      <trkpt lat="42.93804" lon="0.26596">
        <ele>1186.4</ele>
        <time>2022-08-07T07:08:22Z</time>
      </trkpt>
      <trkpt lat="42.93807" lon="0.2659">
        <ele>1186.8</ele>
        <time>2022-08-07T07:08:26Z</time>
      </trkpt>
      <trkpt lat="42.93807" lon="0.26582">
        <ele>1187.2</ele>
        <time>2022-08-07T07:08:30Z</time>
      </trkpt>
      <trkpt lat="42.93808" lon="0.26574">
        <ele>1188</ele>
        <time>2022-08-07T07:08:34Z</time>
      </trkpt>
      <trkpt lat="42.93808" lon="0.26565">
        <ele>1188.8</ele>
        <time>2022-08-07T07:08:39Z</time>
      </trkpt>
      <trkpt lat="42.93808" lon="0.26563">
        <ele>1188.8</ele>
        <time>2022-08-07T07:08:40Z</time>
      </trkpt>
      <trkpt lat="42.93808" lon="0.26547">
        <ele>1190</ele>
        <time>2022-08-07T07:08:49Z</time>
      </trkpt>
      <trkpt lat="42.93809" lon="0.26532">
        <ele>1191</ele>
        <time>2022-08-07T07:08:57Z</time>
      </trkpt>
      <trkpt lat="42.93809" lon="0.26528">
        <ele>1191.2</ele>
        <time>2022-08-07T07:08:59Z</time>
      </trkpt>
      <trkpt lat="42.93811" lon="0.26516">
        <ele>1192</ele>
        <time>2022-08-07T07:09:06Z</time>
      </trkpt>
      <trkpt lat="42.93812" lon="0.26501">
        <ele>1193.2</ele>
        <time>2022-08-07T07:09:14Z</time>
      </trkpt>
      <trkpt lat="42.93813" lon="0.26498">
        <ele>1193.4</ele>
        <time>2022-08-07T07:09:16Z</time>
      </trkpt>
      <trkpt lat="42.93816" lon="0.26491">
        <ele>1194.2</ele>
        <time>2022-08-07T07:09:21Z</time>
      </trkpt>
      <trkpt lat="42.93817" lon="0.26485">
        <ele>1194.8</ele>
        <time>2022-08-07T07:09:24Z</time>
      </trkpt>
      <trkpt lat="42.93818" lon="0.26484">
        <ele>1194.8</ele>
        <time>2022-08-07T07:09:25Z</time>
      </trkpt>
      <trkpt lat="42.93819" lon="0.26475">
        <ele>1195.4</ele>
        <time>2022-08-07T07:09:29Z</time>
      </trkpt>
      <trkpt lat="42.9382" lon="0.26471">
        <ele>1195.6</ele>
        <time>2022-08-07T07:09:31Z</time>
      </trkpt>
      <trkpt lat="42.93821" lon="0.26468">
        <ele>1195.8</ele>
        <time>2022-08-07T07:09:33Z</time>
      </trkpt>
      <trkpt lat="42.93823" lon="0.26458">
        <ele>1196.6</ele>
        <time>2022-08-07T07:09:40Z</time>
      </trkpt>
      <trkpt lat="42.93823" lon="0.26457">
        <ele>1196.6</ele>
        <time>2022-08-07T07:09:41Z</time>
      </trkpt>
      <trkpt lat="42.93823" lon="0.26451">
        <ele>1197.2</ele>
        <time>2022-08-07T07:09:45Z</time>
      </trkpt>
      <trkpt lat="42.93824" lon="0.26448">
        <ele>1197.6</ele>
        <time>2022-08-07T07:09:48Z</time>
      </trkpt>
      <trkpt lat="42.93824" lon="0.26447">
        <ele>1198</ele>
        <time>2022-08-07T07:09:49Z</time>
      </trkpt>
      <trkpt lat="42.93825" lon="0.26443">
        <ele>1198.4</ele>
        <time>2022-08-07T07:09:52Z</time>
      </trkpt>
      <trkpt lat="42.93825" lon="0.2644">
        <ele>1198.8</ele>
        <time>2022-08-07T07:09:55Z</time>
      </trkpt>
      <trkpt lat="42.93824" lon="0.2643">
        <ele>1199.4</ele>
        <time>2022-08-07T07:10:00Z</time>
      </trkpt>
      <trkpt lat="42.93824" lon="0.26425">
        <ele>1199.8</ele>
        <time>2022-08-07T07:10:02Z</time>
      </trkpt>
      <trkpt lat="42.93825" lon="0.2641">
        <ele>1200</ele>
        <time>2022-08-07T07:10:07Z</time>
      </trkpt>
      <trkpt lat="42.93824" lon="0.264">
        <ele>1200.6</ele>
        <time>2022-08-07T07:10:11Z</time>
      </trkpt>
      <trkpt lat="42.93824" lon="0.26398">
        <ele>1200.8</ele>
        <time>2022-08-07T07:10:12Z</time>
      </trkpt>
      <trkpt lat="42.93824" lon="0.26396">
        <ele>1200.8</ele>
        <time>2022-08-07T07:10:13Z</time>
      </trkpt>
      <trkpt lat="42.93825" lon="0.26393">
        <ele>1201.2</ele>
        <time>2022-08-07T07:10:15Z</time>
      </trkpt>
      <trkpt lat="42.93826" lon="0.26387">
        <ele>1201.6</ele>
        <time>2022-08-07T07:10:18Z</time>
      </trkpt>
      <trkpt lat="42.93826" lon="0.26386">
        <ele>1201.8</ele>
        <time>2022-08-07T07:10:19Z</time>
      </trkpt>
      <trkpt lat="42.93826" lon="0.26384">
        <ele>1201.8</ele>
        <time>2022-08-07T07:10:20Z</time>
      </trkpt>
      <trkpt lat="42.93827" lon="0.26377">
        <ele>1202.2</ele>
        <time>2022-08-07T07:10:24Z</time>
      </trkpt>
      <trkpt lat="42.93825" lon="0.26365">
        <ele>1203</ele>
        <time>2022-08-07T07:10:28Z</time>
      </trkpt>
      <trkpt lat="42.93825" lon="0.26364">
        <ele>1203.2</ele>
        <time>2022-08-07T07:10:29Z</time>
      </trkpt>
      <trkpt lat="42.93824" lon="0.26354">
        <ele>1204</ele>
        <time>2022-08-07T07:10:34Z</time>
      </trkpt>
      <trkpt lat="42.93823" lon="0.26346">
        <ele>1204.4</ele>
        <time>2022-08-07T07:10:37Z</time>
      </trkpt>
      <trkpt lat="42.93823" lon="0.26342">
        <ele>1204.8</ele>
        <time>2022-08-07T07:10:39Z</time>
      </trkpt>
      <trkpt lat="42.93823" lon="0.2634">
        <ele>1205.2</ele>
        <time>2022-08-07T07:10:40Z</time>
      </trkpt>
      <trkpt lat="42.93822" lon="0.26332">
        <ele>1205.8</ele>
        <time>2022-08-07T07:10:44Z</time>
      </trkpt>
      <trkpt lat="42.93822" lon="0.26327">
        <ele>1206.2</ele>
        <time>2022-08-07T07:10:46Z</time>
      </trkpt>
      <trkpt lat="42.93821" lon="0.26322">
        <ele>1206.6</ele>
        <time>2022-08-07T07:10:48Z</time>
      </trkpt>
      <trkpt lat="42.9382" lon="0.26314">
        <ele>1207.4</ele>
        <time>2022-08-07T07:10:53Z</time>
      </trkpt>
      <trkpt lat="42.93816" lon="0.26306">
        <ele>1207.6</ele>
        <time>2022-08-07T07:10:58Z</time>
      </trkpt>
      <trkpt lat="42.93818" lon="0.263">
        <ele>1208.2</ele>
        <time>2022-08-07T07:11:02Z</time>
      </trkpt>
      <trkpt lat="42.93817" lon="0.26296">
        <ele>1208.8</ele>
        <time>2022-08-07T07:11:05Z</time>
      </trkpt>
      <trkpt lat="42.9382" lon="0.26285">
        <ele>1209.4</ele>
        <time>2022-08-07T07:11:11Z</time>
      </trkpt>
      <trkpt lat="42.93821" lon="0.26282">
        <ele>1209.6</ele>
        <time>2022-08-07T07:11:13Z</time>
      </trkpt>
      <trkpt lat="42.93824" lon="0.26269">
        <ele>1210.4</ele>
        <time>2022-08-07T07:11:20Z</time>
      </trkpt>
      <trkpt lat="42.93825" lon="0.26267">
        <ele>1210.6</ele>
        <time>2022-08-07T07:11:21Z</time>
      </trkpt>
      <trkpt lat="42.93827" lon="0.26254">
        <ele>1211.2</ele>
        <time>2022-08-07T07:11:29Z</time>
      </trkpt>
      <trkpt lat="42.93828" lon="0.26247">
        <ele>1211.4</ele>
        <time>2022-08-07T07:11:33Z</time>
      </trkpt>
      <trkpt lat="42.93829" lon="0.26242">
        <ele>1212.2</ele>
        <time>2022-08-07T07:11:36Z</time>
      </trkpt>
      <trkpt lat="42.9383" lon="0.2624">
        <ele>1212.6</ele>
        <time>2022-08-07T07:11:38Z</time>
      </trkpt>
      <trkpt lat="42.93832" lon="0.26238">
        <ele>1213</ele>
        <time>2022-08-07T07:11:40Z</time>
      </trkpt>
      <trkpt lat="42.93834" lon="0.26235">
        <ele>1213.6</ele>
        <time>2022-08-07T07:11:43Z</time>
      </trkpt>
      <trkpt lat="42.93835" lon="0.26233">
        <ele>1213.8</ele>
        <time>2022-08-07T07:11:44Z</time>
      </trkpt>
      <trkpt lat="42.93839" lon="0.26227">
        <ele>1214.8</ele>
        <time>2022-08-07T07:11:48Z</time>
      </trkpt>
      <trkpt lat="42.9384" lon="0.26226">
        <ele>1215</ele>
        <time>2022-08-07T07:11:49Z</time>
      </trkpt>
      <trkpt lat="42.93843" lon="0.26224">
        <ele>1215.4</ele>
        <time>2022-08-07T07:11:52Z</time>
      </trkpt>
      <trkpt lat="42.93844" lon="0.26224">
        <ele>1215.4</ele>
        <time>2022-08-07T07:11:53Z</time>
      </trkpt>
      <trkpt lat="42.93846" lon="0.26219">
        <ele>1216</ele>
        <time>2022-08-07T07:11:56Z</time>
      </trkpt>
      <trkpt lat="42.93848" lon="0.26215">
        <ele>1216.8</ele>
        <time>2022-08-07T07:11:59Z</time>
      </trkpt>
      <trkpt lat="42.9385" lon="0.26212">
        <ele>1217</ele>
        <time>2022-08-07T07:12:02Z</time>
      </trkpt>
      <trkpt lat="42.93854" lon="0.26205">
        <ele>1218.2</ele>
        <time>2022-08-07T07:12:07Z</time>
      </trkpt>
      <trkpt lat="42.93855" lon="0.26204">
        <ele>1218.4</ele>
        <time>2022-08-07T07:12:08Z</time>
      </trkpt>
      <trkpt lat="42.93859" lon="0.262">
        <ele>1219.2</ele>
        <time>2022-08-07T07:12:12Z</time>
      </trkpt>
      <trkpt lat="42.93861" lon="0.26195">
        <ele>1220</ele>
        <time>2022-08-07T07:12:16Z</time>
      </trkpt>
      <trkpt lat="42.93863" lon="0.26191">
        <ele>1220.4</ele>
        <time>2022-08-07T07:12:18Z</time>
      </trkpt>
      <trkpt lat="42.93866" lon="0.26183">
        <ele>1220.8</ele>
        <time>2022-08-07T07:12:23Z</time>
      </trkpt>
      <trkpt lat="42.93867" lon="0.26179">
        <ele>1221.2</ele>
        <time>2022-08-07T07:12:26Z</time>
      </trkpt>
      <trkpt lat="42.93873" lon="0.26169">
        <ele>1222</ele>
        <time>2022-08-07T07:12:34Z</time>
      </trkpt>
      <trkpt lat="42.93874" lon="0.26164">
        <ele>1222.2</ele>
        <time>2022-08-07T07:12:37Z</time>
      </trkpt>
      <trkpt lat="42.93877" lon="0.26156">
        <ele>1223.2</ele>
        <time>2022-08-07T07:12:43Z</time>
      </trkpt>
      <trkpt lat="42.93878" lon="0.26154">
        <ele>1223.4</ele>
        <time>2022-08-07T07:12:44Z</time>
      </trkpt>
      <trkpt lat="42.93882" lon="0.26143">
        <ele>1224.4</ele>
        <time>2022-08-07T07:12:52Z</time>
      </trkpt>
      <trkpt lat="42.93883" lon="0.26142">
        <ele>1224.6</ele>
        <time>2022-08-07T07:12:53Z</time>
      </trkpt>
      <trkpt lat="42.93887" lon="0.26134">
        <ele>1225.4</ele>
        <time>2022-08-07T07:12:59Z</time>
      </trkpt>
      <trkpt lat="42.93888" lon="0.26132">
        <ele>1225.6</ele>
        <time>2022-08-07T07:13:01Z</time>
      </trkpt>
      <trkpt lat="42.93889" lon="0.2613">
        <ele>1225.8</ele>
        <time>2022-08-07T07:13:02Z</time>
      </trkpt>
      <trkpt lat="42.9389" lon="0.26123">
        <ele>1226.4</ele>
        <time>2022-08-07T07:13:06Z</time>
      </trkpt>
      <trkpt lat="42.93891" lon="0.26117">
        <ele>1226.6</ele>
        <time>2022-08-07T07:13:09Z</time>
      </trkpt>
      <trkpt lat="42.93892" lon="0.26098">
        <ele>1226.6</ele>
        <time>2022-08-07T07:13:15Z</time>
      </trkpt>
      <trkpt lat="42.9389" lon="0.26067">
        <ele>1226.4</ele>
        <time>2022-08-07T07:13:23Z</time>
      </trkpt>
      <trkpt lat="42.9389" lon="0.26038">
        <ele>1226.2</ele>
        <time>2022-08-07T07:13:32Z</time>
      </trkpt>
      <trkpt lat="42.93894" lon="0.2602">
        <ele>1226.6</ele>
        <time>2022-08-07T07:13:39Z</time>
      </trkpt>
      <trkpt lat="42.93895" lon="0.26002">
        <ele>1227.4</ele>
        <time>2022-08-07T07:13:47Z</time>
      </trkpt>
      <trkpt lat="42.93895" lon="0.25997">
        <ele>1227.6</ele>
        <time>2022-08-07T07:13:49Z</time>
      </trkpt>
      <trkpt lat="42.93893" lon="0.25981">
        <ele>1228.6</ele>
        <time>2022-08-07T07:13:55Z</time>
      </trkpt>
      <trkpt lat="42.93892" lon="0.25979">
        <ele>1228.6</ele>
        <time>2022-08-07T07:13:56Z</time>
      </trkpt>
      <trkpt lat="42.93884" lon="0.25951">
        <ele>1228.8</ele>
        <time>2022-08-07T07:14:03Z</time>
      </trkpt>
      <trkpt lat="42.93873" lon="0.2592">
        <ele>1228</ele>
        <time>2022-08-07T07:14:10Z</time>
      </trkpt>
      <trkpt lat="42.93866" lon="0.25904">
        <ele>1227.8</ele>
        <time>2022-08-07T07:14:15Z</time>
      </trkpt>
      <trkpt lat="42.93851" lon="0.25873">
        <ele>1228</ele>
        <time>2022-08-07T07:14:24Z</time>
      </trkpt>
      <trkpt lat="42.93839" lon="0.25846">
        <ele>1228.8</ele>
        <time>2022-08-07T07:14:33Z</time>
      </trkpt>
      <trkpt lat="42.93836" lon="0.25819">
        <ele>1229.4</ele>
        <time>2022-08-07T07:14:41Z</time>
      </trkpt>
      <trkpt lat="42.93836" lon="0.25815">
        <ele>1229.6</ele>
        <time>2022-08-07T07:14:42Z</time>
      </trkpt>
      <trkpt lat="42.93835" lon="0.25806">
        <ele>1229.8</ele>
        <time>2022-08-07T07:14:45Z</time>
      </trkpt>
      <trkpt lat="42.93833" lon="0.25786">
        <ele>1230.2</ele>
        <time>2022-08-07T07:14:51Z</time>
      </trkpt>
      <trkpt lat="42.93829" lon="0.25758">
        <ele>1230.8</ele>
        <time>2022-08-07T07:14:58Z</time>
      </trkpt>
      <trkpt lat="42.93829" lon="0.25758">
        <ele>1231</ele>
        <time>2022-08-07T07:14:59Z</time>
      </trkpt>
      <trkpt lat="42.93823" lon="0.25744">
        <ele>1231.2</ele>
        <time>2022-08-07T07:15:04Z</time>
      </trkpt>
      <trkpt lat="42.93808" lon="0.25716">
        <ele>1231.6</ele>
        <time>2022-08-07T07:15:15Z</time>
      </trkpt>
      <trkpt lat="42.93804" lon="0.25707">
        <ele>1232</ele>
        <time>2022-08-07T07:15:18Z</time>
      </trkpt>
      <trkpt lat="42.93791" lon="0.25684">
        <ele>1232.6</ele>
        <time>2022-08-07T07:15:26Z</time>
      </trkpt>
      <trkpt lat="42.93786" lon="0.25676">
        <ele>1232.8</ele>
        <time>2022-08-07T07:15:30Z</time>
      </trkpt>
      <trkpt lat="42.93782" lon="0.25666">
        <ele>1233.2</ele>
        <time>2022-08-07T07:15:34Z</time>
      </trkpt>
      <trkpt lat="42.93776" lon="0.25645">
        <ele>1234</ele>
        <time>2022-08-07T07:15:40Z</time>
      </trkpt>
      <trkpt lat="42.93773" lon="0.25636">
        <ele>1234.2</ele>
        <time>2022-08-07T07:15:43Z</time>
      </trkpt>
      <trkpt lat="42.93769" lon="0.25622">
        <ele>1235</ele>
        <time>2022-08-07T07:15:49Z</time>
      </trkpt>
      <trkpt lat="42.93762" lon="0.25598">
        <ele>1235.8</ele>
        <time>2022-08-07T07:15:56Z</time>
      </trkpt>
      <trkpt lat="42.93761" lon="0.25591">
        <ele>1236.2</ele>
        <time>2022-08-07T07:15:59Z</time>
      </trkpt>
      <trkpt lat="42.93751" lon="0.25566">
        <ele>1236.6</ele>
        <time>2022-08-07T07:16:07Z</time>
      </trkpt>
      <trkpt lat="42.9374" lon="0.25557">
        <ele>1237.2</ele>
        <time>2022-08-07T07:16:13Z</time>
      </trkpt>
      <trkpt lat="42.93733" lon="0.25551">
        <ele>1237.8</ele>
        <time>2022-08-07T07:16:17Z</time>
      </trkpt>
      <trkpt lat="42.93731" lon="0.25548">
        <ele>1238.4</ele>
        <time>2022-08-07T07:16:19Z</time>
      </trkpt>
      <trkpt lat="42.93726" lon="0.2554">
        <ele>1239</ele>
        <time>2022-08-07T07:16:23Z</time>
      </trkpt>
      <trkpt lat="42.93725" lon="0.25538">
        <ele>1239</ele>
        <time>2022-08-07T07:16:24Z</time>
      </trkpt>
      <trkpt lat="42.9372" lon="0.2553">
        <ele>1239.4</ele>
        <time>2022-08-07T07:16:28Z</time>
      </trkpt>
      <trkpt lat="42.93713" lon="0.25519">
        <ele>1240</ele>
        <time>2022-08-07T07:16:33Z</time>
      </trkpt>
      <trkpt lat="42.93709" lon="0.25513">
        <ele>1240.6</ele>
        <time>2022-08-07T07:16:36Z</time>
      </trkpt>
      <trkpt lat="42.93701" lon="0.25504">
        <ele>1241.2</ele>
        <time>2022-08-07T07:16:42Z</time>
      </trkpt>
      <trkpt lat="42.93696" lon="0.25499">
        <ele>1241.8</ele>
        <time>2022-08-07T07:16:46Z</time>
      </trkpt>
      <trkpt lat="42.9369" lon="0.25493">
        <ele>1242.4</ele>
        <time>2022-08-07T07:16:51Z</time>
      </trkpt>
      <trkpt lat="42.93686" lon="0.2549">
        <ele>1242.8</ele>
        <time>2022-08-07T07:16:54Z</time>
      </trkpt>
      <trkpt lat="42.93676" lon="0.2548">
        <ele>1243.8</ele>
        <time>2022-08-07T07:17:01Z</time>
      </trkpt>
      <trkpt lat="42.93674" lon="0.25479">
        <ele>1244</ele>
        <time>2022-08-07T07:17:02Z</time>
      </trkpt>
      <trkpt lat="42.93665" lon="0.25474">
        <ele>1244.8</ele>
        <time>2022-08-07T07:17:09Z</time>
      </trkpt>
      <trkpt lat="42.93662" lon="0.25474">
        <ele>1245</ele>
        <time>2022-08-07T07:17:11Z</time>
      </trkpt>
      <trkpt lat="42.93655" lon="0.25474">
        <ele>1246</ele>
        <time>2022-08-07T07:17:16Z</time>
      </trkpt>
      <trkpt lat="42.93654" lon="0.25474">
        <ele>1246.2</ele>
        <time>2022-08-07T07:17:17Z</time>
      </trkpt>
      <trkpt lat="42.93646" lon="0.25472">
        <ele>1252.6</ele>
        <time>2022-08-07T07:17:23Z</time>
      </trkpt>
      <trkpt lat="42.93642" lon="0.25472">
        <ele>1247.6</ele>
        <time>2022-08-07T07:17:26Z</time>
      </trkpt>
      <trkpt lat="42.93634" lon="0.25469">
        <ele>1248.4</ele>
        <time>2022-08-07T07:17:33Z</time>
      </trkpt>
      <trkpt lat="42.93628" lon="0.25467">
        <ele>1249</ele>
        <time>2022-08-07T07:17:37Z</time>
      </trkpt>
      <trkpt lat="42.93623" lon="0.25466">
        <ele>1249.4</ele>
        <time>2022-08-07T07:17:40Z</time>
      </trkpt>
      <trkpt lat="42.93613" lon="0.25461">
        <ele>1250.2</ele>
        <time>2022-08-07T07:17:47Z</time>
      </trkpt>
      <trkpt lat="42.93603" lon="0.25455">
        <ele>1251.4</ele>
        <time>2022-08-07T07:17:55Z</time>
      </trkpt>
      <trkpt lat="42.93595" lon="0.25452">
        <ele>1252.4</ele>
        <time>2022-08-07T07:18:02Z</time>
      </trkpt>
      <trkpt lat="42.93592" lon="0.25451">
        <ele>1252.6</ele>
        <time>2022-08-07T07:18:03Z</time>
      </trkpt>
      <trkpt lat="42.93578" lon="0.25446">
        <ele>1253.4</ele>
        <time>2022-08-07T07:18:12Z</time>
      </trkpt>
      <trkpt lat="42.93572" lon="0.25442">
        <ele>1253.6</ele>
        <time>2022-08-07T07:18:14Z</time>
      </trkpt>
      <trkpt lat="42.93554" lon="0.25435">
        <ele>1254</ele>
        <time>2022-08-07T07:18:22Z</time>
      </trkpt>
      <trkpt lat="42.93536" lon="0.2543">
        <ele>1254.2</ele>
        <time>2022-08-07T07:18:31Z</time>
      </trkpt>
      <trkpt lat="42.93518" lon="0.25426">
        <ele>1254.6</ele>
        <time>2022-08-07T07:18:39Z</time>
      </trkpt>
      <trkpt lat="42.93516" lon="0.25425">
        <ele>1254.6</ele>
        <time>2022-08-07T07:18:40Z</time>
      </trkpt>
      <trkpt lat="42.93498" lon="0.2542">
        <ele>1255.2</ele>
        <time>2022-08-07T07:18:48Z</time>
      </trkpt>
      <trkpt lat="42.93485" lon="0.2542">
        <ele>1255.6</ele>
        <time>2022-08-07T07:18:55Z</time>
      </trkpt>
      <trkpt lat="42.93476" lon="0.25423">
        <ele>1255.8</ele>
        <time>2022-08-07T07:18:58Z</time>
      </trkpt>
      <trkpt lat="42.93456" lon="0.25425">
        <ele>1256.6</ele>
        <time>2022-08-07T07:19:07Z</time>
      </trkpt>
      <trkpt lat="42.93454" lon="0.25424">
        <ele>1256.6</ele>
        <time>2022-08-07T07:19:08Z</time>
      </trkpt>
      <trkpt lat="42.9344" lon="0.25417">
        <ele>1257.2</ele>
        <time>2022-08-07T07:19:15Z</time>
      </trkpt>
      <trkpt lat="42.93434" lon="0.25412">
        <ele>1257.6</ele>
        <time>2022-08-07T07:19:18Z</time>
      </trkpt>
      <trkpt lat="42.93426" lon="0.25407">
        <ele>1258</ele>
        <time>2022-08-07T07:19:22Z</time>
      </trkpt>
      <trkpt lat="42.93412" lon="0.25405">
        <ele>1258.8</ele>
        <time>2022-08-07T07:19:29Z</time>
      </trkpt>
      <trkpt lat="42.9341" lon="0.25405">
        <ele>1258.8</ele>
        <time>2022-08-07T07:19:30Z</time>
      </trkpt>
      <trkpt lat="42.93394" lon="0.25407">
        <ele>1259.4</ele>
        <time>2022-08-07T07:19:39Z</time>
      </trkpt>
      <trkpt lat="42.93376" lon="0.25412">
        <ele>1259.8</ele>
        <time>2022-08-07T07:19:45Z</time>
      </trkpt>
      <trkpt lat="42.93357" lon="0.25419">
        <ele>1260.4</ele>
        <time>2022-08-07T07:19:52Z</time>
      </trkpt>
      <trkpt lat="42.93343" lon="0.25423">
        <ele>1260.8</ele>
        <time>2022-08-07T07:19:58Z</time>
      </trkpt>
      <trkpt lat="42.93341" lon="0.25423">
        <ele>1260.8</ele>
        <time>2022-08-07T07:19:59Z</time>
      </trkpt>
      <trkpt lat="42.93327" lon="0.25415">
        <ele>1261.4</ele>
        <time>2022-08-07T07:20:05Z</time>
      </trkpt>
      <trkpt lat="42.93318" lon="0.25399">
        <ele>1261.8</ele>
        <time>2022-08-07T07:20:11Z</time>
      </trkpt>
      <trkpt lat="42.93315" lon="0.25392">
        <ele>1261.8</ele>
        <time>2022-08-07T07:20:13Z</time>
      </trkpt>
      <trkpt lat="42.933" lon="0.25372">
        <ele>1261.8</ele>
        <time>2022-08-07T07:20:21Z</time>
      </trkpt>
      <trkpt lat="42.93284" lon="0.25363">
        <ele>1262.2</ele>
        <time>2022-08-07T07:20:29Z</time>
      </trkpt>
      <trkpt lat="42.93272" lon="0.25357">
        <ele>1263</ele>
        <time>2022-08-07T07:20:36Z</time>
      </trkpt>
      <trkpt lat="42.93271" lon="0.25355">
        <ele>1263.2</ele>
        <time>2022-08-07T07:20:37Z</time>
      </trkpt>
      <trkpt lat="42.93261" lon="0.25347">
        <ele>1264</ele>
        <time>2022-08-07T07:20:43Z</time>
      </trkpt>
      <trkpt lat="42.93245" lon="0.2534">
        <ele>1265.2</ele>
        <time>2022-08-07T07:20:51Z</time>
      </trkpt>
      <trkpt lat="42.93242" lon="0.25338">
        <ele>1265.2</ele>
        <time>2022-08-07T07:20:53Z</time>
      </trkpt>
      <trkpt lat="42.93226" lon="0.25331">
        <ele>1266</ele>
        <time>2022-08-07T07:21:01Z</time>
      </trkpt>
      <trkpt lat="42.93226" lon="0.25331">
        <ele>1266.2</ele>
        <time>2022-08-07T07:21:02Z</time>
      </trkpt>
      <trkpt lat="42.9321" lon="0.2533">
        <ele>1267.2</ele>
        <time>2022-08-07T07:21:10Z</time>
      </trkpt>
      <trkpt lat="42.93208" lon="0.25329">
        <ele>1267.2</ele>
        <time>2022-08-07T07:21:11Z</time>
      </trkpt>
      <trkpt lat="42.93198" lon="0.25326">
        <ele>1268</ele>
        <time>2022-08-07T07:21:18Z</time>
      </trkpt>
      <trkpt lat="42.93196" lon="0.25325">
        <ele>1268.4</ele>
        <time>2022-08-07T07:21:19Z</time>
      </trkpt>
      <trkpt lat="42.93182" lon="0.25316">
        <ele>1269.2</ele>
        <time>2022-08-07T07:21:28Z</time>
      </trkpt>
      <trkpt lat="42.93168" lon="0.25304">
        <ele>1270.2</ele>
        <time>2022-08-07T07:21:37Z</time>
      </trkpt>
      <trkpt lat="42.93167" lon="0.25302">
        <ele>1270.4</ele>
        <time>2022-08-07T07:21:38Z</time>
      </trkpt>
      <trkpt lat="42.9316" lon="0.25295">
        <ele>1271</ele>
        <time>2022-08-07T07:21:43Z</time>
      </trkpt>
      <trkpt lat="42.93157" lon="0.25292">
        <ele>1271.4</ele>
        <time>2022-08-07T07:21:46Z</time>
      </trkpt>
      <trkpt lat="42.93145" lon="0.25279">
        <ele>1272.2</ele>
        <time>2022-08-07T07:21:54Z</time>
      </trkpt>
      <trkpt lat="42.93142" lon="0.25278">
        <ele>1272.6</ele>
        <time>2022-08-07T07:21:56Z</time>
      </trkpt>
      <trkpt lat="42.93131" lon="0.25268">
        <ele>1273.4</ele>
        <time>2022-08-07T07:22:05Z</time>
      </trkpt>
      <trkpt lat="42.93129" lon="0.25267">
        <ele>1273.6</ele>
        <time>2022-08-07T07:22:06Z</time>
      </trkpt>
      <trkpt lat="42.93122" lon="0.25262">
        <ele>1274.6</ele>
        <time>2022-08-07T07:22:12Z</time>
      </trkpt>
      <trkpt lat="42.93121" lon="0.25261">
        <ele>1275</ele>
        <time>2022-08-07T07:22:13Z</time>
      </trkpt>
      <trkpt lat="42.93114" lon="0.25256">
        <ele>1276.4</ele>
        <time>2022-08-07T07:22:19Z</time>
      </trkpt>
      <trkpt lat="42.93111" lon="0.25255">
        <ele>1276.8</ele>
        <time>2022-08-07T07:22:21Z</time>
      </trkpt>
      <trkpt lat="42.93108" lon="0.25252">
        <ele>1277.2</ele>
        <time>2022-08-07T07:22:24Z</time>
      </trkpt>
      <trkpt lat="42.93106" lon="0.2525">
        <ele>1277.4</ele>
        <time>2022-08-07T07:22:25Z</time>
      </trkpt>
      <trkpt lat="42.93096" lon="0.25236">
        <ele>1278.4</ele>
        <time>2022-08-07T07:22:34Z</time>
      </trkpt>
      <trkpt lat="42.93086" lon="0.2522">
        <ele>1279</ele>
        <time>2022-08-07T07:22:43Z</time>
      </trkpt>
      <trkpt lat="42.93082" lon="0.25214">
        <ele>1279.4</ele>
        <time>2022-08-07T07:22:47Z</time>
      </trkpt>
      <trkpt lat="42.93078" lon="0.25209">
        <ele>1280.4</ele>
        <time>2022-08-07T07:22:51Z</time>
      </trkpt>
      <trkpt lat="42.93077" lon="0.25207">
        <ele>1280.4</ele>
        <time>2022-08-07T07:22:52Z</time>
      </trkpt>
      <trkpt lat="42.93074" lon="0.25202">
        <ele>1281.4</ele>
        <time>2022-08-07T07:22:57Z</time>
      </trkpt>
      <trkpt lat="42.93074" lon="0.25198">
        <ele>1282</ele>
        <time>2022-08-07T07:23:00Z</time>
      </trkpt>
      <trkpt lat="42.93074" lon="0.25197">
        <ele>1282.2</ele>
        <time>2022-08-07T07:23:01Z</time>
      </trkpt>
      <trkpt lat="42.93075" lon="0.25195">
        <ele>1282.6</ele>
        <time>2022-08-07T07:23:02Z</time>
      </trkpt>
      <trkpt lat="42.93076" lon="0.25182">
        <ele>1283.6</ele>
        <time>2022-08-07T07:23:08Z</time>
      </trkpt>
      <trkpt lat="42.93076" lon="0.25177">
        <ele>1283.8</ele>
        <time>2022-08-07T07:23:10Z</time>
      </trkpt>
      <trkpt lat="42.93074" lon="0.25164">
        <ele>1284.8</ele>
        <time>2022-08-07T07:23:16Z</time>
      </trkpt>
      <trkpt lat="42.93074" lon="0.25162">
        <ele>1284.8</ele>
        <time>2022-08-07T07:23:17Z</time>
      </trkpt>
      <trkpt lat="42.9307" lon="0.25144">
        <ele>1285.2</ele>
        <time>2022-08-07T07:23:24Z</time>
      </trkpt>
      <trkpt lat="42.93068" lon="0.25139">
        <ele>1285.4</ele>
        <time>2022-08-07T07:23:26Z</time>
      </trkpt>
      <trkpt lat="42.93061" lon="0.25125">
        <ele>1285.6</ele>
        <time>2022-08-07T07:23:33Z</time>
      </trkpt>
      <trkpt lat="42.93055" lon="0.25106">
        <ele>1285.8</ele>
        <time>2022-08-07T07:23:41Z</time>
      </trkpt>
      <trkpt lat="42.93054" lon="0.25104">
        <ele>1285.8</ele>
        <time>2022-08-07T07:23:42Z</time>
      </trkpt>
      <trkpt lat="42.9305" lon="0.25096">
        <ele>1286</ele>
        <time>2022-08-07T07:23:47Z</time>
      </trkpt>
      <trkpt lat="42.93043" lon="0.25076">
        <ele>1285.8</ele>
        <time>2022-08-07T07:23:55Z</time>
      </trkpt>
      <trkpt lat="42.93044" lon="0.25063">
        <ele>1285.6</ele>
        <time>2022-08-07T07:24:02Z</time>
      </trkpt>
      <trkpt lat="42.93055" lon="0.25046">
        <ele>1285.4</ele>
        <time>2022-08-07T07:24:09Z</time>
      </trkpt>
      <trkpt lat="42.93062" lon="0.2504">
        <ele>1284.4</ele>
        <time>2022-08-07T07:24:11Z</time>
      </trkpt>
      <trkpt lat="42.93065" lon="0.25033">
        <ele>1283</ele>
        <time>2022-08-07T07:24:13Z</time>
      </trkpt>
      <trkpt lat="42.93065" lon="0.25019">
        <ele>1282</ele>
        <time>2022-08-07T07:24:18Z</time>
      </trkpt>
      <trkpt lat="42.93067" lon="0.25007">
        <ele>1282.4</ele>
        <time>2022-08-07T07:24:24Z</time>
      </trkpt>
      <trkpt lat="42.93073" lon="0.24999">
        <ele>1284</ele>
        <time>2022-08-07T07:24:30Z</time>
      </trkpt>
      <trkpt lat="42.93076" lon="0.24997">
        <ele>1284.4</ele>
        <time>2022-08-07T07:24:32Z</time>
      </trkpt>
      <trkpt lat="42.93079" lon="0.24994">
        <ele>1285.2</ele>
        <time>2022-08-07T07:24:35Z</time>
      </trkpt>
      <trkpt lat="42.93086" lon="0.24988">
        <ele>1286.2</ele>
        <time>2022-08-07T07:24:41Z</time>
      </trkpt>
      <trkpt lat="42.93086" lon="0.24988">
        <ele>1286.2</ele>
        <time>2022-08-07T07:24:42Z</time>
      </trkpt>
      <trkpt lat="42.93096" lon="0.24989">
        <ele>1287.2</ele>
        <time>2022-08-07T07:24:48Z</time>
      </trkpt>
      <trkpt lat="42.93097" lon="0.24989">
        <ele>1287.2</ele>
        <time>2022-08-07T07:24:49Z</time>
      </trkpt>
      <trkpt lat="42.93097" lon="0.24987">
        <ele>1287.4</ele>
        <time>2022-08-07T07:24:50Z</time>
      </trkpt>
      <trkpt lat="42.93098" lon="0.24985">
        <ele>1287.4</ele>
        <time>2022-08-07T07:24:52Z</time>
      </trkpt>
      <trkpt lat="42.93103" lon="0.24974">
        <ele>1287.6</ele>
        <time>2022-08-07T07:25:00Z</time>
      </trkpt>
      <trkpt lat="42.93104" lon="0.24973">
        <ele>1287.8</ele>
        <time>2022-08-07T07:25:01Z</time>
      </trkpt>
      <trkpt lat="42.93104" lon="0.24972">
        <ele>1287.8</ele>
        <time>2022-08-07T07:25:02Z</time>
      </trkpt>
      <trkpt lat="42.93104" lon="0.24972">
        <ele>1288</ele>
        <time>2022-08-07T07:25:04Z</time>
      </trkpt>
      <trkpt lat="42.93105" lon="0.24971">
        <ele>1288.2</ele>
        <time>2022-08-07T07:25:10Z</time>
      </trkpt>
      <trkpt lat="42.93105" lon="0.24971">
        <ele>1288.4</ele>
        <time>2022-08-07T07:25:11Z</time>
      </trkpt>
      <trkpt lat="42.93105" lon="0.24972">
        <ele>1289</ele>
        <time>2022-08-07T07:25:19Z</time>
      </trkpt>
      <trkpt lat="42.93105" lon="0.24972">
        <ele>1289.4</ele>
        <time>2022-08-07T07:25:24Z</time>
      </trkpt>
      <trkpt lat="42.93111" lon="0.24973">
        <ele>1289.8</ele>
        <time>2022-08-07T07:25:34Z</time>
      </trkpt>
      <trkpt lat="42.93116" lon="0.24973">
        <ele>1289.8</ele>
        <time>2022-08-07T07:25:40Z</time>
      </trkpt>
      <trkpt lat="42.93121" lon="0.24976">
        <ele>1290.4</ele>
        <time>2022-08-07T07:25:46Z</time>
      </trkpt>
      <trkpt lat="42.93122" lon="0.24976">
        <ele>1290.4</ele>
        <time>2022-08-07T07:25:47Z</time>
      </trkpt>
      <trkpt lat="42.9313" lon="0.24979">
        <ele>1290.6</ele>
        <time>2022-08-07T07:25:52Z</time>
      </trkpt>
      <trkpt lat="42.93136" lon="0.24978">
        <ele>1290.8</ele>
        <time>2022-08-07T07:25:58Z</time>
      </trkpt>
      <trkpt lat="42.9314" lon="0.24977">
        <ele>1291.4</ele>
        <time>2022-08-07T07:26:01Z</time>
      </trkpt>
      <trkpt lat="42.93145" lon="0.24976">
        <ele>1292.4</ele>
        <time>2022-08-07T07:26:06Z</time>
      </trkpt>
      <trkpt lat="42.93148" lon="0.24976">
        <ele>1292.8</ele>
        <time>2022-08-07T07:26:08Z</time>
      </trkpt>
      <trkpt lat="42.93153" lon="0.24973">
        <ele>1293.6</ele>
        <time>2022-08-07T07:26:13Z</time>
      </trkpt>
      <trkpt lat="42.93158" lon="0.24971">
        <ele>1294.2</ele>
        <time>2022-08-07T07:26:17Z</time>
      </trkpt>
      <trkpt lat="42.93163" lon="0.24969">
        <ele>1294.8</ele>
        <time>2022-08-07T07:26:21Z</time>
      </trkpt>
      <trkpt lat="42.93167" lon="0.24967">
        <ele>1295.4</ele>
        <time>2022-08-07T07:26:25Z</time>
      </trkpt>
      <trkpt lat="42.93168" lon="0.24966">
        <ele>1295.6</ele>
        <time>2022-08-07T07:26:26Z</time>
      </trkpt>
      <trkpt lat="42.9317" lon="0.24965">
        <ele>1296</ele>
        <time>2022-08-07T07:26:28Z</time>
      </trkpt>
      <trkpt lat="42.93177" lon="0.24963">
        <ele>1296.6</ele>
        <time>2022-08-07T07:26:33Z</time>
      </trkpt>
      <trkpt lat="42.93178" lon="0.24963">
        <ele>1297</ele>
        <time>2022-08-07T07:26:34Z</time>
      </trkpt>
      <trkpt lat="42.93185" lon="0.24959">
        <ele>1298.2</ele>
        <time>2022-08-07T07:26:40Z</time>
      </trkpt>
      <trkpt lat="42.93186" lon="0.24956">
        <ele>1299</ele>
        <time>2022-08-07T07:26:43Z</time>
      </trkpt>
      <trkpt lat="42.93187" lon="0.24953">
        <ele>1299.4</ele>
        <time>2022-08-07T07:26:45Z</time>
      </trkpt>
      <trkpt lat="42.93186" lon="0.24946">
        <ele>1300.2</ele>
        <time>2022-08-07T07:26:49Z</time>
      </trkpt>
      <trkpt lat="42.93185" lon="0.24943">
        <ele>1300.6</ele>
        <time>2022-08-07T07:26:51Z</time>
      </trkpt>
      <trkpt lat="42.93183" lon="0.24938">
        <ele>1301.2</ele>
        <time>2022-08-07T07:26:55Z</time>
      </trkpt>
      <trkpt lat="42.93182" lon="0.24933">
        <ele>1301.8</ele>
        <time>2022-08-07T07:26:58Z</time>
      </trkpt>
      <trkpt lat="42.93177" lon="0.2492">
        <ele>1303</ele>
        <time>2022-08-07T07:27:04Z</time>
      </trkpt>
      <trkpt lat="42.93175" lon="0.2491">
        <ele>1304.2</ele>
        <time>2022-08-07T07:27:09Z</time>
      </trkpt>
      <trkpt lat="42.93173" lon="0.24902">
        <ele>1305.2</ele>
        <time>2022-08-07T07:27:13Z</time>
      </trkpt>
      <trkpt lat="42.93172" lon="0.249">
        <ele>1305.4</ele>
        <time>2022-08-07T07:27:14Z</time>
      </trkpt>
      <trkpt lat="42.93171" lon="0.24893">
        <ele>1306.4</ele>
        <time>2022-08-07T07:27:18Z</time>
      </trkpt>
      <trkpt lat="42.9317" lon="0.2489">
        <ele>1307.2</ele>
        <time>2022-08-07T07:27:20Z</time>
      </trkpt>
      <trkpt lat="42.93169" lon="0.24888">
        <ele>1307.6</ele>
        <time>2022-08-07T07:27:21Z</time>
      </trkpt>
      <trkpt lat="42.93166" lon="0.24881">
        <ele>1308.6</ele>
        <time>2022-08-07T07:27:25Z</time>
      </trkpt>
      <trkpt lat="42.93164" lon="0.24876">
        <ele>1309.2</ele>
        <time>2022-08-07T07:27:27Z</time>
      </trkpt>
      <trkpt lat="42.93163" lon="0.24873">
        <ele>1309.6</ele>
        <time>2022-08-07T07:27:29Z</time>
      </trkpt>
      <trkpt lat="42.9316" lon="0.24865">
        <ele>1310.4</ele>
        <time>2022-08-07T07:27:33Z</time>
      </trkpt>
      <trkpt lat="42.9316" lon="0.24864">
        <ele>1310.8</ele>
        <time>2022-08-07T07:27:34Z</time>
      </trkpt>
      <trkpt lat="42.93157" lon="0.24855">
        <ele>1311.8</ele>
        <time>2022-08-07T07:27:39Z</time>
      </trkpt>
      <trkpt lat="42.93156" lon="0.24854">
        <ele>1312</ele>
        <time>2022-08-07T07:27:40Z</time>
      </trkpt>
      <trkpt lat="42.93153" lon="0.24847">
        <ele>1312.8</ele>
        <time>2022-08-07T07:27:44Z</time>
      </trkpt>
      <trkpt lat="42.93152" lon="0.24843">
        <ele>1313.2</ele>
        <time>2022-08-07T07:27:46Z</time>
      </trkpt>
      <trkpt lat="42.9315" lon="0.24837">
        <ele>1314</ele>
        <time>2022-08-07T07:27:49Z</time>
      </trkpt>
      <trkpt lat="42.93149" lon="0.24829">
        <ele>1314.8</ele>
        <time>2022-08-07T07:27:53Z</time>
      </trkpt>
      <trkpt lat="42.93149" lon="0.24827">
        <ele>1315</ele>
        <time>2022-08-07T07:27:54Z</time>
      </trkpt>
      <trkpt lat="42.93146" lon="0.24819">
        <ele>1315.8</ele>
        <time>2022-08-07T07:27:58Z</time>
      </trkpt>
      <trkpt lat="42.93143" lon="0.24812">
        <ele>1316.4</ele>
        <time>2022-08-07T07:28:02Z</time>
      </trkpt>
      <trkpt lat="42.93142" lon="0.2481">
        <ele>1316.6</ele>
        <time>2022-08-07T07:28:03Z</time>
      </trkpt>
      <trkpt lat="42.93139" lon="0.24807">
        <ele>1316.8</ele>
        <time>2022-08-07T07:28:05Z</time>
      </trkpt>
      <trkpt lat="42.93132" lon="0.24797">
        <ele>1317.4</ele>
        <time>2022-08-07T07:28:11Z</time>
      </trkpt>
      <trkpt lat="42.93129" lon="0.24791">
        <ele>1317.8</ele>
        <time>2022-08-07T07:28:15Z</time>
      </trkpt>
      <trkpt lat="42.93126" lon="0.24785">
        <ele>1318.6</ele>
        <time>2022-08-07T07:28:19Z</time>
      </trkpt>
      <trkpt lat="42.93126" lon="0.24785">
        <ele>1319</ele>
        <time>2022-08-07T07:28:20Z</time>
      </trkpt>
      <trkpt lat="42.93123" lon="0.24774">
        <ele>1320</ele>
        <time>2022-08-07T07:28:26Z</time>
      </trkpt>
      <trkpt lat="42.93122" lon="0.2477">
        <ele>1320.4</ele>
        <time>2022-08-07T07:28:28Z</time>
      </trkpt>
      <trkpt lat="42.93122" lon="0.24767">
        <ele>1321.2</ele>
        <time>2022-08-07T07:28:31Z</time>
      </trkpt>
      <trkpt lat="42.93121" lon="0.24758">
        <ele>1322.2</ele>
        <time>2022-08-07T07:28:35Z</time>
      </trkpt>
      <trkpt lat="42.9312" lon="0.24756">
        <ele>1322.6</ele>
        <time>2022-08-07T07:28:36Z</time>
      </trkpt>
      <trkpt lat="42.93119" lon="0.24753">
        <ele>1323</ele>
        <time>2022-08-07T07:28:38Z</time>
      </trkpt>
      <trkpt lat="42.93119" lon="0.2475">
        <ele>1323.6</ele>
        <time>2022-08-07T07:28:40Z</time>
      </trkpt>
      <trkpt lat="42.93118" lon="0.24745">
        <ele>1324</ele>
        <time>2022-08-07T07:28:43Z</time>
      </trkpt>
      <trkpt lat="42.93116" lon="0.24738">
        <ele>1324.6</ele>
        <time>2022-08-07T07:28:47Z</time>
      </trkpt>
      <trkpt lat="42.93115" lon="0.24733">
        <ele>1325.2</ele>
        <time>2022-08-07T07:28:50Z</time>
      </trkpt>
      <trkpt lat="42.93114" lon="0.24729">
        <ele>1325.6</ele>
        <time>2022-08-07T07:28:52Z</time>
      </trkpt>
      <trkpt lat="42.93112" lon="0.24722">
        <ele>1326.8</ele>
        <time>2022-08-07T07:28:57Z</time>
      </trkpt>
      <trkpt lat="42.93107" lon="0.24714">
        <ele>1327.8</ele>
        <time>2022-08-07T07:29:03Z</time>
      </trkpt>
      <trkpt lat="42.93106" lon="0.24712">
        <ele>1328</ele>
        <time>2022-08-07T07:29:05Z</time>
      </trkpt>
      <trkpt lat="42.93103" lon="0.24701">
        <ele>1328.8</ele>
        <time>2022-08-07T07:29:12Z</time>
      </trkpt>
      <trkpt lat="42.931" lon="0.24691">
        <ele>1330</ele>
        <time>2022-08-07T07:29:18Z</time>
      </trkpt>
      <trkpt lat="42.931" lon="0.24686">
        <ele>1330.2</ele>
        <time>2022-08-07T07:29:20Z</time>
      </trkpt>
      <trkpt lat="42.93099" lon="0.24677">
        <ele>1331.2</ele>
        <time>2022-08-07T07:29:25Z</time>
      </trkpt>
      <trkpt lat="42.93098" lon="0.24673">
        <ele>1331.4</ele>
        <time>2022-08-07T07:29:27Z</time>
      </trkpt>
      <trkpt lat="42.93097" lon="0.24671">
        <ele>1332</ele>
        <time>2022-08-07T07:29:29Z</time>
      </trkpt>
      <trkpt lat="42.93095" lon="0.24668">
        <ele>1332.2</ele>
        <time>2022-08-07T07:29:31Z</time>
      </trkpt>
      <trkpt lat="42.93093" lon="0.2466">
        <ele>1333.2</ele>
        <time>2022-08-07T07:29:36Z</time>
      </trkpt>
      <trkpt lat="42.93093" lon="0.2466">
        <ele>1333.4</ele>
        <time>2022-08-07T07:29:37Z</time>
      </trkpt>
      <trkpt lat="42.93093" lon="0.24651">
        <ele>1334.2</ele>
        <time>2022-08-07T07:29:41Z</time>
      </trkpt>
      <trkpt lat="42.93092" lon="0.24648">
        <ele>1334.4</ele>
        <time>2022-08-07T07:29:43Z</time>
      </trkpt>
      <trkpt lat="42.93091" lon="0.24644">
        <ele>1335.4</ele>
        <time>2022-08-07T07:29:47Z</time>
      </trkpt>
      <trkpt lat="42.93091" lon="0.24641">
        <ele>1335.8</ele>
        <time>2022-08-07T07:29:48Z</time>
      </trkpt>
      <trkpt lat="42.93093" lon="0.2464">
        <ele>1336.2</ele>
        <time>2022-08-07T07:29:50Z</time>
      </trkpt>
      <trkpt lat="42.93096" lon="0.24641">
        <ele>1336.4</ele>
        <time>2022-08-07T07:29:52Z</time>
      </trkpt>
      <trkpt lat="42.93103" lon="0.24647">
        <ele>1337.2</ele>
        <time>2022-08-07T07:29:58Z</time>
      </trkpt>
      <trkpt lat="42.93105" lon="0.24648">
        <ele>1337.4</ele>
        <time>2022-08-07T07:29:59Z</time>
      </trkpt>
      <trkpt lat="42.93111" lon="0.24657">
        <ele>1337.8</ele>
        <time>2022-08-07T07:30:05Z</time>
      </trkpt>
      <trkpt lat="42.93121" lon="0.24669">
        <ele>1337.8</ele>
        <time>2022-08-07T07:30:13Z</time>
      </trkpt>
      <trkpt lat="42.93131" lon="0.24682">
        <ele>1337.8</ele>
        <time>2022-08-07T07:30:19Z</time>
      </trkpt>
      <trkpt lat="42.93148" lon="0.24701">
        <ele>1337.4</ele>
        <time>2022-08-07T07:30:26Z</time>
      </trkpt>
      <trkpt lat="42.93157" lon="0.24709">
        <ele>1337</ele>
        <time>2022-08-07T07:30:31Z</time>
      </trkpt>
      <trkpt lat="42.93168" lon="0.24716">
        <ele>1337</ele>
        <time>2022-08-07T07:30:38Z</time>
      </trkpt>
      <trkpt lat="42.93182" lon="0.24732">
        <ele>1337.2</ele>
        <time>2022-08-07T07:30:47Z</time>
      </trkpt>
      <trkpt lat="42.93195" lon="0.24751">
        <ele>1337.2</ele>
        <time>2022-08-07T07:30:52Z</time>
      </trkpt>
      <trkpt lat="42.93198" lon="0.24756">
        <ele>1337.2</ele>
        <time>2022-08-07T07:30:53Z</time>
      </trkpt>
      <trkpt lat="42.93215" lon="0.24774">
        <ele>1336.8</ele>
        <time>2022-08-07T07:30:58Z</time>
      </trkpt>
      <trkpt lat="42.93224" lon="0.24784">
        <ele>1336.2</ele>
        <time>2022-08-07T07:31:02Z</time>
      </trkpt>
      <trkpt lat="42.93225" lon="0.24786">
        <ele>1336</ele>
        <time>2022-08-07T07:31:03Z</time>
      </trkpt>
      <trkpt lat="42.93228" lon="0.24789">
        <ele>1335.8</ele>
        <time>2022-08-07T07:31:05Z</time>
      </trkpt>
      <trkpt lat="42.93234" lon="0.24795">
        <ele>1335.8</ele>
        <time>2022-08-07T07:31:09Z</time>
      </trkpt>
      <trkpt lat="42.93245" lon="0.24805">
        <ele>1336</ele>
        <time>2022-08-07T07:31:16Z</time>
      </trkpt>
      <trkpt lat="42.93248" lon="0.24809">
        <ele>1336.2</ele>
        <time>2022-08-07T07:31:22Z</time>
      </trkpt>
      <trkpt lat="42.93245" lon="0.24806">
        <ele>1336.2</ele>
        <time>2022-08-07T07:31:26Z</time>
      </trkpt>
      <trkpt lat="42.93244" lon="0.24805">
        <ele>1336.2</ele>
        <time>2022-08-07T07:31:27Z</time>
      </trkpt>
      <trkpt lat="42.93239" lon="0.24799">
        <ele>1336.2</ele>
        <time>2022-08-07T07:31:32Z</time>
      </trkpt>
      <trkpt lat="42.93239" lon="0.24799">
        <ele>1336.2</ele>
        <time>2022-08-07T07:31:34Z</time>
      </trkpt>
      <trkpt lat="42.93238" lon="0.24799">
        <ele>1336</ele>
        <time>2022-08-07T07:32:24Z</time>
      </trkpt>
      <trkpt lat="42.93238" lon="0.24799">
        <ele>1336.2</ele>
        <time>2022-08-07T07:32:56Z</time>
      </trkpt>
      <trkpt lat="42.93241" lon="0.24802">
        <ele>1336.2</ele>
        <time>2022-08-07T07:32:58Z</time>
      </trkpt>
      <trkpt lat="42.93243" lon="0.24804">
        <ele>1336.2</ele>
        <time>2022-08-07T07:32:59Z</time>
      </trkpt>
      <trkpt lat="42.93255" lon="0.24816">
        <ele>1336.6</ele>
        <time>2022-08-07T07:33:07Z</time>
      </trkpt>
      <trkpt lat="42.93263" lon="0.24822">
        <ele>1336.8</ele>
        <time>2022-08-07T07:33:12Z</time>
      </trkpt>
      <trkpt lat="42.93274" lon="0.24833">
        <ele>1337.4</ele>
        <time>2022-08-07T07:33:18Z</time>
      </trkpt>
      <trkpt lat="42.93282" lon="0.24841">
        <ele>1337.8</ele>
        <time>2022-08-07T07:33:23Z</time>
      </trkpt>
      <trkpt lat="42.93289" lon="0.24849">
        <ele>1338</ele>
        <time>2022-08-07T07:33:27Z</time>
      </trkpt>
      <trkpt lat="42.93291" lon="0.24851">
        <ele>1338</ele>
        <time>2022-08-07T07:33:28Z</time>
      </trkpt>
      <trkpt lat="42.93302" lon="0.24866">
        <ele>1338</ele>
        <time>2022-08-07T07:33:33Z</time>
      </trkpt>
      <trkpt lat="42.93314" lon="0.24879">
        <ele>1337.8</ele>
        <time>2022-08-07T07:33:39Z</time>
      </trkpt>
      <trkpt lat="42.93327" lon="0.24889">
        <ele>1337.4</ele>
        <time>2022-08-07T07:33:46Z</time>
      </trkpt>
      <trkpt lat="42.93342" lon="0.24903">
        <ele>1338</ele>
        <time>2022-08-07T07:33:54Z</time>
      </trkpt>
      <trkpt lat="42.9336" lon="0.24918">
        <ele>1338.2</ele>
        <time>2022-08-07T07:34:02Z</time>
      </trkpt>
      <trkpt lat="42.93375" lon="0.24924">
        <ele>1338.4</ele>
        <time>2022-08-07T07:34:08Z</time>
      </trkpt>
      <trkpt lat="42.93393" lon="0.24931">
        <ele>1338.8</ele>
        <time>2022-08-07T07:34:16Z</time>
      </trkpt>
      <trkpt lat="42.93398" lon="0.24933">
        <ele>1338.8</ele>
        <time>2022-08-07T07:34:18Z</time>
      </trkpt>
      <trkpt lat="42.93407" lon="0.24935">
        <ele>1339.4</ele>
        <time>2022-08-07T07:34:22Z</time>
      </trkpt>
      <trkpt lat="42.93421" lon="0.24939">
        <ele>1339.8</ele>
        <time>2022-08-07T07:34:29Z</time>
      </trkpt>
      <trkpt lat="42.93423" lon="0.2494">
        <ele>1339.8</ele>
        <time>2022-08-07T07:34:30Z</time>
      </trkpt>
      <trkpt lat="42.93432" lon="0.24941">
        <ele>1340.2</ele>
        <time>2022-08-07T07:34:35Z</time>
      </trkpt>
      <trkpt lat="42.9344" lon="0.24944">
        <ele>1341</ele>
        <time>2022-08-07T07:34:39Z</time>
      </trkpt>
      <trkpt lat="42.93443" lon="0.24946">
        <ele>1341.4</ele>
        <time>2022-08-07T07:34:41Z</time>
      </trkpt>
      <trkpt lat="42.93448" lon="0.24947">
        <ele>1342</ele>
        <time>2022-08-07T07:34:44Z</time>
      </trkpt>
      <trkpt lat="42.93458" lon="0.24948">
        <ele>1342.8</ele>
        <time>2022-08-07T07:34:49Z</time>
      </trkpt>
      <trkpt lat="42.93468" lon="0.24949">
        <ele>1343</ele>
        <time>2022-08-07T07:34:54Z</time>
      </trkpt>
      <trkpt lat="42.93474" lon="0.2495">
        <ele>1343.2</ele>
        <time>2022-08-07T07:34:57Z</time>
      </trkpt>
      <trkpt lat="42.93484" lon="0.24951">
        <ele>1344</ele>
        <time>2022-08-07T07:35:03Z</time>
      </trkpt>
      <trkpt lat="42.93485" lon="0.24951">
        <ele>1344.2</ele>
        <time>2022-08-07T07:35:04Z</time>
      </trkpt>
      <trkpt lat="42.93493" lon="0.24952">
        <ele>1344.8</ele>
        <time>2022-08-07T07:35:09Z</time>
      </trkpt>
      <trkpt lat="42.93502" lon="0.24951">
        <ele>1345.4</ele>
        <time>2022-08-07T07:35:14Z</time>
      </trkpt>
      <trkpt lat="42.93514" lon="0.24949">
        <ele>1345.8</ele>
        <time>2022-08-07T07:35:20Z</time>
      </trkpt>
      <trkpt lat="42.93521" lon="0.24946">
        <ele>1345.8</ele>
        <time>2022-08-07T07:35:24Z</time>
      </trkpt>
      <trkpt lat="42.93526" lon="0.24947">
        <ele>1345.8</ele>
        <time>2022-08-07T07:35:26Z</time>
      </trkpt>
      <trkpt lat="42.93544" lon="0.24951">
        <ele>1345.8</ele>
        <time>2022-08-07T07:35:34Z</time>
      </trkpt>
      <trkpt lat="42.93561" lon="0.24954">
        <ele>1345.8</ele>
        <time>2022-08-07T07:35:41Z</time>
      </trkpt>
      <trkpt lat="42.93577" lon="0.24957">
        <ele>1345.8</ele>
        <time>2022-08-07T07:35:48Z</time>
      </trkpt>
      <trkpt lat="42.93593" lon="0.24959">
        <ele>1345.8</ele>
        <time>2022-08-07T07:35:53Z</time>
      </trkpt>
      <trkpt lat="42.93619" lon="0.24965">
        <ele>1345.4</ele>
        <time>2022-08-07T07:36:01Z</time>
      </trkpt>
      <trkpt lat="42.93641" lon="0.24969">
        <ele>1344.4</ele>
        <time>2022-08-07T07:36:08Z</time>
      </trkpt>
      <trkpt lat="42.93644" lon="0.2497">
        <ele>1344</ele>
        <time>2022-08-07T07:36:09Z</time>
      </trkpt>
      <trkpt lat="42.93668" lon="0.24974">
        <ele>1343.2</ele>
        <time>2022-08-07T07:36:15Z</time>
      </trkpt>
      <trkpt lat="42.93686" lon="0.24978">
        <ele>1342.8</ele>
        <time>2022-08-07T07:36:20Z</time>
      </trkpt>
      <trkpt lat="42.93692" lon="0.2498">
        <ele>1342.4</ele>
        <time>2022-08-07T07:36:22Z</time>
      </trkpt>
      <trkpt lat="42.937" lon="0.24982">
        <ele>1342.2</ele>
        <time>2022-08-07T07:36:25Z</time>
      </trkpt>
      <trkpt lat="42.93705" lon="0.24985">
        <ele>1342.2</ele>
        <time>2022-08-07T07:36:27Z</time>
      </trkpt>
      <trkpt lat="42.93719" lon="0.24989">
        <ele>1342</ele>
        <time>2022-08-07T07:36:34Z</time>
      </trkpt>
      <trkpt lat="42.93726" lon="0.2499">
        <ele>1341.8</ele>
        <time>2022-08-07T07:36:37Z</time>
      </trkpt>
      <trkpt lat="42.93738" lon="0.24993">
        <ele>1341.4</ele>
        <time>2022-08-07T07:36:42Z</time>
      </trkpt>
      <trkpt lat="42.93758" lon="0.25">
        <ele>1341</ele>
        <time>2022-08-07T07:36:49Z</time>
      </trkpt>
      <trkpt lat="42.93771" lon="0.25008">
        <ele>1340.8</ele>
        <time>2022-08-07T07:36:53Z</time>
      </trkpt>
      <trkpt lat="42.93781" lon="0.25016">
        <ele>1340.4</ele>
        <time>2022-08-07T07:36:57Z</time>
      </trkpt>
      <trkpt lat="42.93791" lon="0.25022">
        <ele>1339.4</ele>
        <time>2022-08-07T07:37:02Z</time>
      </trkpt>
      <trkpt lat="42.93793" lon="0.25022">
        <ele>1339</ele>
        <time>2022-08-07T07:37:06Z</time>
      </trkpt>
      <trkpt lat="42.93793" lon="0.25022">
        <ele>1338.4</ele>
        <time>2022-08-07T07:37:11Z</time>
      </trkpt>
      <trkpt lat="42.93793" lon="0.25022">
        <ele>1338.4</ele>
        <time>2022-08-07T07:37:20Z</time>
      </trkpt>
      <trkpt lat="42.93794" lon="0.25021">
        <ele>1337.8</ele>
        <time>2022-08-07T07:38:04Z</time>
      </trkpt>
      <trkpt lat="42.93793" lon="0.25012">
        <ele>1337.8</ele>
        <time>2022-08-07T07:38:07Z</time>
      </trkpt>
      <trkpt lat="42.93789" lon="0.24996">
        <ele>1337.6</ele>
        <time>2022-08-07T07:38:12Z</time>
      </trkpt>
      <trkpt lat="42.93781" lon="0.2498">
        <ele>1337.2</ele>
        <time>2022-08-07T07:38:17Z</time>
      </trkpt>
      <trkpt lat="42.93772" lon="0.2496">
        <ele>1337</ele>
        <time>2022-08-07T07:38:21Z</time>
      </trkpt>
      <trkpt lat="42.93766" lon="0.2495">
        <ele>1336.6</ele>
        <time>2022-08-07T07:38:23Z</time>
      </trkpt>
      <trkpt lat="42.93749" lon="0.24917">
        <ele>1335</ele>
        <time>2022-08-07T07:38:28Z</time>
      </trkpt>
      <trkpt lat="42.93745" lon="0.2491">
        <ele>1334.6</ele>
        <time>2022-08-07T07:38:29Z</time>
      </trkpt>
      <trkpt lat="42.93742" lon="0.24903">
        <ele>1333.8</ele>
        <time>2022-08-07T07:38:30Z</time>
      </trkpt>
      <trkpt lat="42.93731" lon="0.24874">
        <ele>1332.2</ele>
        <time>2022-08-07T07:38:34Z</time>
      </trkpt>
      <trkpt lat="42.93729" lon="0.24868">
        <ele>1331.8</ele>
        <time>2022-08-07T07:38:35Z</time>
      </trkpt>
      <trkpt lat="42.93728" lon="0.24863">
        <ele>1331.4</ele>
        <time>2022-08-07T07:38:36Z</time>
      </trkpt>
      <trkpt lat="42.93728" lon="0.24858">
        <ele>1330.8</ele>
        <time>2022-08-07T07:38:37Z</time>
      </trkpt>
      <trkpt lat="42.93727" lon="0.24852">
        <ele>1329.6</ele>
        <time>2022-08-07T07:38:39Z</time>
      </trkpt>
      <trkpt lat="42.93732" lon="0.24837">
        <ele>1328.6</ele>
        <time>2022-08-07T07:38:45Z</time>
      </trkpt>
      <trkpt lat="42.93734" lon="0.24835">
        <ele>1328.6</ele>
        <time>2022-08-07T07:38:46Z</time>
      </trkpt>
      <trkpt lat="42.93739" lon="0.24822">
        <ele>1328</ele>
        <time>2022-08-07T07:38:51Z</time>
      </trkpt>
      <trkpt lat="42.93739" lon="0.248">
        <ele>1327.6</ele>
        <time>2022-08-07T07:38:56Z</time>
      </trkpt>
      <trkpt lat="42.93738" lon="0.24798">
        <ele>1327.6</ele>
        <time>2022-08-07T07:38:57Z</time>
      </trkpt>
      <trkpt lat="42.93735" lon="0.24792">
        <ele>1326.2</ele>
        <time>2022-08-07T07:39:00Z</time>
      </trkpt>
      <trkpt lat="42.93734" lon="0.2479">
        <ele>1326</ele>
        <time>2022-08-07T07:39:01Z</time>
      </trkpt>
      <trkpt lat="42.93731" lon="0.24785">
        <ele>1325.2</ele>
        <time>2022-08-07T07:39:03Z</time>
      </trkpt>
      <trkpt lat="42.93727" lon="0.24773">
        <ele>1324.6</ele>
        <time>2022-08-07T07:39:06Z</time>
      </trkpt>
      <trkpt lat="42.93718" lon="0.2475">
        <ele>1324.2</ele>
        <time>2022-08-07T07:39:11Z</time>
      </trkpt>
      <trkpt lat="42.93717" lon="0.24743">
        <ele>1324</ele>
        <time>2022-08-07T07:39:12Z</time>
      </trkpt>
      <trkpt lat="42.93716" lon="0.24737">
        <ele>1324</ele>
        <time>2022-08-07T07:39:13Z</time>
      </trkpt>
      <trkpt lat="42.93719" lon="0.24723">
        <ele>1323.4</ele>
        <time>2022-08-07T07:39:15Z</time>
      </trkpt>
      <trkpt lat="42.93722" lon="0.24712">
        <ele>1323</ele>
        <time>2022-08-07T07:39:17Z</time>
      </trkpt>
      <trkpt lat="42.93723" lon="0.24698">
        <ele>1322.8</ele>
        <time>2022-08-07T07:39:19Z</time>
      </trkpt>
      <trkpt lat="42.93718" lon="0.24666">
        <ele>1322.2</ele>
        <time>2022-08-07T07:39:23Z</time>
      </trkpt>
      <trkpt lat="42.93716" lon="0.24649">
        <ele>1322</ele>
        <time>2022-08-07T07:39:25Z</time>
      </trkpt>
      <trkpt lat="42.93715" lon="0.24641">
        <ele>1321.2</ele>
        <time>2022-08-07T07:39:26Z</time>
      </trkpt>
      <trkpt lat="42.93713" lon="0.24633">
        <ele>1320.8</ele>
        <time>2022-08-07T07:39:27Z</time>
      </trkpt>
      <trkpt lat="42.9371" lon="0.24626">
        <ele>1320.4</ele>
        <time>2022-08-07T07:39:28Z</time>
      </trkpt>
      <trkpt lat="42.93701" lon="0.24613">
        <ele>1319.8</ele>
        <time>2022-08-07T07:39:30Z</time>
      </trkpt>
      <trkpt lat="42.93688" lon="0.24595">
        <ele>1319.4</ele>
        <time>2022-08-07T07:39:33Z</time>
      </trkpt>
      <trkpt lat="42.93685" lon="0.2459">
        <ele>1319</ele>
        <time>2022-08-07T07:39:34Z</time>
      </trkpt>
      <trkpt lat="42.93684" lon="0.24586">
        <ele>1318.2</ele>
        <time>2022-08-07T07:39:35Z</time>
      </trkpt>
      <trkpt lat="42.93685" lon="0.24581">
        <ele>1318</ele>
        <time>2022-08-07T07:39:36Z</time>
      </trkpt>
      <trkpt lat="42.93691" lon="0.24577">
        <ele>1317.2</ele>
        <time>2022-08-07T07:39:38Z</time>
      </trkpt>
      <trkpt lat="42.93695" lon="0.24577">
        <ele>1316.8</ele>
        <time>2022-08-07T07:39:39Z</time>
      </trkpt>
      <trkpt lat="42.93701" lon="0.24577">
        <ele>1315.8</ele>
        <time>2022-08-07T07:39:41Z</time>
      </trkpt>
      <trkpt lat="42.9371" lon="0.24574">
        <ele>1315.4</ele>
        <time>2022-08-07T07:39:44Z</time>
      </trkpt>
      <trkpt lat="42.93724" lon="0.24576">
        <ele>1315.4</ele>
        <time>2022-08-07T07:39:49Z</time>
      </trkpt>
      <trkpt lat="42.93747" lon="0.24589">
        <ele>1315.4</ele>
        <time>2022-08-07T07:39:55Z</time>
      </trkpt>
      <trkpt lat="42.93763" lon="0.24595">
        <ele>1315</ele>
        <time>2022-08-07T07:39:58Z</time>
      </trkpt>
      <trkpt lat="42.93776" lon="0.24597">
        <ele>1314.8</ele>
        <time>2022-08-07T07:40:00Z</time>
      </trkpt>
      <trkpt lat="42.93783" lon="0.24597">
        <ele>1314.6</ele>
        <time>2022-08-07T07:40:01Z</time>
      </trkpt>
      <trkpt lat="42.9379" lon="0.24599">
        <ele>1314.4</ele>
        <time>2022-08-07T07:40:02Z</time>
      </trkpt>
      <trkpt lat="42.93811" lon="0.24607">
        <ele>1313.8</ele>
        <time>2022-08-07T07:40:05Z</time>
      </trkpt>
      <trkpt lat="42.93821" lon="0.24609">
        <ele>1313.6</ele>
        <time>2022-08-07T07:40:06Z</time>
      </trkpt>
      <trkpt lat="42.93843" lon="0.2461">
        <ele>1312</ele>
        <time>2022-08-07T07:40:09Z</time>
      </trkpt>
      <trkpt lat="42.93852" lon="0.24609">
        <ele>1311.4</ele>
        <time>2022-08-07T07:40:10Z</time>
      </trkpt>
      <trkpt lat="42.9386" lon="0.24607">
        <ele>1310.8</ele>
        <time>2022-08-07T07:40:11Z</time>
      </trkpt>
      <trkpt lat="42.93873" lon="0.24601">
        <ele>1310</ele>
        <time>2022-08-07T07:40:13Z</time>
      </trkpt>
      <trkpt lat="42.9388" lon="0.24599">
        <ele>1309.8</ele>
        <time>2022-08-07T07:40:14Z</time>
      </trkpt>
      <trkpt lat="42.93887" lon="0.24598">
        <ele>1309.4</ele>
        <time>2022-08-07T07:40:15Z</time>
      </trkpt>
      <trkpt lat="42.93894" lon="0.24598">
        <ele>1309.2</ele>
        <time>2022-08-07T07:40:16Z</time>
      </trkpt>
      <trkpt lat="42.93917" lon="0.24602">
        <ele>1308.4</ele>
        <time>2022-08-07T07:40:19Z</time>
      </trkpt>
      <trkpt lat="42.93925" lon="0.24602">
        <ele>1308.2</ele>
        <time>2022-08-07T07:40:20Z</time>
      </trkpt>
      <trkpt lat="42.93933" lon="0.246">
        <ele>1308</ele>
        <time>2022-08-07T07:40:21Z</time>
      </trkpt>
      <trkpt lat="42.93941" lon="0.24598">
        <ele>1307.2</ele>
        <time>2022-08-07T07:40:22Z</time>
      </trkpt>
      <trkpt lat="42.93971" lon="0.24587">
        <ele>1305.8</ele>
        <time>2022-08-07T07:40:26Z</time>
      </trkpt>
      <trkpt lat="42.93994" lon="0.24575">
        <ele>1304.2</ele>
        <time>2022-08-07T07:40:30Z</time>
      </trkpt>
      <trkpt lat="42.94" lon="0.24573">
        <ele>1304</ele>
        <time>2022-08-07T07:40:31Z</time>
      </trkpt>
      <trkpt lat="42.94016" lon="0.24564">
        <ele>1302.8</ele>
        <time>2022-08-07T07:40:34Z</time>
      </trkpt>
      <trkpt lat="42.94032" lon="0.24554">
        <ele>1302.6</ele>
        <time>2022-08-07T07:40:37Z</time>
      </trkpt>
      <trkpt lat="42.94043" lon="0.24545">
        <ele>1302.4</ele>
        <time>2022-08-07T07:40:40Z</time>
      </trkpt>
      <trkpt lat="42.94049" lon="0.24536">
        <ele>1302.4</ele>
        <time>2022-08-07T07:40:42Z</time>
      </trkpt>
      <trkpt lat="42.94058" lon="0.24528">
        <ele>1302.4</ele>
        <time>2022-08-07T07:40:44Z</time>
      </trkpt>
      <trkpt lat="42.94071" lon="0.2452">
        <ele>1302</ele>
        <time>2022-08-07T07:40:47Z</time>
      </trkpt>
      <trkpt lat="42.94075" lon="0.24519">
        <ele>1302</ele>
        <time>2022-08-07T07:40:48Z</time>
      </trkpt>
      <trkpt lat="42.94084" lon="0.24522">
        <ele>1302</ele>
        <time>2022-08-07T07:40:50Z</time>
      </trkpt>
      <trkpt lat="42.94088" lon="0.24526">
        <ele>1301.8</ele>
        <time>2022-08-07T07:40:51Z</time>
      </trkpt>
      <trkpt lat="42.94098" lon="0.24535">
        <ele>1301.6</ele>
        <time>2022-08-07T07:40:53Z</time>
      </trkpt>
      <trkpt lat="42.94103" lon="0.24538">
        <ele>1301.6</ele>
        <time>2022-08-07T07:40:54Z</time>
      </trkpt>
      <trkpt lat="42.94108" lon="0.2454">
        <ele>1301.6</ele>
        <time>2022-08-07T07:40:55Z</time>
      </trkpt>
      <trkpt lat="42.94119" lon="0.24542">
        <ele>1301.2</ele>
        <time>2022-08-07T07:40:57Z</time>
      </trkpt>
      <trkpt lat="42.94125" lon="0.24544">
        <ele>1301</ele>
        <time>2022-08-07T07:40:58Z</time>
      </trkpt>
      <trkpt lat="42.94131" lon="0.24545">
        <ele>1300.8</ele>
        <time>2022-08-07T07:40:59Z</time>
      </trkpt>
      <trkpt lat="42.94137" lon="0.24546">
        <ele>1300.2</ele>
        <time>2022-08-07T07:41:00Z</time>
      </trkpt>
      <trkpt lat="42.9415" lon="0.24546">
        <ele>1299.6</ele>
        <time>2022-08-07T07:41:02Z</time>
      </trkpt>
      <trkpt lat="42.94157" lon="0.24545">
        <ele>1299.6</ele>
        <time>2022-08-07T07:41:03Z</time>
      </trkpt>
      <trkpt lat="42.94172" lon="0.24541">
        <ele>1298.6</ele>
        <time>2022-08-07T07:41:05Z</time>
      </trkpt>
      <trkpt lat="42.94179" lon="0.24538">
        <ele>1298.2</ele>
        <time>2022-08-07T07:41:06Z</time>
      </trkpt>
      <trkpt lat="42.94186" lon="0.24534">
        <ele>1298</ele>
        <time>2022-08-07T07:41:07Z</time>
      </trkpt>
      <trkpt lat="42.94193" lon="0.24528">
        <ele>1297.2</ele>
        <time>2022-08-07T07:41:08Z</time>
      </trkpt>
      <trkpt lat="42.94207" lon="0.24516">
        <ele>1295.8</ele>
        <time>2022-08-07T07:41:10Z</time>
      </trkpt>
      <trkpt lat="42.94219" lon="0.24504">
        <ele>1294.4</ele>
        <time>2022-08-07T07:41:12Z</time>
      </trkpt>
      <trkpt lat="42.94227" lon="0.24497">
        <ele>1293.4</ele>
        <time>2022-08-07T07:41:13Z</time>
      </trkpt>
      <trkpt lat="42.9424" lon="0.24481">
        <ele>1292.4</ele>
        <time>2022-08-07T07:41:15Z</time>
      </trkpt>
      <trkpt lat="42.94254" lon="0.24465">
        <ele>1291.6</ele>
        <time>2022-08-07T07:41:17Z</time>
      </trkpt>
      <trkpt lat="42.94266" lon="0.24448">
        <ele>1291</ele>
        <time>2022-08-07T07:41:19Z</time>
      </trkpt>
      <trkpt lat="42.94278" lon="0.24428">
        <ele>1289.6</ele>
        <time>2022-08-07T07:41:21Z</time>
      </trkpt>
      <trkpt lat="42.94289" lon="0.24409">
        <ele>1288.6</ele>
        <time>2022-08-07T07:41:23Z</time>
      </trkpt>
      <trkpt lat="42.94294" lon="0.24399">
        <ele>1287.8</ele>
        <time>2022-08-07T07:41:24Z</time>
      </trkpt>
      <trkpt lat="42.94307" lon="0.24371">
        <ele>1286.6</ele>
        <time>2022-08-07T07:41:27Z</time>
      </trkpt>
      <trkpt lat="42.94314" lon="0.24351">
        <ele>1285.6</ele>
        <time>2022-08-07T07:41:29Z</time>
      </trkpt>
      <trkpt lat="42.94318" lon="0.24342">
        <ele>1285</ele>
        <time>2022-08-07T07:41:30Z</time>
      </trkpt>
      <trkpt lat="42.94323" lon="0.24321">
        <ele>1283.6</ele>
        <time>2022-08-07T07:41:32Z</time>
      </trkpt>
      <trkpt lat="42.94327" lon="0.24301">
        <ele>1282</ele>
        <time>2022-08-07T07:41:34Z</time>
      </trkpt>
      <trkpt lat="42.94328" lon="0.24294">
        <ele>1281.4</ele>
        <time>2022-08-07T07:41:35Z</time>
      </trkpt>
      <trkpt lat="42.94329" lon="0.24284">
        <ele>1280.8</ele>
        <time>2022-08-07T07:41:36Z</time>
      </trkpt>
      <trkpt lat="42.94329" lon="0.24275">
        <ele>1280.6</ele>
        <time>2022-08-07T07:41:37Z</time>
      </trkpt>
      <trkpt lat="42.94328" lon="0.24263">
        <ele>1280</ele>
        <time>2022-08-07T07:41:38Z</time>
      </trkpt>
      <trkpt lat="42.94327" lon="0.24254">
        <ele>1279.6</ele>
        <time>2022-08-07T07:41:39Z</time>
      </trkpt>
      <trkpt lat="42.94325" lon="0.24237">
        <ele>1278.2</ele>
        <time>2022-08-07T07:41:41Z</time>
      </trkpt>
      <trkpt lat="42.94319" lon="0.24218">
        <ele>1276.8</ele>
        <time>2022-08-07T07:41:43Z</time>
      </trkpt>
      <trkpt lat="42.94314" lon="0.242">
        <ele>1275</ele>
        <time>2022-08-07T07:41:45Z</time>
      </trkpt>
      <trkpt lat="42.94309" lon="0.24182">
        <ele>1273.6</ele>
        <time>2022-08-07T07:41:47Z</time>
      </trkpt>
      <trkpt lat="42.94303" lon="0.24163">
        <ele>1272.8</ele>
        <time>2022-08-07T07:41:49Z</time>
      </trkpt>
      <trkpt lat="42.94301" lon="0.24157">
        <ele>1272.4</ele>
        <time>2022-08-07T07:41:50Z</time>
      </trkpt>
      <trkpt lat="42.94298" lon="0.24147">
        <ele>1271.8</ele>
        <time>2022-08-07T07:41:51Z</time>
      </trkpt>
      <trkpt lat="42.94298" lon="0.24131">
        <ele>1271.4</ele>
        <time>2022-08-07T07:41:53Z</time>
      </trkpt>
      <trkpt lat="42.943" lon="0.24125">
        <ele>1270.6</ele>
        <time>2022-08-07T07:41:54Z</time>
      </trkpt>
      <trkpt lat="42.94303" lon="0.24121">
        <ele>1269</ele>
        <time>2022-08-07T07:41:55Z</time>
      </trkpt>
      <trkpt lat="42.94306" lon="0.24117">
        <ele>1267.8</ele>
        <time>2022-08-07T07:41:56Z</time>
      </trkpt>
      <trkpt lat="42.94313" lon="0.24109">
        <ele>1266.4</ele>
        <time>2022-08-07T07:41:58Z</time>
      </trkpt>
      <trkpt lat="42.94319" lon="0.24102">
        <ele>1265.4</ele>
        <time>2022-08-07T07:42:00Z</time>
      </trkpt>
      <trkpt lat="42.94321" lon="0.24097">
        <ele>1265.2</ele>
        <time>2022-08-07T07:42:01Z</time>
      </trkpt>
      <trkpt lat="42.94326" lon="0.24084">
        <ele>1264.4</ele>
        <time>2022-08-07T07:42:03Z</time>
      </trkpt>
      <trkpt lat="42.94328" lon="0.24077">
        <ele>1263.8</ele>
        <time>2022-08-07T07:42:04Z</time>
      </trkpt>
      <trkpt lat="42.94333" lon="0.24061">
        <ele>1263.2</ele>
        <time>2022-08-07T07:42:06Z</time>
      </trkpt>
      <trkpt lat="42.9434" lon="0.24049">
        <ele>1262.6</ele>
        <time>2022-08-07T07:42:08Z</time>
      </trkpt>
      <trkpt lat="42.94351" lon="0.24047">
        <ele>1262</ele>
        <time>2022-08-07T07:42:10Z</time>
      </trkpt>
      <trkpt lat="42.94357" lon="0.24049">
        <ele>1260.6</ele>
        <time>2022-08-07T07:42:11Z</time>
      </trkpt>
      <trkpt lat="42.94368" lon="0.24055">
        <ele>1258.8</ele>
        <time>2022-08-07T07:42:13Z</time>
      </trkpt>
      <trkpt lat="42.9438" lon="0.24058">
        <ele>1257.4</ele>
        <time>2022-08-07T07:42:15Z</time>
      </trkpt>
      <trkpt lat="42.94391" lon="0.24059">
        <ele>1256.4</ele>
        <time>2022-08-07T07:42:17Z</time>
      </trkpt>
      <trkpt lat="42.94407" lon="0.24059">
        <ele>1255.4</ele>
        <time>2022-08-07T07:42:20Z</time>
      </trkpt>
      <trkpt lat="42.94412" lon="0.24058">
        <ele>1255.2</ele>
        <time>2022-08-07T07:42:21Z</time>
      </trkpt>
      <trkpt lat="42.94418" lon="0.24055">
        <ele>1255</ele>
        <time>2022-08-07T07:42:22Z</time>
      </trkpt>
      <trkpt lat="42.94423" lon="0.24052">
        <ele>1254.4</ele>
        <time>2022-08-07T07:42:23Z</time>
      </trkpt>
      <trkpt lat="42.94428" lon="0.24047">
        <ele>1254</ele>
        <time>2022-08-07T07:42:24Z</time>
      </trkpt>
      <trkpt lat="42.94438" lon="0.24035">
        <ele>1252.6</ele>
        <time>2022-08-07T07:42:26Z</time>
      </trkpt>
      <trkpt lat="42.94442" lon="0.24029">
        <ele>1252.4</ele>
        <time>2022-08-07T07:42:27Z</time>
      </trkpt>
      <trkpt lat="42.94446" lon="0.24022">
        <ele>1252</ele>
        <time>2022-08-07T07:42:28Z</time>
      </trkpt>
      <trkpt lat="42.94457" lon="0.24001">
        <ele>1251.6</ele>
        <time>2022-08-07T07:42:31Z</time>
      </trkpt>
      <trkpt lat="42.9447" lon="0.23971">
        <ele>1250.4</ele>
        <time>2022-08-07T07:42:35Z</time>
      </trkpt>
      <trkpt lat="42.94481" lon="0.23949">
        <ele>1249.4</ele>
        <time>2022-08-07T07:42:38Z</time>
      </trkpt>
      <trkpt lat="42.94498" lon="0.23918">
        <ele>1248.4</ele>
        <time>2022-08-07T07:42:42Z</time>
      </trkpt>
      <trkpt lat="42.94518" lon="0.23889">
        <ele>1247.2</ele>
        <time>2022-08-07T07:42:46Z</time>
      </trkpt>
      <trkpt lat="42.94522" lon="0.23882">
        <ele>1247</ele>
        <time>2022-08-07T07:42:47Z</time>
      </trkpt>
      <trkpt lat="42.94527" lon="0.23876">
        <ele>1246.8</ele>
        <time>2022-08-07T07:42:48Z</time>
      </trkpt>
      <trkpt lat="42.94532" lon="0.23871">
        <ele>1246</ele>
        <time>2022-08-07T07:42:49Z</time>
      </trkpt>
      <trkpt lat="42.94544" lon="0.23866">
        <ele>1245.6</ele>
        <time>2022-08-07T07:42:51Z</time>
      </trkpt>
      <trkpt lat="42.9456" lon="0.2386">
        <ele>1245</ele>
        <time>2022-08-07T07:42:54Z</time>
      </trkpt>
      <trkpt lat="42.94565" lon="0.2386">
        <ele>1244.8</ele>
        <time>2022-08-07T07:42:55Z</time>
      </trkpt>
      <trkpt lat="42.94576" lon="0.23862">
        <ele>1243.6</ele>
        <time>2022-08-07T07:42:58Z</time>
      </trkpt>
      <trkpt lat="42.94583" lon="0.23867">
        <ele>1242.8</ele>
        <time>2022-08-07T07:43:00Z</time>
      </trkpt>
      <trkpt lat="42.94587" lon="0.23869">
        <ele>1242.4</ele>
        <time>2022-08-07T07:43:01Z</time>
      </trkpt>
      <trkpt lat="42.94598" lon="0.23877">
        <ele>1241.4</ele>
        <time>2022-08-07T07:43:04Z</time>
      </trkpt>
      <trkpt lat="42.94606" lon="0.23881">
        <ele>1240.8</ele>
        <time>2022-08-07T07:43:06Z</time>
      </trkpt>
      <trkpt lat="42.9461" lon="0.23882">
        <ele>1240.6</ele>
        <time>2022-08-07T07:43:07Z</time>
      </trkpt>
      <trkpt lat="42.94614" lon="0.23885">
        <ele>1239.8</ele>
        <time>2022-08-07T07:43:08Z</time>
      </trkpt>
      <trkpt lat="42.94626" lon="0.23897">
        <ele>1238.6</ele>
        <time>2022-08-07T07:43:11Z</time>
      </trkpt>
      <trkpt lat="42.94633" lon="0.23905">
        <ele>1237.6</ele>
        <time>2022-08-07T07:43:13Z</time>
      </trkpt>
      <trkpt lat="42.94638" lon="0.23912">
        <ele>1236</ele>
        <time>2022-08-07T07:43:15Z</time>
      </trkpt>
      <trkpt lat="42.94643" lon="0.23917">
        <ele>1234.8</ele>
        <time>2022-08-07T07:43:17Z</time>
      </trkpt>
      <trkpt lat="42.94647" lon="0.23919">
        <ele>1233.8</ele>
        <time>2022-08-07T07:43:19Z</time>
      </trkpt>
      <trkpt lat="42.94649" lon="0.2392">
        <ele>1233.8</ele>
        <time>2022-08-07T07:43:20Z</time>
      </trkpt>
      <trkpt lat="42.94654" lon="0.23925">
        <ele>1232.4</ele>
        <time>2022-08-07T07:43:23Z</time>
      </trkpt>
      <trkpt lat="42.94655" lon="0.23931">
        <ele>1232</ele>
        <time>2022-08-07T07:43:25Z</time>
      </trkpt>
      <trkpt lat="42.94655" lon="0.23943">
        <ele>1231.4</ele>
        <time>2022-08-07T07:43:29Z</time>
      </trkpt>
      <trkpt lat="42.94656" lon="0.23947">
        <ele>1231.2</ele>
        <time>2022-08-07T07:43:30Z</time>
      </trkpt>
      <trkpt lat="42.94658" lon="0.23969">
        <ele>1231</ele>
        <time>2022-08-07T07:43:35Z</time>
      </trkpt>
      <trkpt lat="42.9466" lon="0.23992">
        <ele>1230.8</ele>
        <time>2022-08-07T07:43:40Z</time>
      </trkpt>
      <trkpt lat="42.94654" lon="0.24007">
        <ele>1230.6</ele>
        <time>2022-08-07T07:43:45Z</time>
      </trkpt>
      <trkpt lat="42.94651" lon="0.2401">
        <ele>1230.4</ele>
        <time>2022-08-07T07:43:47Z</time>
      </trkpt>
      <trkpt lat="42.94649" lon="0.24012">
        <ele>1230</ele>
        <time>2022-08-07T07:43:50Z</time>
      </trkpt>
      <trkpt lat="42.94649" lon="0.24012">
        <ele>1229.2</ele>
        <time>2022-08-07T07:43:55Z</time>
      </trkpt>
      <trkpt lat="42.94649" lon="0.24012">
        <ele>1229</ele>
        <time>2022-08-07T07:44:06Z</time>
      </trkpt>
      <trkpt lat="42.94652" lon="0.2401">
        <ele>1228.8</ele>
        <time>2022-08-07T07:44:22Z</time>
      </trkpt>
      <trkpt lat="42.94654" lon="0.24009">
        <ele>1228.8</ele>
        <time>2022-08-07T07:44:23Z</time>
      </trkpt>
      <trkpt lat="42.94658" lon="0.24003">
        <ele>1229.4</ele>
        <time>2022-08-07T07:44:27Z</time>
      </trkpt>
      <trkpt lat="42.9466" lon="0.24003">
        <ele>1229.4</ele>
        <time>2022-08-07T07:44:29Z</time>
      </trkpt>
      <trkpt lat="42.94665" lon="0.24005">
        <ele>1229.6</ele>
        <time>2022-08-07T07:44:32Z</time>
      </trkpt>
      <trkpt lat="42.94666" lon="0.24007">
        <ele>1229.6</ele>
        <time>2022-08-07T07:44:35Z</time>
      </trkpt>
      <trkpt lat="42.94665" lon="0.24007">
        <ele>1229.6</ele>
        <time>2022-08-07T07:44:57Z</time>
      </trkpt>
      <trkpt lat="42.94665" lon="0.24007">
        <ele>1229.6</ele>
        <time>2022-08-07T07:44:58Z</time>
      </trkpt>
      <trkpt lat="42.94662" lon="0.24005">
        <ele>1229.6</ele>
        <time>2022-08-07T07:45:00Z</time>
      </trkpt>
      <trkpt lat="42.9466" lon="0.24005">
        <ele>1229.6</ele>
        <time>2022-08-07T07:45:01Z</time>
      </trkpt>
      <trkpt lat="42.94646" lon="0.24009">
        <ele>1229.8</ele>
        <time>2022-08-07T07:45:07Z</time>
      </trkpt>
      <trkpt lat="42.94629" lon="0.24004">
        <ele>1229.4</ele>
        <time>2022-08-07T07:45:12Z</time>
      </trkpt>
      <trkpt lat="42.94613" lon="0.24006">
        <ele>1229</ele>
        <time>2022-08-07T07:45:16Z</time>
      </trkpt>
      <trkpt lat="42.94603" lon="0.24018">
        <ele>1228.4</ele>
        <time>2022-08-07T07:45:19Z</time>
      </trkpt>
      <trkpt lat="42.946" lon="0.24023">
        <ele>1228.2</ele>
        <time>2022-08-07T07:45:20Z</time>
      </trkpt>
      <trkpt lat="42.94591" lon="0.24041">
        <ele>1227.4</ele>
        <time>2022-08-07T07:45:23Z</time>
      </trkpt>
      <trkpt lat="42.94583" lon="0.24061">
        <ele>1227</ele>
        <time>2022-08-07T07:45:26Z</time>
      </trkpt>
      <trkpt lat="42.94574" lon="0.24091">
        <ele>1226.2</ele>
        <time>2022-08-07T07:45:30Z</time>
      </trkpt>
      <trkpt lat="42.94572" lon="0.24099">
        <ele>1226</ele>
        <time>2022-08-07T07:45:31Z</time>
      </trkpt>
      <trkpt lat="42.94569" lon="0.24107">
        <ele>1225.8</ele>
        <time>2022-08-07T07:45:32Z</time>
      </trkpt>
      <trkpt lat="42.94564" lon="0.24135">
        <ele>1225.4</ele>
        <time>2022-08-07T07:45:35Z</time>
      </trkpt>
      <trkpt lat="42.94561" lon="0.24143">
        <ele>1225.4</ele>
        <time>2022-08-07T07:45:36Z</time>
      </trkpt>
      <trkpt lat="42.9455" lon="0.24157">
        <ele>1225.2</ele>
        <time>2022-08-07T07:45:38Z</time>
      </trkpt>
      <trkpt lat="42.94536" lon="0.24163">
        <ele>1224.4</ele>
        <time>2022-08-07T07:45:40Z</time>
      </trkpt>
      <trkpt lat="42.94529" lon="0.24164">
        <ele>1224.2</ele>
        <time>2022-08-07T07:45:41Z</time>
      </trkpt>
      <trkpt lat="42.94522" lon="0.24167">
        <ele>1223.8</ele>
        <time>2022-08-07T07:45:42Z</time>
      </trkpt>
      <trkpt lat="42.94518" lon="0.24174">
        <ele>1223.4</ele>
        <time>2022-08-07T07:45:43Z</time>
      </trkpt>
      <trkpt lat="42.94515" lon="0.24183">
        <ele>1222.6</ele>
        <time>2022-08-07T07:45:44Z</time>
      </trkpt>
      <trkpt lat="42.94515" lon="0.24192">
        <ele>1222.4</ele>
        <time>2022-08-07T07:45:45Z</time>
      </trkpt>
      <trkpt lat="42.94516" lon="0.24201">
        <ele>1221.8</ele>
        <time>2022-08-07T07:45:46Z</time>
      </trkpt>
      <trkpt lat="42.94517" lon="0.2421">
        <ele>1221.4</ele>
        <time>2022-08-07T07:45:47Z</time>
      </trkpt>
      <trkpt lat="42.94519" lon="0.24218">
        <ele>1221</ele>
        <time>2022-08-07T07:45:48Z</time>
      </trkpt>
      <trkpt lat="42.94522" lon="0.24227">
        <ele>1220.8</ele>
        <time>2022-08-07T07:45:49Z</time>
      </trkpt>
      <trkpt lat="42.94524" lon="0.24235">
        <ele>1220.6</ele>
        <time>2022-08-07T07:45:50Z</time>
      </trkpt>
      <trkpt lat="42.9453" lon="0.24251">
        <ele>1220.4</ele>
        <time>2022-08-07T07:45:52Z</time>
      </trkpt>
      <trkpt lat="42.94538" lon="0.24276">
        <ele>1219.8</ele>
        <time>2022-08-07T07:45:55Z</time>
      </trkpt>
      <trkpt lat="42.94542" lon="0.24285">
        <ele>1219.8</ele>
        <time>2022-08-07T07:45:56Z</time>
      </trkpt>
      <trkpt lat="42.9455" lon="0.24299">
        <ele>1219.4</ele>
        <time>2022-08-07T07:45:58Z</time>
      </trkpt>
      <trkpt lat="42.94556" lon="0.24305">
        <ele>1219.2</ele>
        <time>2022-08-07T07:45:59Z</time>
      </trkpt>
      <trkpt lat="42.94584" lon="0.24336">
        <ele>1218.2</ele>
        <time>2022-08-07T07:46:04Z</time>
      </trkpt>
      <trkpt lat="42.94607" lon="0.24361">
        <ele>1217</ele>
        <time>2022-08-07T07:46:08Z</time>
      </trkpt>
      <trkpt lat="42.94624" lon="0.24377">
        <ele>1216.4</ele>
        <time>2022-08-07T07:46:11Z</time>
      </trkpt>
      <trkpt lat="42.94629" lon="0.24383">
        <ele>1215.8</ele>
        <time>2022-08-07T07:46:12Z</time>
      </trkpt>
      <trkpt lat="42.94652" lon="0.24413">
        <ele>1215</ele>
        <time>2022-08-07T07:46:17Z</time>
      </trkpt>
      <trkpt lat="42.94672" lon="0.24449">
        <ele>1214.2</ele>
        <time>2022-08-07T07:46:23Z</time>
      </trkpt>
      <trkpt lat="42.94679" lon="0.24466">
        <ele>1214</ele>
        <time>2022-08-07T07:46:26Z</time>
      </trkpt>
      <trkpt lat="42.94684" lon="0.24476">
        <ele>1214</ele>
        <time>2022-08-07T07:46:28Z</time>
      </trkpt>
      <trkpt lat="42.947" lon="0.2451">
        <ele>1214.2</ele>
        <time>2022-08-07T07:46:35Z</time>
      </trkpt>
      <trkpt lat="42.9472" lon="0.24563">
        <ele>1214.4</ele>
        <time>2022-08-07T07:46:45Z</time>
      </trkpt>
      <trkpt lat="42.94722" lon="0.24569">
        <ele>1214.4</ele>
        <time>2022-08-07T07:46:46Z</time>
      </trkpt>
      <trkpt lat="42.94729" lon="0.246">
        <ele>1214.6</ele>
        <time>2022-08-07T07:46:51Z</time>
      </trkpt>
      <trkpt lat="42.94734" lon="0.24657">
        <ele>1214.2</ele>
        <time>2022-08-07T07:47:00Z</time>
      </trkpt>
      <trkpt lat="42.94742" lon="0.24704">
        <ele>1213.8</ele>
        <time>2022-08-07T07:47:07Z</time>
      </trkpt>
      <trkpt lat="42.94755" lon="0.24763">
        <ele>1213.4</ele>
        <time>2022-08-07T07:47:16Z</time>
      </trkpt>
      <trkpt lat="42.94771" lon="0.24817">
        <ele>1213.4</ele>
        <time>2022-08-07T07:47:25Z</time>
      </trkpt>
      <trkpt lat="42.94782" lon="0.24848">
        <ele>1213.8</ele>
        <time>2022-08-07T07:47:31Z</time>
      </trkpt>
      <trkpt lat="42.94794" lon="0.24875">
        <ele>1214.4</ele>
        <time>2022-08-07T07:47:38Z</time>
      </trkpt>
      <trkpt lat="42.94809" lon="0.24908">
        <ele>1215</ele>
        <time>2022-08-07T07:47:46Z</time>
      </trkpt>
      <trkpt lat="42.9482" lon="0.24936">
        <ele>1215.4</ele>
        <time>2022-08-07T07:47:52Z</time>
      </trkpt>
      <trkpt lat="42.94825" lon="0.24952">
        <ele>1215.4</ele>
        <time>2022-08-07T07:47:55Z</time>
      </trkpt>
      <trkpt lat="42.94833" lon="0.24992">
        <ele>1216</ele>
        <time>2022-08-07T07:48:02Z</time>
      </trkpt>
      <trkpt lat="42.94833" lon="0.25048">
        <ele>1215.8</ele>
        <time>2022-08-07T07:48:11Z</time>
      </trkpt>
      <trkpt lat="42.94826" lon="0.25101">
        <ele>1215.4</ele>
        <time>2022-08-07T07:48:19Z</time>
      </trkpt>
      <trkpt lat="42.94814" lon="0.2514">
        <ele>1215.2</ele>
        <time>2022-08-07T07:48:25Z</time>
      </trkpt>
      <trkpt lat="42.94809" lon="0.25151">
        <ele>1215</ele>
        <time>2022-08-07T07:48:27Z</time>
      </trkpt>
      <trkpt lat="42.94797" lon="0.25172">
        <ele>1214.4</ele>
        <time>2022-08-07T07:48:31Z</time>
      </trkpt>
      <trkpt lat="42.94791" lon="0.25182">
        <ele>1214.2</ele>
        <time>2022-08-07T07:48:33Z</time>
      </trkpt>
      <trkpt lat="42.94787" lon="0.25187">
        <ele>1214.2</ele>
        <time>2022-08-07T07:48:34Z</time>
      </trkpt>
      <trkpt lat="42.94775" lon="0.25201">
        <ele>1213.6</ele>
        <time>2022-08-07T07:48:37Z</time>
      </trkpt>
      <trkpt lat="42.9477" lon="0.25205">
        <ele>1213.6</ele>
        <time>2022-08-07T07:48:38Z</time>
      </trkpt>
      <trkpt lat="42.94765" lon="0.25209">
        <ele>1213.4</ele>
        <time>2022-08-07T07:48:39Z</time>
      </trkpt>
      <trkpt lat="42.94754" lon="0.25215">
        <ele>1213.2</ele>
        <time>2022-08-07T07:48:41Z</time>
      </trkpt>
      <trkpt lat="42.94741" lon="0.25216">
        <ele>1212.8</ele>
        <time>2022-08-07T07:48:43Z</time>
      </trkpt>
      <trkpt lat="42.94728" lon="0.25213">
        <ele>1212.4</ele>
        <time>2022-08-07T07:48:45Z</time>
      </trkpt>
      <trkpt lat="42.94721" lon="0.2521">
        <ele>1212</ele>
        <time>2022-08-07T07:48:46Z</time>
      </trkpt>
      <trkpt lat="42.94714" lon="0.25207">
        <ele>1211.8</ele>
        <time>2022-08-07T07:48:47Z</time>
      </trkpt>
      <trkpt lat="42.94699" lon="0.252">
        <ele>1211.8</ele>
        <time>2022-08-07T07:48:49Z</time>
      </trkpt>
      <trkpt lat="42.94682" lon="0.25197">
        <ele>1211.4</ele>
        <time>2022-08-07T07:48:51Z</time>
      </trkpt>
      <trkpt lat="42.94673" lon="0.25197">
        <ele>1210.8</ele>
        <time>2022-08-07T07:48:52Z</time>
      </trkpt>
      <trkpt lat="42.94665" lon="0.25199">
        <ele>1210.6</ele>
        <time>2022-08-07T07:48:53Z</time>
      </trkpt>
      <trkpt lat="42.9465" lon="0.25204">
        <ele>1210</ele>
        <time>2022-08-07T07:48:55Z</time>
      </trkpt>
      <trkpt lat="42.94641" lon="0.25209">
        <ele>1209.8</ele>
        <time>2022-08-07T07:48:56Z</time>
      </trkpt>
      <trkpt lat="42.94619" lon="0.25227">
        <ele>1209.2</ele>
        <time>2022-08-07T07:48:59Z</time>
      </trkpt>
      <trkpt lat="42.94611" lon="0.25235">
        <ele>1208.8</ele>
        <time>2022-08-07T07:49:00Z</time>
      </trkpt>
      <trkpt lat="42.94592" lon="0.2525">
        <ele>1207.8</ele>
        <time>2022-08-07T07:49:02Z</time>
      </trkpt>
      <trkpt lat="42.94576" lon="0.25265">
        <ele>1206.6</ele>
        <time>2022-08-07T07:49:04Z</time>
      </trkpt>
      <trkpt lat="42.94561" lon="0.25278">
        <ele>1205.6</ele>
        <time>2022-08-07T07:49:06Z</time>
      </trkpt>
      <trkpt lat="42.94546" lon="0.2529">
        <ele>1204.4</ele>
        <time>2022-08-07T07:49:08Z</time>
      </trkpt>
      <trkpt lat="42.94538" lon="0.25296">
        <ele>1203.8</ele>
        <time>2022-08-07T07:49:09Z</time>
      </trkpt>
      <trkpt lat="42.9453" lon="0.253">
        <ele>1203.2</ele>
        <time>2022-08-07T07:49:10Z</time>
      </trkpt>
      <trkpt lat="42.94522" lon="0.25304">
        <ele>1202.4</ele>
        <time>2022-08-07T07:49:11Z</time>
      </trkpt>
      <trkpt lat="42.94514" lon="0.25307">
        <ele>1202.2</ele>
        <time>2022-08-07T07:49:12Z</time>
      </trkpt>
      <trkpt lat="42.94506" lon="0.25309">
        <ele>1201.4</ele>
        <time>2022-08-07T07:49:13Z</time>
      </trkpt>
      <trkpt lat="42.94497" lon="0.25311">
        <ele>1200.8</ele>
        <time>2022-08-07T07:49:14Z</time>
      </trkpt>
      <trkpt lat="42.94481" lon="0.25307">
        <ele>1199.2</ele>
        <time>2022-08-07T07:49:16Z</time>
      </trkpt>
      <trkpt lat="42.94464" lon="0.253">
        <ele>1198</ele>
        <time>2022-08-07T07:49:18Z</time>
      </trkpt>
      <trkpt lat="42.94448" lon="0.25294">
        <ele>1196.4</ele>
        <time>2022-08-07T07:49:20Z</time>
      </trkpt>
      <trkpt lat="42.94442" lon="0.25295">
        <ele>1195.6</ele>
        <time>2022-08-07T07:49:21Z</time>
      </trkpt>
      <trkpt lat="42.94436" lon="0.25299">
        <ele>1194.8</ele>
        <time>2022-08-07T07:49:22Z</time>
      </trkpt>
      <trkpt lat="42.94431" lon="0.2531">
        <ele>1193.6</ele>
        <time>2022-08-07T07:49:24Z</time>
      </trkpt>
      <trkpt lat="42.94434" lon="0.25324">
        <ele>1192.4</ele>
        <time>2022-08-07T07:49:26Z</time>
      </trkpt>
      <trkpt lat="42.94438" lon="0.25337">
        <ele>1191.2</ele>
        <time>2022-08-07T07:49:28Z</time>
      </trkpt>
      <trkpt lat="42.94446" lon="0.25353">
        <ele>1190.6</ele>
        <time>2022-08-07T07:49:31Z</time>
      </trkpt>
      <trkpt lat="42.94447" lon="0.25358">
        <ele>1190.4</ele>
        <time>2022-08-07T07:49:32Z</time>
      </trkpt>
      <trkpt lat="42.94449" lon="0.25363">
        <ele>1190.4</ele>
        <time>2022-08-07T07:49:33Z</time>
      </trkpt>
      <trkpt lat="42.94453" lon="0.25374">
        <ele>1190.2</ele>
        <time>2022-08-07T07:49:35Z</time>
      </trkpt>
      <trkpt lat="42.94458" lon="0.25391">
        <ele>1190.2</ele>
        <time>2022-08-07T07:49:38Z</time>
      </trkpt>
      <trkpt lat="42.94462" lon="0.25402">
        <ele>1190.2</ele>
        <time>2022-08-07T07:49:40Z</time>
      </trkpt>
      <trkpt lat="42.9447" lon="0.25424">
        <ele>1190.2</ele>
        <time>2022-08-07T07:49:44Z</time>
      </trkpt>
      <trkpt lat="42.94472" lon="0.2543">
        <ele>1190.2</ele>
        <time>2022-08-07T07:49:45Z</time>
      </trkpt>
      <trkpt lat="42.94476" lon="0.25447">
        <ele>1190.4</ele>
        <time>2022-08-07T07:49:48Z</time>
      </trkpt>
      <trkpt lat="42.9448" lon="0.25458">
        <ele>1190.4</ele>
        <time>2022-08-07T07:49:50Z</time>
      </trkpt>
      <trkpt lat="42.94484" lon="0.25468">
        <ele>1190.6</ele>
        <time>2022-08-07T07:49:52Z</time>
      </trkpt>
      <trkpt lat="42.94493" lon="0.25478">
        <ele>1190.6</ele>
        <time>2022-08-07T07:49:55Z</time>
      </trkpt>
      <trkpt lat="42.94499" lon="0.25483">
        <ele>1190.8</ele>
        <time>2022-08-07T07:49:57Z</time>
      </trkpt>
      <trkpt lat="42.94512" lon="0.25489">
        <ele>1190.8</ele>
        <time>2022-08-07T07:50:01Z</time>
      </trkpt>
      <trkpt lat="42.94516" lon="0.2549">
        <ele>1190.8</ele>
        <time>2022-08-07T07:50:02Z</time>
      </trkpt>
      <trkpt lat="42.94542" lon="0.25502">
        <ele>1190.6</ele>
        <time>2022-08-07T07:50:08Z</time>
      </trkpt>
      <trkpt lat="42.94572" lon="0.2552">
        <ele>1190</ele>
        <time>2022-08-07T07:50:13Z</time>
      </trkpt>
      <trkpt lat="42.94592" lon="0.25537">
        <ele>1189.2</ele>
        <time>2022-08-07T07:50:16Z</time>
      </trkpt>
      <trkpt lat="42.94605" lon="0.25548">
        <ele>1188.8</ele>
        <time>2022-08-07T07:50:18Z</time>
      </trkpt>
      <trkpt lat="42.94617" lon="0.25558">
        <ele>1187.6</ele>
        <time>2022-08-07T07:50:20Z</time>
      </trkpt>
      <trkpt lat="42.94631" lon="0.25569">
        <ele>1186.4</ele>
        <time>2022-08-07T07:50:23Z</time>
      </trkpt>
      <trkpt lat="42.94634" lon="0.25578">
        <ele>1185.4</ele>
        <time>2022-08-07T07:50:25Z</time>
      </trkpt>
      <trkpt lat="42.94634" lon="0.25582">
        <ele>1184.2</ele>
        <time>2022-08-07T07:50:26Z</time>
      </trkpt>
      <trkpt lat="42.94632" lon="0.25586">
        <ele>1183.8</ele>
        <time>2022-08-07T07:50:27Z</time>
      </trkpt>
      <trkpt lat="42.94629" lon="0.25589">
        <ele>1183.2</ele>
        <time>2022-08-07T07:50:28Z</time>
      </trkpt>
      <trkpt lat="42.94624" lon="0.25591">
        <ele>1182.8</ele>
        <time>2022-08-07T07:50:29Z</time>
      </trkpt>
      <trkpt lat="42.94612" lon="0.25592">
        <ele>1181.8</ele>
        <time>2022-08-07T07:50:31Z</time>
      </trkpt>
      <trkpt lat="42.94606" lon="0.25593">
        <ele>1181</ele>
        <time>2022-08-07T07:50:32Z</time>
      </trkpt>
      <trkpt lat="42.946" lon="0.25595">
        <ele>1180.8</ele>
        <time>2022-08-07T07:50:33Z</time>
      </trkpt>
      <trkpt lat="42.94597" lon="0.25599">
        <ele>1180.2</ele>
        <time>2022-08-07T07:50:34Z</time>
      </trkpt>
      <trkpt lat="42.94596" lon="0.25605">
        <ele>1179.8</ele>
        <time>2022-08-07T07:50:35Z</time>
      </trkpt>
      <trkpt lat="42.946" lon="0.25616">
        <ele>1179.2</ele>
        <time>2022-08-07T07:50:37Z</time>
      </trkpt>
      <trkpt lat="42.94604" lon="0.2562">
        <ele>1179</ele>
        <time>2022-08-07T07:50:38Z</time>
      </trkpt>
      <trkpt lat="42.94609" lon="0.25624">
        <ele>1178.4</ele>
        <time>2022-08-07T07:50:39Z</time>
      </trkpt>
      <trkpt lat="42.94619" lon="0.2563">
        <ele>1178</ele>
        <time>2022-08-07T07:50:41Z</time>
      </trkpt>
      <trkpt lat="42.9463" lon="0.25636">
        <ele>1177.6</ele>
        <time>2022-08-07T07:50:43Z</time>
      </trkpt>
      <trkpt lat="42.94652" lon="0.25652">
        <ele>1177</ele>
        <time>2022-08-07T07:50:47Z</time>
      </trkpt>
      <trkpt lat="42.94663" lon="0.25665">
        <ele>1176.8</ele>
        <time>2022-08-07T07:50:49Z</time>
      </trkpt>
      <trkpt lat="42.94679" lon="0.25688">
        <ele>1175.8</ele>
        <time>2022-08-07T07:50:52Z</time>
      </trkpt>
      <trkpt lat="42.94689" lon="0.25705">
        <ele>1175.2</ele>
        <time>2022-08-07T07:50:54Z</time>
      </trkpt>
      <trkpt lat="42.947" lon="0.25723">
        <ele>1174.4</ele>
        <time>2022-08-07T07:50:56Z</time>
      </trkpt>
      <trkpt lat="42.94723" lon="0.25761">
        <ele>1173</ele>
        <time>2022-08-07T07:51:00Z</time>
      </trkpt>
      <trkpt lat="42.94729" lon="0.2577">
        <ele>1172.8</ele>
        <time>2022-08-07T07:51:01Z</time>
      </trkpt>
      <trkpt lat="42.94739" lon="0.25785">
        <ele>1171.8</ele>
        <time>2022-08-07T07:51:03Z</time>
      </trkpt>
      <trkpt lat="42.94754" lon="0.25809">
        <ele>1170.2</ele>
        <time>2022-08-07T07:51:06Z</time>
      </trkpt>
      <trkpt lat="42.94763" lon="0.25826">
        <ele>1169</ele>
        <time>2022-08-07T07:51:08Z</time>
      </trkpt>
      <trkpt lat="42.94773" lon="0.25841">
        <ele>1168.4</ele>
        <time>2022-08-07T07:51:10Z</time>
      </trkpt>
      <trkpt lat="42.94783" lon="0.25854">
        <ele>1168</ele>
        <time>2022-08-07T07:51:12Z</time>
      </trkpt>
      <trkpt lat="42.94811" lon="0.25885">
        <ele>1166.6</ele>
        <time>2022-08-07T07:51:17Z</time>
      </trkpt>
      <trkpt lat="42.94815" lon="0.25891">
        <ele>1166.4</ele>
        <time>2022-08-07T07:51:18Z</time>
      </trkpt>
      <trkpt lat="42.94824" lon="0.25906">
        <ele>1166.2</ele>
        <time>2022-08-07T07:51:20Z</time>
      </trkpt>
      <trkpt lat="42.94833" lon="0.25922">
        <ele>1165.2</ele>
        <time>2022-08-07T07:51:22Z</time>
      </trkpt>
      <trkpt lat="42.94837" lon="0.2593">
        <ele>1165</ele>
        <time>2022-08-07T07:51:23Z</time>
      </trkpt>
      <trkpt lat="42.94847" lon="0.25949">
        <ele>1164</ele>
        <time>2022-08-07T07:51:25Z</time>
      </trkpt>
      <trkpt lat="42.94864" lon="0.25978">
        <ele>1163</ele>
        <time>2022-08-07T07:51:28Z</time>
      </trkpt>
      <trkpt lat="42.9489" lon="0.26014">
        <ele>1161.6</ele>
        <time>2022-08-07T07:51:32Z</time>
      </trkpt>
      <trkpt lat="42.94897" lon="0.26021">
        <ele>1161.4</ele>
        <time>2022-08-07T07:51:33Z</time>
      </trkpt>
      <trkpt lat="42.9491" lon="0.26038">
        <ele>1160.6</ele>
        <time>2022-08-07T07:51:35Z</time>
      </trkpt>
      <trkpt lat="42.94915" lon="0.26047">
        <ele>1159.8</ele>
        <time>2022-08-07T07:51:36Z</time>
      </trkpt>
      <trkpt lat="42.9492" lon="0.26057">
        <ele>1159.6</ele>
        <time>2022-08-07T07:51:37Z</time>
      </trkpt>
      <trkpt lat="42.94924" lon="0.26067">
        <ele>1158.8</ele>
        <time>2022-08-07T07:51:38Z</time>
      </trkpt>
      <trkpt lat="42.94925" lon="0.26084">
        <ele>1157.8</ele>
        <time>2022-08-07T07:51:40Z</time>
      </trkpt>
      <trkpt lat="42.94918" lon="0.26096">
        <ele>1157.2</ele>
        <time>2022-08-07T07:51:42Z</time>
      </trkpt>
      <trkpt lat="42.94911" lon="0.26099">
        <ele>1156.4</ele>
        <time>2022-08-07T07:51:43Z</time>
      </trkpt>
      <trkpt lat="42.94899" lon="0.26103">
        <ele>1154.8</ele>
        <time>2022-08-07T07:51:45Z</time>
      </trkpt>
      <trkpt lat="42.94895" lon="0.26106">
        <ele>1154.4</ele>
        <time>2022-08-07T07:51:46Z</time>
      </trkpt>
      <trkpt lat="42.94891" lon="0.26116">
        <ele>1153.4</ele>
        <time>2022-08-07T07:51:48Z</time>
      </trkpt>
      <trkpt lat="42.94891" lon="0.26121">
        <ele>1152.6</ele>
        <time>2022-08-07T07:51:49Z</time>
      </trkpt>
      <trkpt lat="42.94892" lon="0.26126">
        <ele>1152.2</ele>
        <time>2022-08-07T07:51:50Z</time>
      </trkpt>
      <trkpt lat="42.94895" lon="0.26138">
        <ele>1151</ele>
        <time>2022-08-07T07:51:52Z</time>
      </trkpt>
      <trkpt lat="42.94897" lon="0.26143">
        <ele>1150</ele>
        <time>2022-08-07T07:51:53Z</time>
      </trkpt>
      <trkpt lat="42.94899" lon="0.26147">
        <ele>1149.4</ele>
        <time>2022-08-07T07:51:54Z</time>
      </trkpt>
      <trkpt lat="42.94905" lon="0.26162">
        <ele>1148.4</ele>
        <time>2022-08-07T07:51:56Z</time>
      </trkpt>
      <trkpt lat="42.94909" lon="0.26172">
        <ele>1148.2</ele>
        <time>2022-08-07T07:51:57Z</time>
      </trkpt>
      <trkpt lat="42.94924" lon="0.26212">
        <ele>1147</ele>
        <time>2022-08-07T07:52:01Z</time>
      </trkpt>
      <trkpt lat="42.94926" lon="0.26221">
        <ele>1146.6</ele>
        <time>2022-08-07T07:52:02Z</time>
      </trkpt>
      <trkpt lat="42.94926" lon="0.26228">
        <ele>1146.4</ele>
        <time>2022-08-07T07:52:03Z</time>
      </trkpt>
      <trkpt lat="42.94924" lon="0.26233">
        <ele>1145.8</ele>
        <time>2022-08-07T07:52:04Z</time>
      </trkpt>
      <trkpt lat="42.94921" lon="0.26236">
        <ele>1145.2</ele>
        <time>2022-08-07T07:52:05Z</time>
      </trkpt>
      <trkpt lat="42.94916" lon="0.26237">
        <ele>1144.4</ele>
        <time>2022-08-07T07:52:06Z</time>
      </trkpt>
      <trkpt lat="42.94903" lon="0.26238">
        <ele>1143.2</ele>
        <time>2022-08-07T07:52:08Z</time>
      </trkpt>
      <trkpt lat="42.9489" lon="0.2624">
        <ele>1141.8</ele>
        <time>2022-08-07T07:52:10Z</time>
      </trkpt>
      <trkpt lat="42.94881" lon="0.2625">
        <ele>1141</ele>
        <time>2022-08-07T07:52:12Z</time>
      </trkpt>
      <trkpt lat="42.9488" lon="0.2626">
        <ele>1140.6</ele>
        <time>2022-08-07T07:52:13Z</time>
      </trkpt>
      <trkpt lat="42.9488" lon="0.26267">
        <ele>1140.4</ele>
        <time>2022-08-07T07:52:14Z</time>
      </trkpt>
      <trkpt lat="42.94881" lon="0.26275">
        <ele>1140.4</ele>
        <time>2022-08-07T07:52:15Z</time>
      </trkpt>
      <trkpt lat="42.94884" lon="0.26283">
        <ele>1140</ele>
        <time>2022-08-07T07:52:16Z</time>
      </trkpt>
      <trkpt lat="42.94896" lon="0.26308">
        <ele>1139</ele>
        <time>2022-08-07T07:52:19Z</time>
      </trkpt>
      <trkpt lat="42.94899" lon="0.26318">
        <ele>1138.8</ele>
        <time>2022-08-07T07:52:20Z</time>
      </trkpt>
      <trkpt lat="42.94908" lon="0.2635">
        <ele>1137.6</ele>
        <time>2022-08-07T07:52:23Z</time>
      </trkpt>
      <trkpt lat="42.94913" lon="0.26374">
        <ele>1137.2</ele>
        <time>2022-08-07T07:52:25Z</time>
      </trkpt>
      <trkpt lat="42.94915" lon="0.26385">
        <ele>1136.4</ele>
        <time>2022-08-07T07:52:26Z</time>
      </trkpt>
      <trkpt lat="42.94917" lon="0.26395">
        <ele>1136.2</ele>
        <time>2022-08-07T07:52:27Z</time>
      </trkpt>
      <trkpt lat="42.94917" lon="0.26405">
        <ele>1135.6</ele>
        <time>2022-08-07T07:52:28Z</time>
      </trkpt>
      <trkpt lat="42.94915" lon="0.26426">
        <ele>1135.2</ele>
        <time>2022-08-07T07:52:30Z</time>
      </trkpt>
      <trkpt lat="42.9491" lon="0.26448">
        <ele>1134.4</ele>
        <time>2022-08-07T07:52:32Z</time>
      </trkpt>
      <trkpt lat="42.94907" lon="0.26457">
        <ele>1134</ele>
        <time>2022-08-07T07:52:33Z</time>
      </trkpt>
      <trkpt lat="42.94903" lon="0.26464">
        <ele>1133.2</ele>
        <time>2022-08-07T07:52:34Z</time>
      </trkpt>
      <trkpt lat="42.94898" lon="0.26469">
        <ele>1133</ele>
        <time>2022-08-07T07:52:35Z</time>
      </trkpt>
      <trkpt lat="42.94891" lon="0.26472">
        <ele>1132.2</ele>
        <time>2022-08-07T07:52:36Z</time>
      </trkpt>
      <trkpt lat="42.94878" lon="0.2648">
        <ele>1131.2</ele>
        <time>2022-08-07T07:52:38Z</time>
      </trkpt>
      <trkpt lat="42.94864" lon="0.26493">
        <ele>1130</ele>
        <time>2022-08-07T07:52:40Z</time>
      </trkpt>
      <trkpt lat="42.94839" lon="0.26513">
        <ele>1128.4</ele>
        <time>2022-08-07T07:52:43Z</time>
      </trkpt>
      <trkpt lat="42.94825" lon="0.26526">
        <ele>1127.6</ele>
        <time>2022-08-07T07:52:45Z</time>
      </trkpt>
      <trkpt lat="42.94821" lon="0.26534">
        <ele>1127.4</ele>
        <time>2022-08-07T07:52:46Z</time>
      </trkpt>
      <trkpt lat="42.94821" lon="0.26543">
        <ele>1126.6</ele>
        <time>2022-08-07T07:52:47Z</time>
      </trkpt>
      <trkpt lat="42.94823" lon="0.26552">
        <ele>1126.2</ele>
        <time>2022-08-07T07:52:48Z</time>
      </trkpt>
      <trkpt lat="42.94826" lon="0.26559">
        <ele>1125.2</ele>
        <time>2022-08-07T07:52:49Z</time>
      </trkpt>
      <trkpt lat="42.9483" lon="0.26565">
        <ele>1124.6</ele>
        <time>2022-08-07T07:52:50Z</time>
      </trkpt>
      <trkpt lat="42.94834" lon="0.2657">
        <ele>1123.4</ele>
        <time>2022-08-07T07:52:51Z</time>
      </trkpt>
      <trkpt lat="42.94838" lon="0.26576">
        <ele>1123</ele>
        <time>2022-08-07T07:52:52Z</time>
      </trkpt>
      <trkpt lat="42.94846" lon="0.2659">
        <ele>1122.2</ele>
        <time>2022-08-07T07:52:54Z</time>
      </trkpt>
      <trkpt lat="42.94849" lon="0.26597">
        <ele>1121.8</ele>
        <time>2022-08-07T07:52:55Z</time>
      </trkpt>
      <trkpt lat="42.9486" lon="0.26635">
        <ele>1121.2</ele>
        <time>2022-08-07T07:52:59Z</time>
      </trkpt>
      <trkpt lat="42.94864" lon="0.26646">
        <ele>1120.8</ele>
        <time>2022-08-07T07:53:00Z</time>
      </trkpt>
      <trkpt lat="42.94874" lon="0.26668">
        <ele>1120</ele>
        <time>2022-08-07T07:53:02Z</time>
      </trkpt>
      <trkpt lat="42.94882" lon="0.26691">
        <ele>1119.4</ele>
        <time>2022-08-07T07:53:04Z</time>
      </trkpt>
      <trkpt lat="42.94883" lon="0.26718">
        <ele>1118.4</ele>
        <time>2022-08-07T07:53:06Z</time>
      </trkpt>
      <trkpt lat="42.94881" lon="0.26748">
        <ele>1117.2</ele>
        <time>2022-08-07T07:53:08Z</time>
      </trkpt>
      <trkpt lat="42.9488" lon="0.2678">
        <ele>1116</ele>
        <time>2022-08-07T07:53:10Z</time>
      </trkpt>
      <trkpt lat="42.94879" lon="0.26811">
        <ele>1115</ele>
        <time>2022-08-07T07:53:12Z</time>
      </trkpt>
      <trkpt lat="42.94878" lon="0.26828">
        <ele>1114</ele>
        <time>2022-08-07T07:53:13Z</time>
      </trkpt>
      <trkpt lat="42.94877" lon="0.26845">
        <ele>1113.4</ele>
        <time>2022-08-07T07:53:14Z</time>
      </trkpt>
      <trkpt lat="42.94876" lon="0.26876">
        <ele>1111.8</ele>
        <time>2022-08-07T07:53:16Z</time>
      </trkpt>
      <trkpt lat="42.94875" lon="0.2689">
        <ele>1110.4</ele>
        <time>2022-08-07T07:53:17Z</time>
      </trkpt>
      <trkpt lat="42.94872" lon="0.26917">
        <ele>1108</ele>
        <time>2022-08-07T07:53:19Z</time>
      </trkpt>
      <trkpt lat="42.9487" lon="0.26931">
        <ele>1107.4</ele>
        <time>2022-08-07T07:53:20Z</time>
      </trkpt>
      <trkpt lat="42.94865" lon="0.26942">
        <ele>1105.8</ele>
        <time>2022-08-07T07:53:21Z</time>
      </trkpt>
      <trkpt lat="42.9486" lon="0.26949">
        <ele>1105</ele>
        <time>2022-08-07T07:53:22Z</time>
      </trkpt>
      <trkpt lat="42.94851" lon="0.26958">
        <ele>1103.4</ele>
        <time>2022-08-07T07:53:23Z</time>
      </trkpt>
      <trkpt lat="42.94844" lon="0.26965">
        <ele>1102.8</ele>
        <time>2022-08-07T07:53:24Z</time>
      </trkpt>
      <trkpt lat="42.94837" lon="0.26971">
        <ele>1101.4</ele>
        <time>2022-08-07T07:53:25Z</time>
      </trkpt>
      <trkpt lat="42.94833" lon="0.26976">
        <ele>1101</ele>
        <time>2022-08-07T07:53:26Z</time>
      </trkpt>
      <trkpt lat="42.94829" lon="0.26982">
        <ele>1099.4</ele>
        <time>2022-08-07T07:53:27Z</time>
      </trkpt>
      <trkpt lat="42.94826" lon="0.2699">
        <ele>1098.6</ele>
        <time>2022-08-07T07:53:28Z</time>
      </trkpt>
      <trkpt lat="42.94825" lon="0.26996">
        <ele>1097.4</ele>
        <time>2022-08-07T07:53:29Z</time>
      </trkpt>
      <trkpt lat="42.94827" lon="0.27002">
        <ele>1096.2</ele>
        <time>2022-08-07T07:53:30Z</time>
      </trkpt>
      <trkpt lat="42.94834" lon="0.2701">
        <ele>1094.8</ele>
        <time>2022-08-07T07:53:32Z</time>
      </trkpt>
      <trkpt lat="42.94838" lon="0.2701">
        <ele>1094.4</ele>
        <time>2022-08-07T07:53:33Z</time>
      </trkpt>
      <trkpt lat="42.94843" lon="0.27009">
        <ele>1093.8</ele>
        <time>2022-08-07T07:53:34Z</time>
      </trkpt>
      <trkpt lat="42.94855" lon="0.26999">
        <ele>1093</ele>
        <time>2022-08-07T07:53:36Z</time>
      </trkpt>
      <trkpt lat="42.94861" lon="0.26992">
        <ele>1092.6</ele>
        <time>2022-08-07T07:53:37Z</time>
      </trkpt>
      <trkpt lat="42.9488" lon="0.26968">
        <ele>1091.4</ele>
        <time>2022-08-07T07:53:40Z</time>
      </trkpt>
      <trkpt lat="42.94904" lon="0.26945">
        <ele>1090.2</ele>
        <time>2022-08-07T07:53:43Z</time>
      </trkpt>
      <trkpt lat="42.94911" lon="0.26936">
        <ele>1089.6</ele>
        <time>2022-08-07T07:53:44Z</time>
      </trkpt>
      <trkpt lat="42.94917" lon="0.26925">
        <ele>1089.2</ele>
        <time>2022-08-07T07:53:45Z</time>
      </trkpt>
      <trkpt lat="42.94926" lon="0.26902">
        <ele>1087.4</ele>
        <time>2022-08-07T07:53:47Z</time>
      </trkpt>
      <trkpt lat="42.94933" lon="0.2688">
        <ele>1086</ele>
        <time>2022-08-07T07:53:49Z</time>
      </trkpt>
      <trkpt lat="42.94936" lon="0.26872">
        <ele>1085.8</ele>
        <time>2022-08-07T07:53:50Z</time>
      </trkpt>
      <trkpt lat="42.94939" lon="0.26866">
        <ele>1085</ele>
        <time>2022-08-07T07:53:51Z</time>
      </trkpt>
      <trkpt lat="42.94944" lon="0.26861">
        <ele>1084.6</ele>
        <time>2022-08-07T07:53:52Z</time>
      </trkpt>
      <trkpt lat="42.94949" lon="0.2686">
        <ele>1083.8</ele>
        <time>2022-08-07T07:53:53Z</time>
      </trkpt>
      <trkpt lat="42.94954" lon="0.26863">
        <ele>1083.4</ele>
        <time>2022-08-07T07:53:54Z</time>
      </trkpt>
      <trkpt lat="42.94959" lon="0.26867">
        <ele>1082.8</ele>
        <time>2022-08-07T07:53:55Z</time>
      </trkpt>
      <trkpt lat="42.9496" lon="0.26871">
        <ele>1082.4</ele>
        <time>2022-08-07T07:53:56Z</time>
      </trkpt>
      <trkpt lat="42.94955" lon="0.26883">
        <ele>1081.4</ele>
        <time>2022-08-07T07:53:58Z</time>
      </trkpt>
      <trkpt lat="42.94947" lon="0.26898">
        <ele>1080.6</ele>
        <time>2022-08-07T07:54:00Z</time>
      </trkpt>
      <trkpt lat="42.94944" lon="0.26906">
        <ele>1080.2</ele>
        <time>2022-08-07T07:54:01Z</time>
      </trkpt>
      <trkpt lat="42.94941" lon="0.26914">
        <ele>1079.8</ele>
        <time>2022-08-07T07:54:02Z</time>
      </trkpt>
      <trkpt lat="42.94933" lon="0.26941">
        <ele>1079</ele>
        <time>2022-08-07T07:54:05Z</time>
      </trkpt>
      <trkpt lat="42.94929" lon="0.26967">
        <ele>1077.8</ele>
        <time>2022-08-07T07:54:08Z</time>
      </trkpt>
      <trkpt lat="42.94929" lon="0.26973">
        <ele>1077.6</ele>
        <time>2022-08-07T07:54:09Z</time>
      </trkpt>
      <trkpt lat="42.94931" lon="0.26982">
        <ele>1076.8</ele>
        <time>2022-08-07T07:54:12Z</time>
      </trkpt>
      <trkpt lat="42.94933" lon="0.26984">
        <ele>1076.8</ele>
        <time>2022-08-07T07:54:13Z</time>
      </trkpt>
      <trkpt lat="42.94938" lon="0.26986">
        <ele>1076</ele>
        <time>2022-08-07T07:54:15Z</time>
      </trkpt>
      <trkpt lat="42.94941" lon="0.26985">
        <ele>1075.4</ele>
        <time>2022-08-07T07:54:16Z</time>
      </trkpt>
      <trkpt lat="42.94944" lon="0.26982">
        <ele>1075.2</ele>
        <time>2022-08-07T07:54:17Z</time>
      </trkpt>
      <trkpt lat="42.94948" lon="0.26978">
        <ele>1074.8</ele>
        <time>2022-08-07T07:54:18Z</time>
      </trkpt>
      <trkpt lat="42.94959" lon="0.26962">
        <ele>1074.4</ele>
        <time>2022-08-07T07:54:21Z</time>
      </trkpt>
      <trkpt lat="42.94966" lon="0.26948">
        <ele>1073.8</ele>
        <time>2022-08-07T07:54:23Z</time>
      </trkpt>
      <trkpt lat="42.94977" lon="0.26926">
        <ele>1073.4</ele>
        <time>2022-08-07T07:54:26Z</time>
      </trkpt>
      <trkpt lat="42.9498" lon="0.26918">
        <ele>1073</ele>
        <time>2022-08-07T07:54:27Z</time>
      </trkpt>
      <trkpt lat="42.94983" lon="0.26912">
        <ele>1072.6</ele>
        <time>2022-08-07T07:54:28Z</time>
      </trkpt>
      <trkpt lat="42.94987" lon="0.26902">
        <ele>1072</ele>
        <time>2022-08-07T07:54:30Z</time>
      </trkpt>
      <trkpt lat="42.9499" lon="0.269">
        <ele>1071.2</ele>
        <time>2022-08-07T07:54:31Z</time>
      </trkpt>
      <trkpt lat="42.94993" lon="0.26901">
        <ele>1070.8</ele>
        <time>2022-08-07T07:54:32Z</time>
      </trkpt>
      <trkpt lat="42.94994" lon="0.2691">
        <ele>1070</ele>
        <time>2022-08-07T07:54:34Z</time>
      </trkpt>
      <trkpt lat="42.94994" lon="0.26916">
        <ele>1069.2</ele>
        <time>2022-08-07T07:54:35Z</time>
      </trkpt>
      <trkpt lat="42.94993" lon="0.26922">
        <ele>1068.6</ele>
        <time>2022-08-07T07:54:36Z</time>
      </trkpt>
      <trkpt lat="42.94995" lon="0.26949">
        <ele>1067.4</ele>
        <time>2022-08-07T07:54:40Z</time>
      </trkpt>
      <trkpt lat="42.94988" lon="0.26988">
        <ele>1066.4</ele>
        <time>2022-08-07T07:54:46Z</time>
      </trkpt>
      <trkpt lat="42.94986" lon="0.26994">
        <ele>1066.4</ele>
        <time>2022-08-07T07:54:47Z</time>
      </trkpt>
      <trkpt lat="42.94985" lon="0.27001">
        <ele>1066.4</ele>
        <time>2022-08-07T07:54:48Z</time>
      </trkpt>
      <trkpt lat="42.94983" lon="0.27021">
        <ele>1066.4</ele>
        <time>2022-08-07T07:54:51Z</time>
      </trkpt>
      <trkpt lat="42.94983" lon="0.27033">
        <ele>1066.2</ele>
        <time>2022-08-07T07:54:53Z</time>
      </trkpt>
      <trkpt lat="42.94987" lon="0.27047">
        <ele>1066.4</ele>
        <time>2022-08-07T07:54:56Z</time>
      </trkpt>
      <trkpt lat="42.94994" lon="0.27057">
        <ele>1067.2</ele>
        <time>2022-08-07T07:55:01Z</time>
      </trkpt>
      <trkpt lat="42.94999" lon="0.27063">
        <ele>1067.8</ele>
        <time>2022-08-07T07:55:05Z</time>
      </trkpt>
      <trkpt lat="42.95002" lon="0.27068">
        <ele>1068.4</ele>
        <time>2022-08-07T07:55:09Z</time>
      </trkpt>
      <trkpt lat="42.95005" lon="0.27071">
        <ele>1068.8</ele>
        <time>2022-08-07T07:55:11Z</time>
      </trkpt>
      <trkpt lat="42.95012" lon="0.27077">
        <ele>1069.8</ele>
        <time>2022-08-07T07:55:16Z</time>
      </trkpt>
      <trkpt lat="42.95014" lon="0.27078">
        <ele>1070.4</ele>
        <time>2022-08-07T07:55:18Z</time>
      </trkpt>
      <trkpt lat="42.95019" lon="0.2708">
        <ele>1071</ele>
        <time>2022-08-07T07:55:22Z</time>
      </trkpt>
      <trkpt lat="42.95024" lon="0.27082">
        <ele>1072</ele>
        <time>2022-08-07T07:55:26Z</time>
      </trkpt>
      <trkpt lat="42.95025" lon="0.27082">
        <ele>1072.2</ele>
        <time>2022-08-07T07:55:27Z</time>
      </trkpt>
      <trkpt lat="42.95031" lon="0.27084">
        <ele>1073.4</ele>
        <time>2022-08-07T07:55:32Z</time>
      </trkpt>
      <trkpt lat="42.95033" lon="0.27084">
        <ele>1073.8</ele>
        <time>2022-08-07T07:55:34Z</time>
      </trkpt>
      <trkpt lat="42.95034" lon="0.27085">
        <ele>1074</ele>
        <time>2022-08-07T07:55:35Z</time>
      </trkpt>
      <trkpt lat="42.95036" lon="0.27085">
        <ele>1074.4</ele>
        <time>2022-08-07T07:55:37Z</time>
      </trkpt>
      <trkpt lat="42.95039" lon="0.27087">
        <ele>1074.8</ele>
        <time>2022-08-07T07:55:40Z</time>
      </trkpt>
      <trkpt lat="42.95041" lon="0.27087">
        <ele>1075.4</ele>
        <time>2022-08-07T07:55:42Z</time>
      </trkpt>
      <trkpt lat="42.95046" lon="0.2709">
        <ele>1076.4</ele>
        <time>2022-08-07T07:55:47Z</time>
      </trkpt>
      <trkpt lat="42.95047" lon="0.2709">
        <ele>1076.6</ele>
        <time>2022-08-07T07:55:48Z</time>
      </trkpt>
      <trkpt lat="42.95048" lon="0.2709">
        <ele>1076.6</ele>
        <time>2022-08-07T07:55:49Z</time>
      </trkpt>
      <trkpt lat="42.95053" lon="0.27092">
        <ele>1077.4</ele>
        <time>2022-08-07T07:55:54Z</time>
      </trkpt>
      <trkpt lat="42.95054" lon="0.27091">
        <ele>1077.6</ele>
        <time>2022-08-07T07:55:55Z</time>
      </trkpt>
      <trkpt lat="42.9506" lon="0.27091">
        <ele>1078.8</ele>
        <time>2022-08-07T07:56:01Z</time>
      </trkpt>
      <trkpt lat="42.95062" lon="0.27091">
        <ele>1079</ele>
        <time>2022-08-07T07:56:02Z</time>
      </trkpt>
      <trkpt lat="42.95062" lon="0.27089">
        <ele>1079.2</ele>
        <time>2022-08-07T07:56:03Z</time>
      </trkpt>
      <trkpt lat="42.9507" lon="0.27087">
        <ele>1079.8</ele>
        <time>2022-08-07T07:56:09Z</time>
      </trkpt>
      <trkpt lat="42.95071" lon="0.27087">
        <ele>1080</ele>
        <time>2022-08-07T07:56:10Z</time>
      </trkpt>
      <trkpt lat="42.9508" lon="0.27089">
        <ele>1081</ele>
        <time>2022-08-07T07:56:16Z</time>
      </trkpt>
      <trkpt lat="42.95083" lon="0.27087">
        <ele>1081.6</ele>
        <time>2022-08-07T07:56:20Z</time>
      </trkpt>
      <trkpt lat="42.95088" lon="0.27086">
        <ele>1082.2</ele>
        <time>2022-08-07T07:56:23Z</time>
      </trkpt>
      <trkpt lat="42.95091" lon="0.27084">
        <ele>1082.8</ele>
        <time>2022-08-07T07:56:26Z</time>
      </trkpt>
      <trkpt lat="42.95095" lon="0.27087">
        <ele>1083</ele>
        <time>2022-08-07T07:56:29Z</time>
      </trkpt>
      <trkpt lat="42.95095" lon="0.27086">
        <ele>1083.2</ele>
        <time>2022-08-07T07:56:30Z</time>
      </trkpt>
      <trkpt lat="42.95104" lon="0.27086">
        <ele>1084</ele>
        <time>2022-08-07T07:56:36Z</time>
      </trkpt>
      <trkpt lat="42.95105" lon="0.27086">
        <ele>1084.2</ele>
        <time>2022-08-07T07:56:37Z</time>
      </trkpt>
      <trkpt lat="42.95107" lon="0.27084">
        <ele>1084.6</ele>
        <time>2022-08-07T07:56:40Z</time>
      </trkpt>
      <trkpt lat="42.9511" lon="0.27085">
        <ele>1084.8</ele>
        <time>2022-08-07T07:56:43Z</time>
      </trkpt>
      <trkpt lat="42.95114" lon="0.27085">
        <ele>1085</ele>
        <time>2022-08-07T07:56:46Z</time>
      </trkpt>
      <trkpt lat="42.95115" lon="0.27084">
        <ele>1085.4</ele>
        <time>2022-08-07T07:56:47Z</time>
      </trkpt>
      <trkpt lat="42.95118" lon="0.27085">
        <ele>1085.6</ele>
        <time>2022-08-07T07:56:49Z</time>
      </trkpt>
      <trkpt lat="42.95119" lon="0.27085">
        <ele>1085.8</ele>
        <time>2022-08-07T07:56:50Z</time>
      </trkpt>
      <trkpt lat="42.95125" lon="0.27085">
        <ele>1086</ele>
        <time>2022-08-07T07:56:54Z</time>
      </trkpt>
      <trkpt lat="42.9513" lon="0.27086">
        <ele>1086.6</ele>
        <time>2022-08-07T07:56:58Z</time>
      </trkpt>
      <trkpt lat="42.95138" lon="0.27085">
        <ele>1087.2</ele>
        <time>2022-08-07T07:57:03Z</time>
      </trkpt>
      <trkpt lat="42.95141" lon="0.27085">
        <ele>1087.6</ele>
        <time>2022-08-07T07:57:05Z</time>
      </trkpt>
      <trkpt lat="42.95142" lon="0.27085">
        <ele>1087.8</ele>
        <time>2022-08-07T07:57:06Z</time>
      </trkpt>
      <trkpt lat="42.95149" lon="0.27083">
        <ele>1088</ele>
        <time>2022-08-07T07:57:10Z</time>
      </trkpt>
      <trkpt lat="42.95153" lon="0.27081">
        <ele>1088.4</ele>
        <time>2022-08-07T07:57:13Z</time>
      </trkpt>
      <trkpt lat="42.95156" lon="0.27081">
        <ele>1088.6</ele>
        <time>2022-08-07T07:57:15Z</time>
      </trkpt>
      <trkpt lat="42.95157" lon="0.27081">
        <ele>1088.8</ele>
        <time>2022-08-07T07:57:16Z</time>
      </trkpt>
      <trkpt lat="42.95171" lon="0.27082">
        <ele>1089.6</ele>
        <time>2022-08-07T07:57:26Z</time>
      </trkpt>
      <trkpt lat="42.95185" lon="0.27083">
        <ele>1090.8</ele>
        <time>2022-08-07T07:57:35Z</time>
      </trkpt>
      <trkpt lat="42.95197" lon="0.27084">
        <ele>1091.8</ele>
        <time>2022-08-07T07:57:43Z</time>
      </trkpt>
      <trkpt lat="42.95208" lon="0.27088">
        <ele>1092.8</ele>
        <time>2022-08-07T07:57:52Z</time>
      </trkpt>
      <trkpt lat="42.9521" lon="0.27089">
        <ele>1093</ele>
        <time>2022-08-07T07:57:53Z</time>
      </trkpt>
      <trkpt lat="42.95218" lon="0.27093">
        <ele>1093.8</ele>
        <time>2022-08-07T07:58:00Z</time>
      </trkpt>
      <trkpt lat="42.9522" lon="0.27095">
        <ele>1094</ele>
        <time>2022-08-07T07:58:02Z</time>
      </trkpt>
      <trkpt lat="42.95227" lon="0.27098">
        <ele>1095.2</ele>
        <time>2022-08-07T07:58:08Z</time>
      </trkpt>
      <trkpt lat="42.95228" lon="0.27099">
        <ele>1095.2</ele>
        <time>2022-08-07T07:58:09Z</time>
      </trkpt>
      <trkpt lat="42.95238" lon="0.27107">
        <ele>1096.2</ele>
        <time>2022-08-07T07:58:16Z</time>
      </trkpt>
      <trkpt lat="42.9524" lon="0.27108">
        <ele>1096.2</ele>
        <time>2022-08-07T07:58:17Z</time>
      </trkpt>
      <trkpt lat="42.95251" lon="0.27117">
        <ele>1097</ele>
        <time>2022-08-07T07:58:25Z</time>
      </trkpt>
      <trkpt lat="42.95256" lon="0.27122">
        <ele>1097.2</ele>
        <time>2022-08-07T07:58:29Z</time>
      </trkpt>
      <trkpt lat="42.95265" lon="0.27131">
        <ele>1098</ele>
        <time>2022-08-07T07:58:36Z</time>
      </trkpt>
      <trkpt lat="42.95268" lon="0.27134">
        <ele>1098</ele>
        <time>2022-08-07T07:58:38Z</time>
      </trkpt>
      <trkpt lat="42.95273" lon="0.2714">
        <ele>1098.8</ele>
        <time>2022-08-07T07:58:43Z</time>
      </trkpt>
      <trkpt lat="42.95276" lon="0.27144">
        <ele>1099.4</ele>
        <time>2022-08-07T07:58:46Z</time>
      </trkpt>
      <trkpt lat="42.95283" lon="0.27156">
        <ele>1100</ele>
        <time>2022-08-07T07:58:53Z</time>
      </trkpt>
      <trkpt lat="42.95287" lon="0.27163">
        <ele>1100.4</ele>
        <time>2022-08-07T07:58:57Z</time>
      </trkpt>
      <trkpt lat="42.95292" lon="0.27171">
        <ele>1100.8</ele>
        <time>2022-08-07T07:59:02Z</time>
      </trkpt>
      <trkpt lat="42.95296" lon="0.27181">
        <ele>1101.6</ele>
        <time>2022-08-07T07:59:08Z</time>
      </trkpt>
      <trkpt lat="42.953" lon="0.27193">
        <ele>1102.4</ele>
        <time>2022-08-07T07:59:16Z</time>
      </trkpt>
      <trkpt lat="42.95301" lon="0.27195">
        <ele>1102.6</ele>
        <time>2022-08-07T07:59:17Z</time>
      </trkpt>
      <trkpt lat="42.95301" lon="0.27197">
        <ele>1102.8</ele>
        <time>2022-08-07T07:59:18Z</time>
      </trkpt>
      <trkpt lat="42.95303" lon="0.27206">
        <ele>1103.6</ele>
        <time>2022-08-07T07:59:23Z</time>
      </trkpt>
      <trkpt lat="42.95304" lon="0.2721">
        <ele>1104</ele>
        <time>2022-08-07T07:59:25Z</time>
      </trkpt>
      <trkpt lat="42.95306" lon="0.2722">
        <ele>1104.8</ele>
        <time>2022-08-07T07:59:31Z</time>
      </trkpt>
      <trkpt lat="42.95309" lon="0.27229">
        <ele>1105.4</ele>
        <time>2022-08-07T07:59:36Z</time>
      </trkpt>
      <trkpt lat="42.9531" lon="0.27232">
        <ele>1105.6</ele>
        <time>2022-08-07T07:59:38Z</time>
      </trkpt>
      <trkpt lat="42.95312" lon="0.27234">
        <ele>1105.8</ele>
        <time>2022-08-07T07:59:40Z</time>
      </trkpt>
      <trkpt lat="42.95314" lon="0.27239">
        <ele>1106.4</ele>
        <time>2022-08-07T07:59:43Z</time>
      </trkpt>
      <trkpt lat="42.95318" lon="0.27243">
        <ele>1107.2</ele>
        <time>2022-08-07T07:59:46Z</time>
      </trkpt>
      <trkpt lat="42.95326" lon="0.2725">
        <ele>1107.6</ele>
        <time>2022-08-07T07:59:51Z</time>
      </trkpt>
      <trkpt lat="42.95333" lon="0.27256">
        <ele>1108</ele>
        <time>2022-08-07T07:59:56Z</time>
      </trkpt>
      <trkpt lat="42.95337" lon="0.27258">
        <ele>1108.2</ele>
        <time>2022-08-07T07:59:58Z</time>
      </trkpt>
      <trkpt lat="42.95343" lon="0.27262">
        <ele>1108.4</ele>
        <time>2022-08-07T08:00:03Z</time>
      </trkpt>
      <trkpt lat="42.95354" lon="0.27269">
        <ele>1109</ele>
        <time>2022-08-07T08:00:10Z</time>
      </trkpt>
      <trkpt lat="42.95355" lon="0.2727">
        <ele>1109.2</ele>
        <time>2022-08-07T08:00:11Z</time>
      </trkpt>
      <trkpt lat="42.95362" lon="0.27274">
        <ele>1109.8</ele>
        <time>2022-08-07T08:00:16Z</time>
      </trkpt>
      <trkpt lat="42.95363" lon="0.27275">
        <ele>1110</ele>
        <time>2022-08-07T08:00:17Z</time>
      </trkpt>
      <trkpt lat="42.95364" lon="0.27276">
        <ele>1110</ele>
        <time>2022-08-07T08:00:18Z</time>
      </trkpt>
      <trkpt lat="42.95365" lon="0.27278">
        <ele>1110</ele>
        <time>2022-08-07T08:00:19Z</time>
      </trkpt>
      <trkpt lat="42.95367" lon="0.27282">
        <ele>1110.2</ele>
        <time>2022-08-07T08:00:22Z</time>
      </trkpt>
      <trkpt lat="42.95372" lon="0.27291">
        <ele>1111</ele>
        <time>2022-08-07T08:00:28Z</time>
      </trkpt>
      <trkpt lat="42.95373" lon="0.27295">
        <ele>1111.2</ele>
        <time>2022-08-07T08:00:30Z</time>
      </trkpt>
      <trkpt lat="42.95377" lon="0.27305">
        <ele>1111.8</ele>
        <time>2022-08-07T08:00:36Z</time>
      </trkpt>
      <trkpt lat="42.95378" lon="0.27306">
        <ele>1112</ele>
        <time>2022-08-07T08:00:37Z</time>
      </trkpt>
      <trkpt lat="42.95382" lon="0.27313">
        <ele>1112.8</ele>
        <time>2022-08-07T08:00:42Z</time>
      </trkpt>
      <trkpt lat="42.95383" lon="0.27317">
        <ele>1113.2</ele>
        <time>2022-08-07T08:00:44Z</time>
      </trkpt>
      <trkpt lat="42.95387" lon="0.27328">
        <ele>1114.2</ele>
        <time>2022-08-07T08:00:50Z</time>
      </trkpt>
      <trkpt lat="42.95388" lon="0.27331">
        <ele>1114.4</ele>
        <time>2022-08-07T08:00:52Z</time>
      </trkpt>
      <trkpt lat="42.95389" lon="0.27348">
        <ele>1115.2</ele>
        <time>2022-08-07T08:01:00Z</time>
      </trkpt>
      <trkpt lat="42.95389" lon="0.27351">
        <ele>1115.2</ele>
        <time>2022-08-07T08:01:01Z</time>
      </trkpt>
      <trkpt lat="42.95386" lon="0.27365">
        <ele>1116.2</ele>
        <time>2022-08-07T08:01:09Z</time>
      </trkpt>
      <trkpt lat="42.95386" lon="0.27367">
        <ele>1116.2</ele>
        <time>2022-08-07T08:01:10Z</time>
      </trkpt>
      <trkpt lat="42.95383" lon="0.27381">
        <ele>1117</ele>
        <time>2022-08-07T08:01:18Z</time>
      </trkpt>
      <trkpt lat="42.9538" lon="0.27399">
        <ele>1118.2</ele>
        <time>2022-08-07T08:01:26Z</time>
      </trkpt>
      <trkpt lat="42.95379" lon="0.27401">
        <ele>1118.4</ele>
        <time>2022-08-07T08:01:27Z</time>
      </trkpt>
      <trkpt lat="42.95377" lon="0.27417">
        <ele>1119.4</ele>
        <time>2022-08-07T08:01:34Z</time>
      </trkpt>
      <trkpt lat="42.95377" lon="0.27419">
        <ele>1119.4</ele>
        <time>2022-08-07T08:01:35Z</time>
      </trkpt>
      <trkpt lat="42.95375" lon="0.27431">
        <ele>1120</ele>
        <time>2022-08-07T08:01:42Z</time>
      </trkpt>
      <trkpt lat="42.95375" lon="0.27433">
        <ele>1120.2</ele>
        <time>2022-08-07T08:01:43Z</time>
      </trkpt>
      <trkpt lat="42.95375" lon="0.27442">
        <ele>1121.2</ele>
        <time>2022-08-07T08:01:49Z</time>
      </trkpt>
      <trkpt lat="42.95376" lon="0.27443">
        <ele>1121.2</ele>
        <time>2022-08-07T08:01:50Z</time>
      </trkpt>
      <trkpt lat="42.95376" lon="0.27448">
        <ele>1122.2</ele>
        <time>2022-08-07T08:01:53Z</time>
      </trkpt>
      <trkpt lat="42.95378" lon="0.27456">
        <ele>1123</ele>
        <time>2022-08-07T08:01:58Z</time>
      </trkpt>
      <trkpt lat="42.95379" lon="0.27459">
        <ele>1123.2</ele>
        <time>2022-08-07T08:02:00Z</time>
      </trkpt>
      <trkpt lat="42.95383" lon="0.27469">
        <ele>1124.4</ele>
        <time>2022-08-07T08:02:07Z</time>
      </trkpt>
      <trkpt lat="42.95385" lon="0.27471">
        <ele>1124.6</ele>
        <time>2022-08-07T08:02:09Z</time>
      </trkpt>
      <trkpt lat="42.95385" lon="0.27471">
        <ele>1124.6</ele>
        <time>2022-08-07T08:02:10Z</time>
      </trkpt>
      <trkpt lat="42.95389" lon="0.27475">
        <ele>1125.4</ele>
        <time>2022-08-07T08:02:14Z</time>
      </trkpt>
      <trkpt lat="42.95399" lon="0.27482">
        <ele>1126.4</ele>
        <time>2022-08-07T08:02:22Z</time>
      </trkpt>
      <trkpt lat="42.95402" lon="0.27483">
        <ele>1126.6</ele>
        <time>2022-08-07T08:02:24Z</time>
      </trkpt>
      <trkpt lat="42.95403" lon="0.27483">
        <ele>1126.8</ele>
        <time>2022-08-07T08:02:25Z</time>
      </trkpt>
      <trkpt lat="42.9541" lon="0.27487">
        <ele>1127.2</ele>
        <time>2022-08-07T08:02:29Z</time>
      </trkpt>
      <trkpt lat="42.95411" lon="0.27489">
        <ele>1127.4</ele>
        <time>2022-08-07T08:02:30Z</time>
      </trkpt>
      <trkpt lat="42.95421" lon="0.27493">
        <ele>1128.4</ele>
        <time>2022-08-07T08:02:38Z</time>
      </trkpt>
      <trkpt lat="42.95424" lon="0.27494">
        <ele>1128.6</ele>
        <time>2022-08-07T08:02:40Z</time>
      </trkpt>
      <trkpt lat="42.95428" lon="0.27498">
        <ele>1129</ele>
        <time>2022-08-07T08:02:43Z</time>
      </trkpt>
      <trkpt lat="42.95429" lon="0.27499">
        <ele>1129.2</ele>
        <time>2022-08-07T08:02:44Z</time>
      </trkpt>
      <trkpt lat="42.95432" lon="0.27501">
        <ele>1129.6</ele>
        <time>2022-08-07T08:02:47Z</time>
      </trkpt>
      <trkpt lat="42.9544" lon="0.27504">
        <ele>1130.4</ele>
        <time>2022-08-07T08:02:53Z</time>
      </trkpt>
      <trkpt lat="42.95442" lon="0.27508">
        <ele>1130.6</ele>
        <time>2022-08-07T08:02:55Z</time>
      </trkpt>
      <trkpt lat="42.95446" lon="0.27508">
        <ele>1131</ele>
        <time>2022-08-07T08:02:57Z</time>
      </trkpt>
      <trkpt lat="42.9545" lon="0.2751">
        <ele>1131.4</ele>
        <time>2022-08-07T08:03:00Z</time>
      </trkpt>
      <trkpt lat="42.95451" lon="0.2751">
        <ele>1131.6</ele>
        <time>2022-08-07T08:03:01Z</time>
      </trkpt>
      <trkpt lat="42.95452" lon="0.27511">
        <ele>1131.6</ele>
        <time>2022-08-07T08:03:02Z</time>
      </trkpt>
      <trkpt lat="42.95457" lon="0.27516">
        <ele>1132.4</ele>
        <time>2022-08-07T08:03:07Z</time>
      </trkpt>
      <trkpt lat="42.95459" lon="0.27517">
        <ele>1132.6</ele>
        <time>2022-08-07T08:03:09Z</time>
      </trkpt>
      <trkpt lat="42.95462" lon="0.27521">
        <ele>1133.2</ele>
        <time>2022-08-07T08:03:12Z</time>
      </trkpt>
      <trkpt lat="42.95462" lon="0.27524">
        <ele>1133.6</ele>
        <time>2022-08-07T08:03:14Z</time>
      </trkpt>
      <trkpt lat="42.95464" lon="0.27526">
        <ele>1133.8</ele>
        <time>2022-08-07T08:03:16Z</time>
      </trkpt>
      <trkpt lat="42.95464" lon="0.27528">
        <ele>1133.8</ele>
        <time>2022-08-07T08:03:17Z</time>
      </trkpt>
      <trkpt lat="42.95467" lon="0.27531">
        <ele>1134</ele>
        <time>2022-08-07T08:03:20Z</time>
      </trkpt>
      <trkpt lat="42.95469" lon="0.27539">
        <ele>1134.8</ele>
        <time>2022-08-07T08:03:26Z</time>
      </trkpt>
      <trkpt lat="42.95471" lon="0.27543">
        <ele>1135.4</ele>
        <time>2022-08-07T08:03:29Z</time>
      </trkpt>
      <trkpt lat="42.95471" lon="0.27549">
        <ele>1135.6</ele>
        <time>2022-08-07T08:03:33Z</time>
      </trkpt>
      <trkpt lat="42.95473" lon="0.27554">
        <ele>1136.2</ele>
        <time>2022-08-07T08:03:36Z</time>
      </trkpt>
      <trkpt lat="42.95473" lon="0.27555">
        <ele>1136.2</ele>
        <time>2022-08-07T08:03:37Z</time>
      </trkpt>
      <trkpt lat="42.95473" lon="0.2756">
        <ele>1136.8</ele>
        <time>2022-08-07T08:03:40Z</time>
      </trkpt>
      <trkpt lat="42.95471" lon="0.27568">
        <ele>1137.2</ele>
        <time>2022-08-07T08:03:44Z</time>
      </trkpt>
      <trkpt lat="42.95463" lon="0.27578">
        <ele>1137.8</ele>
        <time>2022-08-07T08:03:51Z</time>
      </trkpt>
      <trkpt lat="42.95462" lon="0.27578">
        <ele>1138</ele>
        <time>2022-08-07T08:03:52Z</time>
      </trkpt>
      <trkpt lat="42.95453" lon="0.27579">
        <ele>1138.6</ele>
        <time>2022-08-07T08:03:59Z</time>
      </trkpt>
      <trkpt lat="42.95448" lon="0.27579">
        <ele>1138.6</ele>
        <time>2022-08-07T08:04:03Z</time>
      </trkpt>
      <trkpt lat="42.95445" lon="0.27578">
        <ele>1138.8</ele>
        <time>2022-08-07T08:04:05Z</time>
      </trkpt>
      <trkpt lat="42.95444" lon="0.27578">
        <ele>1139</ele>
        <time>2022-08-07T08:04:06Z</time>
      </trkpt>
      <trkpt lat="42.95434" lon="0.27576">
        <ele>1140</ele>
        <time>2022-08-07T08:04:14Z</time>
      </trkpt>
      <trkpt lat="42.95431" lon="0.27575">
        <ele>1140.2</ele>
        <time>2022-08-07T08:04:16Z</time>
      </trkpt>
      <trkpt lat="42.95421" lon="0.27572">
        <ele>1141</ele>
        <time>2022-08-07T08:04:23Z</time>
      </trkpt>
      <trkpt lat="42.95418" lon="0.27572">
        <ele>1141.2</ele>
        <time>2022-08-07T08:04:25Z</time>
      </trkpt>
      <trkpt lat="42.95416" lon="0.27571">
        <ele>1141.6</ele>
        <time>2022-08-07T08:04:27Z</time>
      </trkpt>
      <trkpt lat="42.95412" lon="0.27569">
        <ele>1142</ele>
        <time>2022-08-07T08:04:30Z</time>
      </trkpt>
      <trkpt lat="42.9541" lon="0.27568">
        <ele>1142.4</ele>
        <time>2022-08-07T08:04:32Z</time>
      </trkpt>
      <trkpt lat="42.95402" lon="0.27565">
        <ele>1143.2</ele>
        <time>2022-08-07T08:04:38Z</time>
      </trkpt>
      <trkpt lat="42.95399" lon="0.27564">
        <ele>1143.4</ele>
        <time>2022-08-07T08:04:40Z</time>
      </trkpt>
      <trkpt lat="42.95391" lon="0.2756">
        <ele>1144.2</ele>
        <time>2022-08-07T08:04:47Z</time>
      </trkpt>
      <trkpt lat="42.9539" lon="0.27559">
        <ele>1144.4</ele>
        <time>2022-08-07T08:04:48Z</time>
      </trkpt>
      <trkpt lat="42.95381" lon="0.27556">
        <ele>1145.4</ele>
        <time>2022-08-07T08:04:55Z</time>
      </trkpt>
      <trkpt lat="42.95375" lon="0.27554">
        <ele>1145.8</ele>
        <time>2022-08-07T08:04:59Z</time>
      </trkpt>
      <trkpt lat="42.95367" lon="0.2755">
        <ele>1146.4</ele>
        <time>2022-08-07T08:05:05Z</time>
      </trkpt>
      <trkpt lat="42.95365" lon="0.27549">
        <ele>1146.4</ele>
        <time>2022-08-07T08:05:07Z</time>
      </trkpt>
      <trkpt lat="42.95362" lon="0.27546">
        <ele>1147</ele>
        <time>2022-08-07T08:05:10Z</time>
      </trkpt>
      <trkpt lat="42.9536" lon="0.27544">
        <ele>1147.4</ele>
        <time>2022-08-07T08:05:12Z</time>
      </trkpt>
      <trkpt lat="42.95357" lon="0.27543">
        <ele>1147.8</ele>
        <time>2022-08-07T08:05:14Z</time>
      </trkpt>
      <trkpt lat="42.95353" lon="0.27538">
        <ele>1148.4</ele>
        <time>2022-08-07T08:05:19Z</time>
      </trkpt>
      <trkpt lat="42.9535" lon="0.27534">
        <ele>1148.8</ele>
        <time>2022-08-07T08:05:22Z</time>
      </trkpt>
      <trkpt lat="42.95344" lon="0.27528">
        <ele>1149.4</ele>
        <time>2022-08-07T08:05:28Z</time>
      </trkpt>
      <trkpt lat="42.95343" lon="0.27527">
        <ele>1149.6</ele>
        <time>2022-08-07T08:05:29Z</time>
      </trkpt>
      <trkpt lat="42.95343" lon="0.27526">
        <ele>1149.6</ele>
        <time>2022-08-07T08:05:30Z</time>
      </trkpt>
      <trkpt lat="42.95335" lon="0.27521">
        <ele>1150.6</ele>
        <time>2022-08-07T08:05:37Z</time>
      </trkpt>
      <trkpt lat="42.95331" lon="0.27517">
        <ele>1151.4</ele>
        <time>2022-08-07T08:05:44Z</time>
      </trkpt>
      <trkpt lat="42.9533" lon="0.27516">
        <ele>1151.4</ele>
        <time>2022-08-07T08:05:45Z</time>
      </trkpt>
      <trkpt lat="42.95327" lon="0.27511">
        <ele>1151.8</ele>
        <time>2022-08-07T08:05:48Z</time>
      </trkpt>
      <trkpt lat="42.95324" lon="0.27508">
        <ele>1152</ele>
        <time>2022-08-07T08:05:50Z</time>
      </trkpt>
      <trkpt lat="42.95319" lon="0.27502">
        <ele>1152.6</ele>
        <time>2022-08-07T08:05:53Z</time>
      </trkpt>
      <trkpt lat="42.95315" lon="0.27495">
        <ele>1153.4</ele>
        <time>2022-08-07T08:05:57Z</time>
      </trkpt>
      <trkpt lat="42.95313" lon="0.27489">
        <ele>1153.6</ele>
        <time>2022-08-07T08:06:00Z</time>
      </trkpt>
      <trkpt lat="42.95312" lon="0.27487">
        <ele>1153.8</ele>
        <time>2022-08-07T08:06:01Z</time>
      </trkpt>
      <trkpt lat="42.9531" lon="0.27479">
        <ele>1154.4</ele>
        <time>2022-08-07T08:06:04Z</time>
      </trkpt>
      <trkpt lat="42.95306" lon="0.27474">
        <ele>1154.8</ele>
        <time>2022-08-07T08:06:07Z</time>
      </trkpt>
      <trkpt lat="42.95303" lon="0.27466">
        <ele>1155.2</ele>
        <time>2022-08-07T08:06:11Z</time>
      </trkpt>
      <trkpt lat="42.95302" lon="0.27464">
        <ele>1155.4</ele>
        <time>2022-08-07T08:06:12Z</time>
      </trkpt>
      <trkpt lat="42.95302" lon="0.27461">
        <ele>1155.6</ele>
        <time>2022-08-07T08:06:15Z</time>
      </trkpt>
      <trkpt lat="42.95299" lon="0.27455">
        <ele>1156.2</ele>
        <time>2022-08-07T08:06:19Z</time>
      </trkpt>
      <trkpt lat="42.95295" lon="0.27445">
        <ele>1156.8</ele>
        <time>2022-08-07T08:06:24Z</time>
      </trkpt>
      <trkpt lat="42.95295" lon="0.27442">
        <ele>1156.8</ele>
        <time>2022-08-07T08:06:26Z</time>
      </trkpt>
      <trkpt lat="42.95291" lon="0.27432">
        <ele>1157.6</ele>
        <time>2022-08-07T08:06:32Z</time>
      </trkpt>
      <trkpt lat="42.95289" lon="0.27425">
        <ele>1158.8</ele>
        <time>2022-08-07T08:06:39Z</time>
      </trkpt>
      <trkpt lat="42.95289" lon="0.27424">
        <ele>1158.8</ele>
        <time>2022-08-07T08:06:40Z</time>
      </trkpt>
      <trkpt lat="42.95284" lon="0.27415">
        <ele>1160</ele>
        <time>2022-08-07T08:06:48Z</time>
      </trkpt>
      <trkpt lat="42.95283" lon="0.27412">
        <ele>1160.4</ele>
        <time>2022-08-07T08:06:50Z</time>
      </trkpt>
      <trkpt lat="42.9528" lon="0.27409">
        <ele>1160.6</ele>
        <time>2022-08-07T08:06:53Z</time>
      </trkpt>
      <trkpt lat="42.95278" lon="0.27403">
        <ele>1161</ele>
        <time>2022-08-07T08:06:57Z</time>
      </trkpt>
      <trkpt lat="42.95274" lon="0.27396">
        <ele>1161.6</ele>
        <time>2022-08-07T08:07:01Z</time>
      </trkpt>
      <trkpt lat="42.9527" lon="0.27391">
        <ele>1162</ele>
        <time>2022-08-07T08:07:05Z</time>
      </trkpt>
      <trkpt lat="42.95266" lon="0.27386">
        <ele>1162.4</ele>
        <time>2022-08-07T08:07:08Z</time>
      </trkpt>
      <trkpt lat="42.95261" lon="0.27381">
        <ele>1163.2</ele>
        <time>2022-08-07T08:07:13Z</time>
      </trkpt>
      <trkpt lat="42.9526" lon="0.2738">
        <ele>1163.2</ele>
        <time>2022-08-07T08:07:14Z</time>
      </trkpt>
      <trkpt lat="42.95255" lon="0.27375">
        <ele>1164.2</ele>
        <time>2022-08-07T08:07:22Z</time>
      </trkpt>
      <trkpt lat="42.95254" lon="0.27374">
        <ele>1164.2</ele>
        <time>2022-08-07T08:07:23Z</time>
      </trkpt>
      <trkpt lat="42.95249" lon="0.27371">
        <ele>1164.8</ele>
        <time>2022-08-07T08:07:26Z</time>
      </trkpt>
      <trkpt lat="42.95245" lon="0.27368">
        <ele>1164.8</ele>
        <time>2022-08-07T08:07:29Z</time>
      </trkpt>
      <trkpt lat="42.95241" lon="0.27364">
        <ele>1165</ele>
        <time>2022-08-07T08:07:32Z</time>
      </trkpt>
      <trkpt lat="42.95237" lon="0.27361">
        <ele>1165.2</ele>
        <time>2022-08-07T08:07:35Z</time>
      </trkpt>
      <trkpt lat="42.95234" lon="0.27359">
        <ele>1165.4</ele>
        <time>2022-08-07T08:07:37Z</time>
      </trkpt>
      <trkpt lat="42.95225" lon="0.2735">
        <ele>1166.2</ele>
        <time>2022-08-07T08:07:44Z</time>
      </trkpt>
      <trkpt lat="42.95224" lon="0.27349">
        <ele>1166.4</ele>
        <time>2022-08-07T08:07:45Z</time>
      </trkpt>
      <trkpt lat="42.95213" lon="0.27345">
        <ele>1167.2</ele>
        <time>2022-08-07T08:07:53Z</time>
      </trkpt>
      <trkpt lat="42.95208" lon="0.27344">
        <ele>1167.8</ele>
        <time>2022-08-07T08:07:57Z</time>
      </trkpt>
      <trkpt lat="42.95202" lon="0.27343">
        <ele>1168.2</ele>
        <time>2022-08-07T08:08:02Z</time>
      </trkpt>
      <trkpt lat="42.95201" lon="0.27342">
        <ele>1168.2</ele>
        <time>2022-08-07T08:08:03Z</time>
      </trkpt>
      <trkpt lat="42.95194" lon="0.27341">
        <ele>1169</ele>
        <time>2022-08-07T08:08:08Z</time>
      </trkpt>
      <trkpt lat="42.95191" lon="0.2734">
        <ele>1169.2</ele>
        <time>2022-08-07T08:08:10Z</time>
      </trkpt>
      <trkpt lat="42.95189" lon="0.27339">
        <ele>1169.4</ele>
        <time>2022-08-07T08:08:12Z</time>
      </trkpt>
      <trkpt lat="42.95182" lon="0.27338">
        <ele>1170</ele>
        <time>2022-08-07T08:08:17Z</time>
      </trkpt>
      <trkpt lat="42.9518" lon="0.27338">
        <ele>1170</ele>
        <time>2022-08-07T08:08:18Z</time>
      </trkpt>
      <trkpt lat="42.95169" lon="0.27336">
        <ele>1170.6</ele>
        <time>2022-08-07T08:08:25Z</time>
      </trkpt>
      <trkpt lat="42.95165" lon="0.27337">
        <ele>1170.8</ele>
        <time>2022-08-07T08:08:28Z</time>
      </trkpt>
      <trkpt lat="42.95162" lon="0.27337">
        <ele>1171</ele>
        <time>2022-08-07T08:08:30Z</time>
      </trkpt>
      <trkpt lat="42.9516" lon="0.27338">
        <ele>1171.4</ele>
        <time>2022-08-07T08:08:32Z</time>
      </trkpt>
      <trkpt lat="42.95158" lon="0.27339">
        <ele>1171.6</ele>
        <time>2022-08-07T08:08:34Z</time>
      </trkpt>
      <trkpt lat="42.95156" lon="0.27341">
        <ele>1172</ele>
        <time>2022-08-07T08:08:38Z</time>
      </trkpt>
      <trkpt lat="42.95156" lon="0.27341">
        <ele>1172.2</ele>
        <time>2022-08-07T08:08:48Z</time>
      </trkpt>
      <trkpt lat="42.9515" lon="0.27346">
        <ele>1172.6</ele>
        <time>2022-08-07T08:09:54Z</time>
      </trkpt>
      <trkpt lat="42.95144" lon="0.2735">
        <ele>1173</ele>
        <time>2022-08-07T08:09:59Z</time>
      </trkpt>
      <trkpt lat="42.95143" lon="0.27351">
        <ele>1173</ele>
        <time>2022-08-07T08:10:00Z</time>
      </trkpt>
      <trkpt lat="42.95141" lon="0.27352">
        <ele>1173.2</ele>
        <time>2022-08-07T08:10:01Z</time>
      </trkpt>
      <trkpt lat="42.95135" lon="0.27355">
        <ele>1173.8</ele>
        <time>2022-08-07T08:10:06Z</time>
      </trkpt>
      <trkpt lat="42.95134" lon="0.27356">
        <ele>1174</ele>
        <time>2022-08-07T08:10:07Z</time>
      </trkpt>
      <trkpt lat="42.95131" lon="0.27357">
        <ele>1174.4</ele>
        <time>2022-08-07T08:10:09Z</time>
      </trkpt>
      <trkpt lat="42.95128" lon="0.27357">
        <ele>1174.8</ele>
        <time>2022-08-07T08:10:11Z</time>
      </trkpt>
      <trkpt lat="42.95126" lon="0.27357">
        <ele>1175</ele>
        <time>2022-08-07T08:10:12Z</time>
      </trkpt>
      <trkpt lat="42.95124" lon="0.27358">
        <ele>1175.2</ele>
        <time>2022-08-07T08:10:13Z</time>
      </trkpt>
      <trkpt lat="42.95113" lon="0.27363">
        <ele>1175.8</ele>
        <time>2022-08-07T08:10:21Z</time>
      </trkpt>
      <trkpt lat="42.95109" lon="0.27365">
        <ele>1176.4</ele>
        <time>2022-08-07T08:10:24Z</time>
      </trkpt>
      <trkpt lat="42.95103" lon="0.27366">
        <ele>1177</ele>
        <time>2022-08-07T08:10:29Z</time>
      </trkpt>
      <trkpt lat="42.95099" lon="0.27367">
        <ele>1177.4</ele>
        <time>2022-08-07T08:10:32Z</time>
      </trkpt>
      <trkpt lat="42.95097" lon="0.27368">
        <ele>1177.6</ele>
        <time>2022-08-07T08:10:34Z</time>
      </trkpt>
      <trkpt lat="42.95094" lon="0.27371">
        <ele>1177.8</ele>
        <time>2022-08-07T08:10:37Z</time>
      </trkpt>
      <trkpt lat="42.95091" lon="0.27374">
        <ele>1178</ele>
        <time>2022-08-07T08:10:40Z</time>
      </trkpt>
      <trkpt lat="42.95087" lon="0.27376">
        <ele>1178.4</ele>
        <time>2022-08-07T08:10:43Z</time>
      </trkpt>
      <trkpt lat="42.95085" lon="0.27377">
        <ele>1178.6</ele>
        <time>2022-08-07T08:10:45Z</time>
      </trkpt>
      <trkpt lat="42.95074" lon="0.27378">
        <ele>1179.4</ele>
        <time>2022-08-07T08:10:53Z</time>
      </trkpt>
      <trkpt lat="42.95065" lon="0.27376">
        <ele>1180.6</ele>
        <time>2022-08-07T08:11:00Z</time>
      </trkpt>
      <trkpt lat="42.95061" lon="0.27374">
        <ele>1181.4</ele>
        <time>2022-08-07T08:11:04Z</time>
      </trkpt>
      <trkpt lat="42.95059" lon="0.27374">
        <ele>1181.6</ele>
        <time>2022-08-07T08:11:06Z</time>
      </trkpt>
      <trkpt lat="42.95057" lon="0.27374">
        <ele>1181.8</ele>
        <time>2022-08-07T08:11:08Z</time>
      </trkpt>
      <trkpt lat="42.95051" lon="0.27372">
        <ele>1182.4</ele>
        <time>2022-08-07T08:11:12Z</time>
      </trkpt>
      <trkpt lat="42.95048" lon="0.27372">
        <ele>1182.6</ele>
        <time>2022-08-07T08:11:15Z</time>
      </trkpt>
      <trkpt lat="42.95046" lon="0.27372">
        <ele>1182.6</ele>
        <time>2022-08-07T08:11:16Z</time>
      </trkpt>
      <trkpt lat="42.95043" lon="0.27371">
        <ele>1183.2</ele>
        <time>2022-08-07T08:11:19Z</time>
      </trkpt>
      <trkpt lat="42.95041" lon="0.27371">
        <ele>1183.4</ele>
        <time>2022-08-07T08:11:20Z</time>
      </trkpt>
      <trkpt lat="42.95038" lon="0.27369">
        <ele>1183.6</ele>
        <time>2022-08-07T08:11:23Z</time>
      </trkpt>
      <trkpt lat="42.95033" lon="0.27368">
        <ele>1184</ele>
        <time>2022-08-07T08:11:26Z</time>
      </trkpt>
      <trkpt lat="42.95027" lon="0.27366">
        <ele>1184.6</ele>
        <time>2022-08-07T08:11:31Z</time>
      </trkpt>
      <trkpt lat="42.95026" lon="0.27366">
        <ele>1184.6</ele>
        <time>2022-08-07T08:11:32Z</time>
      </trkpt>
      <trkpt lat="42.95026" lon="0.27366">
        <ele>1184.6</ele>
        <time>2022-08-07T08:11:33Z</time>
      </trkpt>
      <trkpt lat="42.95024" lon="0.27367">
        <ele>1184.8</ele>
        <time>2022-08-07T08:11:34Z</time>
      </trkpt>
      <trkpt lat="42.95017" lon="0.27365">
        <ele>1185.2</ele>
        <time>2022-08-07T08:11:39Z</time>
      </trkpt>
      <trkpt lat="42.95014" lon="0.27365">
        <ele>1185.4</ele>
        <time>2022-08-07T08:11:42Z</time>
      </trkpt>
      <trkpt lat="42.95011" lon="0.27365">
        <ele>1185.6</ele>
        <time>2022-08-07T08:11:44Z</time>
      </trkpt>
      <trkpt lat="42.95005" lon="0.27363">
        <ele>1186.2</ele>
        <time>2022-08-07T08:11:48Z</time>
      </trkpt>
      <trkpt lat="42.95003" lon="0.27362">
        <ele>1186.4</ele>
        <time>2022-08-07T08:11:50Z</time>
      </trkpt>
      <trkpt lat="42.95001" lon="0.27362">
        <ele>1186.6</ele>
        <time>2022-08-07T08:11:51Z</time>
      </trkpt>
      <trkpt lat="42.94991" lon="0.27363">
        <ele>1187.8</ele>
        <time>2022-08-07T08:11:58Z</time>
      </trkpt>
      <trkpt lat="42.94989" lon="0.27363">
        <ele>1188</ele>
        <time>2022-08-07T08:12:00Z</time>
      </trkpt>
      <trkpt lat="42.94984" lon="0.27361">
        <ele>1188.4</ele>
        <time>2022-08-07T08:12:04Z</time>
      </trkpt>
      <trkpt lat="42.94981" lon="0.27362">
        <ele>1188.8</ele>
        <time>2022-08-07T08:12:06Z</time>
      </trkpt>
      <trkpt lat="42.9498" lon="0.27361">
        <ele>1188.8</ele>
        <time>2022-08-07T08:12:07Z</time>
      </trkpt>
      <trkpt lat="42.94973" lon="0.27361">
        <ele>1189.2</ele>
        <time>2022-08-07T08:12:12Z</time>
      </trkpt>
      <trkpt lat="42.94964" lon="0.27357">
        <ele>1189.8</ele>
        <time>2022-08-07T08:12:19Z</time>
      </trkpt>
      <trkpt lat="42.94963" lon="0.27356">
        <ele>1190</ele>
        <time>2022-08-07T08:12:20Z</time>
      </trkpt>
      <trkpt lat="42.94959" lon="0.27353">
        <ele>1190.2</ele>
        <time>2022-08-07T08:12:23Z</time>
      </trkpt>
      <trkpt lat="42.94957" lon="0.27354">
        <ele>1190.4</ele>
        <time>2022-08-07T08:12:25Z</time>
      </trkpt>
      <trkpt lat="42.94952" lon="0.27352">
        <ele>1190.8</ele>
        <time>2022-08-07T08:12:28Z</time>
      </trkpt>
      <trkpt lat="42.94945" lon="0.27352">
        <ele>1191</ele>
        <time>2022-08-07T08:12:32Z</time>
      </trkpt>
      <trkpt lat="42.94943" lon="0.27352">
        <ele>1191.2</ele>
        <time>2022-08-07T08:12:34Z</time>
      </trkpt>
      <trkpt lat="42.94938" lon="0.27351">
        <ele>1191.8</ele>
        <time>2022-08-07T08:12:39Z</time>
      </trkpt>
      <trkpt lat="42.94936" lon="0.2735">
        <ele>1192</ele>
        <time>2022-08-07T08:12:41Z</time>
      </trkpt>
      <trkpt lat="42.94931" lon="0.27349">
        <ele>1192.2</ele>
        <time>2022-08-07T08:12:46Z</time>
      </trkpt>
      <trkpt lat="42.94925" lon="0.27347">
        <ele>1192.8</ele>
        <time>2022-08-07T08:12:51Z</time>
      </trkpt>
      <trkpt lat="42.94923" lon="0.27346">
        <ele>1192.8</ele>
        <time>2022-08-07T08:12:52Z</time>
      </trkpt>
      <trkpt lat="42.94921" lon="0.27345">
        <ele>1192.8</ele>
        <time>2022-08-07T08:12:53Z</time>
      </trkpt>
      <trkpt lat="42.94915" lon="0.27344">
        <ele>1193.2</ele>
        <time>2022-08-07T08:12:57Z</time>
      </trkpt>
      <trkpt lat="42.94915" lon="0.27344">
        <ele>1193.2</ele>
        <time>2022-08-07T08:12:58Z</time>
      </trkpt>
      <trkpt lat="42.94913" lon="0.27344">
        <ele>1193.4</ele>
        <time>2022-08-07T08:13:00Z</time>
      </trkpt>
      <trkpt lat="42.9491" lon="0.27344">
        <ele>1193.6</ele>
        <time>2022-08-07T08:13:02Z</time>
      </trkpt>
      <trkpt lat="42.94908" lon="0.27343">
        <ele>1193.8</ele>
        <time>2022-08-07T08:13:04Z</time>
      </trkpt>
      <trkpt lat="42.94903" lon="0.27342">
        <ele>1194.2</ele>
        <time>2022-08-07T08:13:07Z</time>
      </trkpt>
      <trkpt lat="42.94897" lon="0.27344">
        <ele>1194.8</ele>
        <time>2022-08-07T08:13:12Z</time>
      </trkpt>
      <trkpt lat="42.94892" lon="0.27341">
        <ele>1195</ele>
        <time>2022-08-07T08:13:15Z</time>
      </trkpt>
      <trkpt lat="42.94888" lon="0.27334">
        <ele>1195.6</ele>
        <time>2022-08-07T08:13:18Z</time>
      </trkpt>
      <trkpt lat="42.94881" lon="0.27334">
        <ele>1195.8</ele>
        <time>2022-08-07T08:13:21Z</time>
      </trkpt>
      <trkpt lat="42.9488" lon="0.27335">
        <ele>1195.8</ele>
        <time>2022-08-07T08:13:22Z</time>
      </trkpt>
      <trkpt lat="42.94874" lon="0.27338">
        <ele>1196.4</ele>
        <time>2022-08-07T08:13:27Z</time>
      </trkpt>
      <trkpt lat="42.94873" lon="0.27338">
        <ele>1196.4</ele>
        <time>2022-08-07T08:13:28Z</time>
      </trkpt>
      <trkpt lat="42.94867" lon="0.2734">
        <ele>1196.8</ele>
        <time>2022-08-07T08:13:33Z</time>
      </trkpt>
      <trkpt lat="42.94866" lon="0.27341">
        <ele>1197</ele>
        <time>2022-08-07T08:13:34Z</time>
      </trkpt>
      <trkpt lat="42.94862" lon="0.2734">
        <ele>1197.2</ele>
        <time>2022-08-07T08:13:36Z</time>
      </trkpt>
      <trkpt lat="42.94861" lon="0.27341">
        <ele>1197.6</ele>
        <time>2022-08-07T08:13:38Z</time>
      </trkpt>
      <trkpt lat="42.94859" lon="0.27342">
        <ele>1197.8</ele>
        <time>2022-08-07T08:13:40Z</time>
      </trkpt>
      <trkpt lat="42.94858" lon="0.27343">
        <ele>1198</ele>
        <time>2022-08-07T08:13:41Z</time>
      </trkpt>
      <trkpt lat="42.94857" lon="0.27345">
        <ele>1198.2</ele>
        <time>2022-08-07T08:13:43Z</time>
      </trkpt>
      <trkpt lat="42.94851" lon="0.27349">
        <ele>1198.8</ele>
        <time>2022-08-07T08:13:48Z</time>
      </trkpt>
      <trkpt lat="42.94848" lon="0.2735">
        <ele>1198.8</ele>
        <time>2022-08-07T08:13:49Z</time>
      </trkpt>
      <trkpt lat="42.94846" lon="0.27352">
        <ele>1199</ele>
        <time>2022-08-07T08:13:50Z</time>
      </trkpt>
      <trkpt lat="42.94841" lon="0.27354">
        <ele>1199.8</ele>
        <time>2022-08-07T08:13:55Z</time>
      </trkpt>
      <trkpt lat="42.94832" lon="0.2736">
        <ele>1200</ele>
        <time>2022-08-07T08:14:00Z</time>
      </trkpt>
      <trkpt lat="42.94832" lon="0.2736">
        <ele>1200.2</ele>
        <time>2022-08-07T08:14:01Z</time>
      </trkpt>
      <trkpt lat="42.94829" lon="0.27365">
        <ele>1201.2</ele>
        <time>2022-08-07T08:14:07Z</time>
      </trkpt>
      <trkpt lat="42.94828" lon="0.27366">
        <ele>1201.6</ele>
        <time>2022-08-07T08:14:09Z</time>
      </trkpt>
      <trkpt lat="42.94823" lon="0.27373">
        <ele>1202.2</ele>
        <time>2022-08-07T08:14:14Z</time>
      </trkpt>
      <trkpt lat="42.94823" lon="0.27374">
        <ele>1202.2</ele>
        <time>2022-08-07T08:14:15Z</time>
      </trkpt>
      <trkpt lat="42.94821" lon="0.27379">
        <ele>1202.4</ele>
        <time>2022-08-07T08:14:18Z</time>
      </trkpt>
      <trkpt lat="42.94819" lon="0.27383">
        <ele>1202.6</ele>
        <time>2022-08-07T08:14:20Z</time>
      </trkpt>
      <trkpt lat="42.94818" lon="0.27386">
        <ele>1202.6</ele>
        <time>2022-08-07T08:14:21Z</time>
      </trkpt>
      <trkpt lat="42.94815" lon="0.27389">
        <ele>1202.8</ele>
        <time>2022-08-07T08:14:23Z</time>
      </trkpt>
      <trkpt lat="42.94813" lon="0.27397">
        <ele>1203</ele>
        <time>2022-08-07T08:14:27Z</time>
      </trkpt>
      <trkpt lat="42.94811" lon="0.27401">
        <ele>1203.2</ele>
        <time>2022-08-07T08:14:30Z</time>
      </trkpt>
      <trkpt lat="42.94807" lon="0.27407">
        <ele>1203.6</ele>
        <time>2022-08-07T08:14:33Z</time>
      </trkpt>
      <trkpt lat="42.94807" lon="0.27409">
        <ele>1203.8</ele>
        <time>2022-08-07T08:14:34Z</time>
      </trkpt>
      <trkpt lat="42.94806" lon="0.27412">
        <ele>1204</ele>
        <time>2022-08-07T08:14:36Z</time>
      </trkpt>
      <trkpt lat="42.94805" lon="0.27414">
        <ele>1204.2</ele>
        <time>2022-08-07T08:14:38Z</time>
      </trkpt>
      <trkpt lat="42.94804" lon="0.27421">
        <ele>1204.6</ele>
        <time>2022-08-07T08:14:44Z</time>
      </trkpt>
      <trkpt lat="42.94804" lon="0.27422">
        <ele>1204.6</ele>
        <time>2022-08-07T08:14:45Z</time>
      </trkpt>
      <trkpt lat="42.94803" lon="0.27429">
        <ele>1205.2</ele>
        <time>2022-08-07T08:14:49Z</time>
      </trkpt>
      <trkpt lat="42.94802" lon="0.27438">
        <ele>1205.8</ele>
        <time>2022-08-07T08:14:54Z</time>
      </trkpt>
      <trkpt lat="42.94802" lon="0.27447">
        <ele>1206.4</ele>
        <time>2022-08-07T08:14:58Z</time>
      </trkpt>
      <trkpt lat="42.94801" lon="0.27455">
        <ele>1206.8</ele>
        <time>2022-08-07T08:15:02Z</time>
      </trkpt>
      <trkpt lat="42.94799" lon="0.27466">
        <ele>1207.4</ele>
        <time>2022-08-07T08:15:07Z</time>
      </trkpt>
      <trkpt lat="42.94797" lon="0.27481">
        <ele>1208</ele>
        <time>2022-08-07T08:15:14Z</time>
      </trkpt>
      <trkpt lat="42.94797" lon="0.27486">
        <ele>1208</ele>
        <time>2022-08-07T08:15:16Z</time>
      </trkpt>
      <trkpt lat="42.94803" lon="0.27507">
        <ele>1208</ele>
        <time>2022-08-07T08:15:22Z</time>
      </trkpt>
      <trkpt lat="42.94814" lon="0.27533">
        <ele>1207.6</ele>
        <time>2022-08-07T08:15:27Z</time>
      </trkpt>
      <trkpt lat="42.94819" lon="0.27544">
        <ele>1206.8</ele>
        <time>2022-08-07T08:15:30Z</time>
      </trkpt>
      <trkpt lat="42.94822" lon="0.27556">
        <ele>1206.6</ele>
        <time>2022-08-07T08:15:32Z</time>
      </trkpt>
      <trkpt lat="42.94824" lon="0.2758">
        <ele>1205.4</ele>
        <time>2022-08-07T08:15:36Z</time>
      </trkpt>
      <trkpt lat="42.94825" lon="0.27584">
        <ele>1205.2</ele>
        <time>2022-08-07T08:15:37Z</time>
      </trkpt>
      <trkpt lat="42.94826" lon="0.2759">
        <ele>1204.8</ele>
        <time>2022-08-07T08:15:39Z</time>
      </trkpt>
      <trkpt lat="42.94826" lon="0.27597">
        <ele>1204.8</ele>
        <time>2022-08-07T08:15:42Z</time>
      </trkpt>
      <trkpt lat="42.94825" lon="0.27604">
        <ele>1205.2</ele>
        <time>2022-08-07T08:15:46Z</time>
      </trkpt>
      <trkpt lat="42.94826" lon="0.27605">
        <ele>1205.4</ele>
        <time>2022-08-07T08:15:47Z</time>
      </trkpt>
      <trkpt lat="42.94827" lon="0.27616">
        <ele>1205.8</ele>
        <time>2022-08-07T08:15:51Z</time>
      </trkpt>
      <trkpt lat="42.9483" lon="0.27624">
        <ele>1206.2</ele>
        <time>2022-08-07T08:15:54Z</time>
      </trkpt>
      <trkpt lat="42.94834" lon="0.27633">
        <ele>1206.4</ele>
        <time>2022-08-07T08:15:57Z</time>
      </trkpt>
      <trkpt lat="42.94832" lon="0.27647">
        <ele>1206.4</ele>
        <time>2022-08-07T08:15:59Z</time>
      </trkpt>
      <trkpt lat="42.94825" lon="0.27663">
        <ele>1206.2</ele>
        <time>2022-08-07T08:16:02Z</time>
      </trkpt>
      <trkpt lat="42.94817" lon="0.27677">
        <ele>1206</ele>
        <time>2022-08-07T08:16:07Z</time>
      </trkpt>
      <trkpt lat="42.94812" lon="0.27682">
        <ele>1206</ele>
        <time>2022-08-07T08:16:10Z</time>
      </trkpt>
      <trkpt lat="42.94809" lon="0.27685">
        <ele>1206</ele>
        <time>2022-08-07T08:16:12Z</time>
      </trkpt>
      <trkpt lat="42.94804" lon="0.27695">
        <ele>1207.4</ele>
        <time>2022-08-07T08:16:17Z</time>
      </trkpt>
      <trkpt lat="42.94801" lon="0.27698">
        <ele>1207.6</ele>
        <time>2022-08-07T08:16:19Z</time>
      </trkpt>
      <trkpt lat="42.94797" lon="0.27704">
        <ele>1208.2</ele>
        <time>2022-08-07T08:16:25Z</time>
      </trkpt>
      <trkpt lat="42.94796" lon="0.27705">
        <ele>1208.4</ele>
        <time>2022-08-07T08:16:26Z</time>
      </trkpt>
      <trkpt lat="42.94795" lon="0.27706">
        <ele>1208.4</ele>
        <time>2022-08-07T08:16:27Z</time>
      </trkpt>
      <trkpt lat="42.94795" lon="0.27708">
        <ele>1208.8</ele>
        <time>2022-08-07T08:16:29Z</time>
      </trkpt>
      <trkpt lat="42.94793" lon="0.27711">
        <ele>1209</ele>
        <time>2022-08-07T08:16:31Z</time>
      </trkpt>
      <trkpt lat="42.94788" lon="0.27715">
        <ele>1209.6</ele>
        <time>2022-08-07T08:16:34Z</time>
      </trkpt>
      <trkpt lat="42.94787" lon="0.27717">
        <ele>1209.6</ele>
        <time>2022-08-07T08:16:35Z</time>
      </trkpt>
      <trkpt lat="42.9478" lon="0.27723">
        <ele>1210.4</ele>
        <time>2022-08-07T08:16:40Z</time>
      </trkpt>
      <trkpt lat="42.94777" lon="0.27725">
        <ele>1210.6</ele>
        <time>2022-08-07T08:16:42Z</time>
      </trkpt>
      <trkpt lat="42.94777" lon="0.27727">
        <ele>1210.8</ele>
        <time>2022-08-07T08:16:43Z</time>
      </trkpt>
      <trkpt lat="42.94774" lon="0.27733">
        <ele>1211</ele>
        <time>2022-08-07T08:16:46Z</time>
      </trkpt>
      <trkpt lat="42.94766" lon="0.27744">
        <ele>1211.6</ele>
        <time>2022-08-07T08:16:51Z</time>
      </trkpt>
      <trkpt lat="42.94765" lon="0.27745">
        <ele>1211.8</ele>
        <time>2022-08-07T08:16:53Z</time>
      </trkpt>
      <trkpt lat="42.94763" lon="0.27748">
        <ele>1212.2</ele>
        <time>2022-08-07T08:16:55Z</time>
      </trkpt>
      <trkpt lat="42.94762" lon="0.27753">
        <ele>1212.4</ele>
        <time>2022-08-07T08:16:57Z</time>
      </trkpt>
      <trkpt lat="42.94758" lon="0.27757">
        <ele>1212.6</ele>
        <time>2022-08-07T08:16:59Z</time>
      </trkpt>
      <trkpt lat="42.94756" lon="0.27759">
        <ele>1212.8</ele>
        <time>2022-08-07T08:17:00Z</time>
      </trkpt>
      <trkpt lat="42.94753" lon="0.27764">
        <ele>1213.4</ele>
        <time>2022-08-07T08:17:04Z</time>
      </trkpt>
      <trkpt lat="42.94753" lon="0.27766">
        <ele>1213.6</ele>
        <time>2022-08-07T08:17:05Z</time>
      </trkpt>
      <trkpt lat="42.94751" lon="0.27768">
        <ele>1213.8</ele>
        <time>2022-08-07T08:17:06Z</time>
      </trkpt>
      <trkpt lat="42.94746" lon="0.27781">
        <ele>1214.4</ele>
        <time>2022-08-07T08:17:12Z</time>
      </trkpt>
      <trkpt lat="42.94743" lon="0.2778">
        <ele>1214.6</ele>
        <time>2022-08-07T08:17:13Z</time>
      </trkpt>
      <trkpt lat="42.94742" lon="0.27781">
        <ele>1214.8</ele>
        <time>2022-08-07T08:17:14Z</time>
      </trkpt>
      <trkpt lat="42.94738" lon="0.27781">
        <ele>1215.2</ele>
        <time>2022-08-07T08:17:18Z</time>
      </trkpt>
      <trkpt lat="42.94737" lon="0.27783">
        <ele>1215.2</ele>
        <time>2022-08-07T08:17:19Z</time>
      </trkpt>
      <trkpt lat="42.94734" lon="0.27788">
        <ele>1215.4</ele>
        <time>2022-08-07T08:17:22Z</time>
      </trkpt>
      <trkpt lat="42.94732" lon="0.27792">
        <ele>1215.6</ele>
        <time>2022-08-07T08:17:24Z</time>
      </trkpt>
      <trkpt lat="42.94729" lon="0.27796">
        <ele>1215.8</ele>
        <time>2022-08-07T08:17:26Z</time>
      </trkpt>
      <trkpt lat="42.94728" lon="0.27798">
        <ele>1216</ele>
        <time>2022-08-07T08:17:27Z</time>
      </trkpt>
      <trkpt lat="42.94724" lon="0.27802">
        <ele>1216</ele>
        <time>2022-08-07T08:17:29Z</time>
      </trkpt>
      <trkpt lat="42.94722" lon="0.27804">
        <ele>1216</ele>
        <time>2022-08-07T08:17:30Z</time>
      </trkpt>
      <trkpt lat="42.94708" lon="0.27818">
        <ele>1216</ele>
        <time>2022-08-07T08:17:35Z</time>
      </trkpt>
      <trkpt lat="42.94695" lon="0.27821">
        <ele>1215.8</ele>
        <time>2022-08-07T08:17:37Z</time>
      </trkpt>
      <trkpt lat="42.94685" lon="0.27824">
        <ele>1215.4</ele>
        <time>2022-08-07T08:17:39Z</time>
      </trkpt>
      <trkpt lat="42.94676" lon="0.27828">
        <ele>1215</ele>
        <time>2022-08-07T08:17:41Z</time>
      </trkpt>
      <trkpt lat="42.94669" lon="0.27832">
        <ele>1214.4</ele>
        <time>2022-08-07T08:17:43Z</time>
      </trkpt>
      <trkpt lat="42.94666" lon="0.27833">
        <ele>1213.8</ele>
        <time>2022-08-07T08:17:44Z</time>
      </trkpt>
      <trkpt lat="42.94657" lon="0.27837">
        <ele>1212.6</ele>
        <time>2022-08-07T08:17:46Z</time>
      </trkpt>
      <trkpt lat="42.9465" lon="0.27841">
        <ele>1211.4</ele>
        <time>2022-08-07T08:17:48Z</time>
      </trkpt>
      <trkpt lat="42.94644" lon="0.27843">
        <ele>1211</ele>
        <time>2022-08-07T08:17:49Z</time>
      </trkpt>
      <trkpt lat="42.94634" lon="0.27846">
        <ele>1209.6</ele>
        <time>2022-08-07T08:17:52Z</time>
      </trkpt>
      <trkpt lat="42.94621" lon="0.27849">
        <ele>1208.4</ele>
        <time>2022-08-07T08:17:55Z</time>
      </trkpt>
      <trkpt lat="42.94618" lon="0.2785">
        <ele>1207.4</ele>
        <time>2022-08-07T08:17:56Z</time>
      </trkpt>
      <trkpt lat="42.94607" lon="0.27859">
        <ele>1205.6</ele>
        <time>2022-08-07T08:17:59Z</time>
      </trkpt>
      <trkpt lat="42.94599" lon="0.27868">
        <ele>1204.2</ele>
        <time>2022-08-07T08:18:01Z</time>
      </trkpt>
      <trkpt lat="42.94593" lon="0.27876">
        <ele>1203</ele>
        <time>2022-08-07T08:18:03Z</time>
      </trkpt>
      <trkpt lat="42.94587" lon="0.27882">
        <ele>1201.8</ele>
        <time>2022-08-07T08:18:05Z</time>
      </trkpt>
      <trkpt lat="42.94585" lon="0.27887">
        <ele>1201.2</ele>
        <time>2022-08-07T08:18:06Z</time>
      </trkpt>
      <trkpt lat="42.94583" lon="0.27891">
        <ele>1200.4</ele>
        <time>2022-08-07T08:18:07Z</time>
      </trkpt>
      <trkpt lat="42.94578" lon="0.27905">
        <ele>1199.2</ele>
        <time>2022-08-07T08:18:10Z</time>
      </trkpt>
      <trkpt lat="42.94578" lon="0.27908">
        <ele>1198.6</ele>
        <time>2022-08-07T08:18:11Z</time>
      </trkpt>
      <trkpt lat="42.94582" lon="0.27913">
        <ele>1197.8</ele>
        <time>2022-08-07T08:18:13Z</time>
      </trkpt>
      <trkpt lat="42.94586" lon="0.27915">
        <ele>1197</ele>
        <time>2022-08-07T08:18:15Z</time>
      </trkpt>
      <trkpt lat="42.94588" lon="0.27917">
        <ele>1196.8</ele>
        <time>2022-08-07T08:18:16Z</time>
      </trkpt>
      <trkpt lat="42.94592" lon="0.27923">
        <ele>1196.2</ele>
        <time>2022-08-07T08:18:19Z</time>
      </trkpt>
      <trkpt lat="42.94595" lon="0.27927">
        <ele>1195.2</ele>
        <time>2022-08-07T08:18:21Z</time>
      </trkpt>
      <trkpt lat="42.94598" lon="0.27932">
        <ele>1193.8</ele>
        <time>2022-08-07T08:18:24Z</time>
      </trkpt>
      <trkpt lat="42.946" lon="0.27934">
        <ele>1193.6</ele>
        <time>2022-08-07T08:18:25Z</time>
      </trkpt>
      <trkpt lat="42.94602" lon="0.27936">
        <ele>1192.8</ele>
        <time>2022-08-07T08:18:26Z</time>
      </trkpt>
      <trkpt lat="42.94608" lon="0.27945">
        <ele>1192</ele>
        <time>2022-08-07T08:18:28Z</time>
      </trkpt>
      <trkpt lat="42.9461" lon="0.27952">
        <ele>1191.8</ele>
        <time>2022-08-07T08:18:29Z</time>
      </trkpt>
      <trkpt lat="42.94614" lon="0.27961">
        <ele>1191.4</ele>
        <time>2022-08-07T08:18:30Z</time>
      </trkpt>
      <trkpt lat="42.94619" lon="0.27976">
        <ele>1191</ele>
        <time>2022-08-07T08:18:32Z</time>
      </trkpt>
      <trkpt lat="42.94625" lon="0.27986">
        <ele>1190.4</ele>
        <time>2022-08-07T08:18:34Z</time>
      </trkpt>
      <trkpt lat="42.94633" lon="0.27997">
        <ele>1189</ele>
        <time>2022-08-07T08:18:36Z</time>
      </trkpt>
      <trkpt lat="42.94641" lon="0.28009">
        <ele>1187.8</ele>
        <time>2022-08-07T08:18:38Z</time>
      </trkpt>
      <trkpt lat="42.94651" lon="0.28027">
        <ele>1186.8</ele>
        <time>2022-08-07T08:18:40Z</time>
      </trkpt>
      <trkpt lat="42.94656" lon="0.28036">
        <ele>1186.2</ele>
        <time>2022-08-07T08:18:41Z</time>
      </trkpt>
      <trkpt lat="42.94665" lon="0.28057">
        <ele>1184.2</ele>
        <time>2022-08-07T08:18:43Z</time>
      </trkpt>
      <trkpt lat="42.94672" lon="0.2807">
        <ele>1182.8</ele>
        <time>2022-08-07T08:18:45Z</time>
      </trkpt>
      <trkpt lat="42.94674" lon="0.28076">
        <ele>1182.4</ele>
        <time>2022-08-07T08:18:46Z</time>
      </trkpt>
      <trkpt lat="42.94675" lon="0.28081">
        <ele>1181.6</ele>
        <time>2022-08-07T08:18:47Z</time>
      </trkpt>
      <trkpt lat="42.94674" lon="0.28086">
        <ele>1181</ele>
        <time>2022-08-07T08:18:48Z</time>
      </trkpt>
      <trkpt lat="42.94672" lon="0.28089">
        <ele>1180.4</ele>
        <time>2022-08-07T08:18:49Z</time>
      </trkpt>
      <trkpt lat="42.94669" lon="0.28089">
        <ele>1179.2</ele>
        <time>2022-08-07T08:18:50Z</time>
      </trkpt>
      <trkpt lat="42.94667" lon="0.28092">
        <ele>1179</ele>
        <time>2022-08-07T08:18:51Z</time>
      </trkpt>
      <trkpt lat="42.94666" lon="0.28094">
        <ele>1178</ele>
        <time>2022-08-07T08:18:52Z</time>
      </trkpt>
      <trkpt lat="42.94653" lon="0.281">
        <ele>1177.2</ele>
        <time>2022-08-07T08:18:59Z</time>
      </trkpt>
      <trkpt lat="42.94647" lon="0.28105">
        <ele>1177.8</ele>
        <time>2022-08-07T08:19:02Z</time>
      </trkpt>
      <trkpt lat="42.94642" lon="0.28109">
        <ele>1178.2</ele>
        <time>2022-08-07T08:19:05Z</time>
      </trkpt>
      <trkpt lat="42.94632" lon="0.28115">
        <ele>1178.8</ele>
        <time>2022-08-07T08:19:10Z</time>
      </trkpt>
      <trkpt lat="42.9463" lon="0.28115">
        <ele>1179</ele>
        <time>2022-08-07T08:19:11Z</time>
      </trkpt>
      <trkpt lat="42.94615" lon="0.28122">
        <ele>1179.2</ele>
        <time>2022-08-07T08:19:16Z</time>
      </trkpt>
      <trkpt lat="42.94596" lon="0.28131">
        <ele>1178.8</ele>
        <time>2022-08-07T08:19:22Z</time>
      </trkpt>
      <trkpt lat="42.94592" lon="0.28133">
        <ele>1178.6</ele>
        <time>2022-08-07T08:19:23Z</time>
      </trkpt>
      <trkpt lat="42.94578" lon="0.2814">
        <ele>1177.8</ele>
        <time>2022-08-07T08:19:26Z</time>
      </trkpt>
      <trkpt lat="42.94574" lon="0.28142">
        <ele>1177.8</ele>
        <time>2022-08-07T08:19:27Z</time>
      </trkpt>
      <trkpt lat="42.9457" lon="0.28145">
        <ele>1177.2</ele>
        <time>2022-08-07T08:19:28Z</time>
      </trkpt>
      <trkpt lat="42.94561" lon="0.28152">
        <ele>1176.4</ele>
        <time>2022-08-07T08:19:30Z</time>
      </trkpt>
      <trkpt lat="42.94558" lon="0.28156">
        <ele>1175.8</ele>
        <time>2022-08-07T08:19:31Z</time>
      </trkpt>
      <trkpt lat="42.94555" lon="0.28158">
        <ele>1175.2</ele>
        <time>2022-08-07T08:19:32Z</time>
      </trkpt>
      <trkpt lat="42.94553" lon="0.2816">
        <ele>1174.8</ele>
        <time>2022-08-07T08:19:33Z</time>
      </trkpt>
      <trkpt lat="42.94552" lon="0.28162">
        <ele>1174.6</ele>
        <time>2022-08-07T08:19:34Z</time>
      </trkpt>
      <trkpt lat="42.94548" lon="0.28167">
        <ele>1174.4</ele>
        <time>2022-08-07T08:19:37Z</time>
      </trkpt>
      <trkpt lat="42.94545" lon="0.2817">
        <ele>1174.6</ele>
        <time>2022-08-07T08:19:39Z</time>
      </trkpt>
      <trkpt lat="42.94543" lon="0.28174">
        <ele>1174.6</ele>
        <time>2022-08-07T08:19:41Z</time>
      </trkpt>
      <trkpt lat="42.9454" lon="0.28178">
        <ele>1175</ele>
        <time>2022-08-07T08:19:43Z</time>
      </trkpt>
      <trkpt lat="42.94539" lon="0.2818">
        <ele>1175</ele>
        <time>2022-08-07T08:19:44Z</time>
      </trkpt>
      <trkpt lat="42.94538" lon="0.28185">
        <ele>1175.2</ele>
        <time>2022-08-07T08:19:46Z</time>
      </trkpt>
      <trkpt lat="42.94537" lon="0.28187">
        <ele>1175.4</ele>
        <time>2022-08-07T08:19:47Z</time>
      </trkpt>
      <trkpt lat="42.94531" lon="0.28191">
        <ele>1175.8</ele>
        <time>2022-08-07T08:19:50Z</time>
      </trkpt>
      <trkpt lat="42.9453" lon="0.28193">
        <ele>1176</ele>
        <time>2022-08-07T08:19:51Z</time>
      </trkpt>
      <trkpt lat="42.94524" lon="0.28206">
        <ele>1176.4</ele>
        <time>2022-08-07T08:19:55Z</time>
      </trkpt>
      <trkpt lat="42.94521" lon="0.28209">
        <ele>1176.4</ele>
        <time>2022-08-07T08:19:56Z</time>
      </trkpt>
      <trkpt lat="42.94515" lon="0.28219">
        <ele>1176.6</ele>
        <time>2022-08-07T08:19:59Z</time>
      </trkpt>
      <trkpt lat="42.94503" lon="0.28239">
        <ele>1177.4</ele>
        <time>2022-08-07T08:20:05Z</time>
      </trkpt>
      <trkpt lat="42.94501" lon="0.28246">
        <ele>1177.6</ele>
        <time>2022-08-07T08:20:08Z</time>
      </trkpt>
      <trkpt lat="42.94501" lon="0.2825">
        <ele>1177.6</ele>
        <time>2022-08-07T08:20:10Z</time>
      </trkpt>
      <trkpt lat="42.94497" lon="0.28256">
        <ele>1178.2</ele>
        <time>2022-08-07T08:20:14Z</time>
      </trkpt>
      <trkpt lat="42.94496" lon="0.28259">
        <ele>1178.4</ele>
        <time>2022-08-07T08:20:15Z</time>
      </trkpt>
      <trkpt lat="42.94495" lon="0.2826">
        <ele>1178.4</ele>
        <time>2022-08-07T08:20:16Z</time>
      </trkpt>
      <trkpt lat="42.94494" lon="0.28262">
        <ele>1178.6</ele>
        <time>2022-08-07T08:20:17Z</time>
      </trkpt>
      <trkpt lat="42.94493" lon="0.28266">
        <ele>1179</ele>
        <time>2022-08-07T08:20:19Z</time>
      </trkpt>
      <trkpt lat="42.94491" lon="0.2827">
        <ele>1179.2</ele>
        <time>2022-08-07T08:20:21Z</time>
      </trkpt>
      <trkpt lat="42.9449" lon="0.28272">
        <ele>1179.4</ele>
        <time>2022-08-07T08:20:22Z</time>
      </trkpt>
      <trkpt lat="42.94489" lon="0.28275">
        <ele>1179.4</ele>
        <time>2022-08-07T08:20:23Z</time>
      </trkpt>
      <trkpt lat="42.94485" lon="0.28282">
        <ele>1179.6</ele>
        <time>2022-08-07T08:20:26Z</time>
      </trkpt>
      <trkpt lat="42.9448" lon="0.28287">
        <ele>1180</ele>
        <time>2022-08-07T08:20:29Z</time>
      </trkpt>
      <trkpt lat="42.94476" lon="0.2829">
        <ele>1180.2</ele>
        <time>2022-08-07T08:20:31Z</time>
      </trkpt>
      <trkpt lat="42.94461" lon="0.28305">
        <ele>1180.2</ele>
        <time>2022-08-07T08:20:35Z</time>
      </trkpt>
      <trkpt lat="42.94457" lon="0.28311">
        <ele>1180.2</ele>
        <time>2022-08-07T08:20:36Z</time>
      </trkpt>
      <trkpt lat="42.9445" lon="0.28325">
        <ele>1179.8</ele>
        <time>2022-08-07T08:20:38Z</time>
      </trkpt>
      <trkpt lat="42.94447" lon="0.2833">
        <ele>1179.4</ele>
        <time>2022-08-07T08:20:39Z</time>
      </trkpt>
      <trkpt lat="42.94442" lon="0.28339">
        <ele>1178.4</ele>
        <time>2022-08-07T08:20:40Z</time>
      </trkpt>
      <trkpt lat="42.94435" lon="0.28354">
        <ele>1177.6</ele>
        <time>2022-08-07T08:20:42Z</time>
      </trkpt>
      <trkpt lat="42.94431" lon="0.28363">
        <ele>1177</ele>
        <time>2022-08-07T08:20:43Z</time>
      </trkpt>
      <trkpt lat="42.94423" lon="0.2838">
        <ele>1176</ele>
        <time>2022-08-07T08:20:45Z</time>
      </trkpt>
      <trkpt lat="42.94423" lon="0.28394">
        <ele>1175</ele>
        <time>2022-08-07T08:20:47Z</time>
      </trkpt>
      <trkpt lat="42.94421" lon="0.28416">
        <ele>1173.6</ele>
        <time>2022-08-07T08:20:49Z</time>
      </trkpt>
      <trkpt lat="42.9442" lon="0.28431">
        <ele>1172</ele>
        <time>2022-08-07T08:20:51Z</time>
      </trkpt>
      <trkpt lat="42.9442" lon="0.28438">
        <ele>1171.6</ele>
        <time>2022-08-07T08:20:52Z</time>
      </trkpt>
      <trkpt lat="42.9442" lon="0.28444">
        <ele>1171</ele>
        <time>2022-08-07T08:20:53Z</time>
      </trkpt>
      <trkpt lat="42.94421" lon="0.2845">
        <ele>1170.6</ele>
        <time>2022-08-07T08:20:54Z</time>
      </trkpt>
      <trkpt lat="42.94423" lon="0.28456">
        <ele>1170.2</ele>
        <time>2022-08-07T08:20:55Z</time>
      </trkpt>
      <trkpt lat="42.94426" lon="0.28462">
        <ele>1169.2</ele>
        <time>2022-08-07T08:20:56Z</time>
      </trkpt>
      <trkpt lat="42.94427" lon="0.28469">
        <ele>1168.4</ele>
        <time>2022-08-07T08:20:57Z</time>
      </trkpt>
      <trkpt lat="42.94429" lon="0.28475">
        <ele>1168</ele>
        <time>2022-08-07T08:20:58Z</time>
      </trkpt>
      <trkpt lat="42.94432" lon="0.28488">
        <ele>1167</ele>
        <time>2022-08-07T08:21:00Z</time>
      </trkpt>
      <trkpt lat="42.94433" lon="0.28493">
        <ele>1166</ele>
        <time>2022-08-07T08:21:01Z</time>
      </trkpt>
      <trkpt lat="42.94435" lon="0.28502">
        <ele>1164</ele>
        <time>2022-08-07T08:21:03Z</time>
      </trkpt>
      <trkpt lat="42.94438" lon="0.28516">
        <ele>1162.4</ele>
        <time>2022-08-07T08:21:05Z</time>
      </trkpt>
      <trkpt lat="42.9444" lon="0.28524">
        <ele>1161.6</ele>
        <time>2022-08-07T08:21:06Z</time>
      </trkpt>
      <trkpt lat="42.94442" lon="0.28531">
        <ele>1161.2</ele>
        <time>2022-08-07T08:21:07Z</time>
      </trkpt>
      <trkpt lat="42.94446" lon="0.28548">
        <ele>1159.6</ele>
        <time>2022-08-07T08:21:10Z</time>
      </trkpt>
      <trkpt lat="42.94448" lon="0.28551">
        <ele>1159.2</ele>
        <time>2022-08-07T08:21:11Z</time>
      </trkpt>
      <trkpt lat="42.9445" lon="0.28552">
        <ele>1158.4</ele>
        <time>2022-08-07T08:21:12Z</time>
      </trkpt>
      <trkpt lat="42.94453" lon="0.28554">
        <ele>1158.2</ele>
        <time>2022-08-07T08:21:13Z</time>
      </trkpt>
      <trkpt lat="42.94456" lon="0.28557">
        <ele>1157.2</ele>
        <time>2022-08-07T08:21:14Z</time>
      </trkpt>
      <trkpt lat="42.94462" lon="0.28564">
        <ele>1155.8</ele>
        <time>2022-08-07T08:21:16Z</time>
      </trkpt>
      <trkpt lat="42.94467" lon="0.28568">
        <ele>1155.4</ele>
        <time>2022-08-07T08:21:17Z</time>
      </trkpt>
      <trkpt lat="42.94473" lon="0.28573">
        <ele>1154.4</ele>
        <time>2022-08-07T08:21:18Z</time>
      </trkpt>
      <trkpt lat="42.94478" lon="0.28575">
        <ele>1154</ele>
        <time>2022-08-07T08:21:19Z</time>
      </trkpt>
      <trkpt lat="42.94485" lon="0.28578">
        <ele>1153</ele>
        <time>2022-08-07T08:21:20Z</time>
      </trkpt>
      <trkpt lat="42.94498" lon="0.28583">
        <ele>1151.8</ele>
        <time>2022-08-07T08:21:22Z</time>
      </trkpt>
      <trkpt lat="42.9451" lon="0.28587">
        <ele>1151.2</ele>
        <time>2022-08-07T08:21:24Z</time>
      </trkpt>
      <trkpt lat="42.94516" lon="0.28591">
        <ele>1150.6</ele>
        <time>2022-08-07T08:21:25Z</time>
      </trkpt>
      <trkpt lat="42.94523" lon="0.28595">
        <ele>1150.2</ele>
        <time>2022-08-07T08:21:26Z</time>
      </trkpt>
      <trkpt lat="42.9453" lon="0.28599">
        <ele>1148</ele>
        <time>2022-08-07T08:21:27Z</time>
      </trkpt>
      <trkpt lat="42.94538" lon="0.28602">
        <ele>1147.2</ele>
        <time>2022-08-07T08:21:28Z</time>
      </trkpt>
      <trkpt lat="42.94546" lon="0.28605">
        <ele>1145.4</ele>
        <time>2022-08-07T08:21:29Z</time>
      </trkpt>
      <trkpt lat="42.94556" lon="0.28609">
        <ele>1144.6</ele>
        <time>2022-08-07T08:21:30Z</time>
      </trkpt>
      <trkpt lat="42.94564" lon="0.2861">
        <ele>1143.6</ele>
        <time>2022-08-07T08:21:31Z</time>
      </trkpt>
      <trkpt lat="42.94575" lon="0.28612">
        <ele>1142.2</ele>
        <time>2022-08-07T08:21:33Z</time>
      </trkpt>
      <trkpt lat="42.9458" lon="0.28617">
        <ele>1141</ele>
        <time>2022-08-07T08:21:34Z</time>
      </trkpt>
      <trkpt lat="42.94584" lon="0.28625">
        <ele>1139</ele>
        <time>2022-08-07T08:21:35Z</time>
      </trkpt>
      <trkpt lat="42.94587" lon="0.28634">
        <ele>1138.6</ele>
        <time>2022-08-07T08:21:36Z</time>
      </trkpt>
      <trkpt lat="42.94587" lon="0.28642">
        <ele>1137.6</ele>
        <time>2022-08-07T08:21:37Z</time>
      </trkpt>
      <trkpt lat="42.94586" lon="0.28649">
        <ele>1137</ele>
        <time>2022-08-07T08:21:38Z</time>
      </trkpt>
      <trkpt lat="42.94584" lon="0.28654">
        <ele>1135.4</ele>
        <time>2022-08-07T08:21:39Z</time>
      </trkpt>
      <trkpt lat="42.94581" lon="0.2866">
        <ele>1134</ele>
        <time>2022-08-07T08:21:40Z</time>
      </trkpt>
      <trkpt lat="42.94577" lon="0.28667">
        <ele>1133.4</ele>
        <time>2022-08-07T08:21:41Z</time>
      </trkpt>
      <trkpt lat="42.94574" lon="0.28676">
        <ele>1132.2</ele>
        <time>2022-08-07T08:21:42Z</time>
      </trkpt>
      <trkpt lat="42.94564" lon="0.2869">
        <ele>1131.2</ele>
        <time>2022-08-07T08:21:44Z</time>
      </trkpt>
      <trkpt lat="42.94558" lon="0.28696">
        <ele>1130.8</ele>
        <time>2022-08-07T08:21:45Z</time>
      </trkpt>
      <trkpt lat="42.94553" lon="0.28701">
        <ele>1129.8</ele>
        <time>2022-08-07T08:21:46Z</time>
      </trkpt>
      <trkpt lat="42.94544" lon="0.28707">
        <ele>1129</ele>
        <time>2022-08-07T08:21:48Z</time>
      </trkpt>
      <trkpt lat="42.9454" lon="0.2871">
        <ele>1128.6</ele>
        <time>2022-08-07T08:21:49Z</time>
      </trkpt>
      <trkpt lat="42.94535" lon="0.28716">
        <ele>1127.8</ele>
        <time>2022-08-07T08:21:51Z</time>
      </trkpt>
      <trkpt lat="42.94534" lon="0.2872">
        <ele>1126.6</ele>
        <time>2022-08-07T08:21:52Z</time>
      </trkpt>
      <trkpt lat="42.94531" lon="0.28727">
        <ele>1125</ele>
        <time>2022-08-07T08:21:54Z</time>
      </trkpt>
      <trkpt lat="42.94528" lon="0.28733">
        <ele>1123.8</ele>
        <time>2022-08-07T08:21:56Z</time>
      </trkpt>
      <trkpt lat="42.94528" lon="0.28744">
        <ele>1122.6</ele>
        <time>2022-08-07T08:21:59Z</time>
      </trkpt>
      <trkpt lat="42.94529" lon="0.28748">
        <ele>1122.6</ele>
        <time>2022-08-07T08:22:00Z</time>
      </trkpt>
      <trkpt lat="42.94538" lon="0.28772">
        <ele>1122</ele>
        <time>2022-08-07T08:22:04Z</time>
      </trkpt>
      <trkpt lat="42.94542" lon="0.28788">
        <ele>1121.4</ele>
        <time>2022-08-07T08:22:06Z</time>
      </trkpt>
      <trkpt lat="42.94542" lon="0.28796">
        <ele>1121</ele>
        <time>2022-08-07T08:22:07Z</time>
      </trkpt>
      <trkpt lat="42.9454" lon="0.28801">
        <ele>1121</ele>
        <time>2022-08-07T08:22:08Z</time>
      </trkpt>
      <trkpt lat="42.94531" lon="0.2881">
        <ele>1120.4</ele>
        <time>2022-08-07T08:22:10Z</time>
      </trkpt>
      <trkpt lat="42.94518" lon="0.28815">
        <ele>1118.2</ele>
        <time>2022-08-07T08:22:12Z</time>
      </trkpt>
      <trkpt lat="42.94512" lon="0.28817">
        <ele>1117.8</ele>
        <time>2022-08-07T08:22:13Z</time>
      </trkpt>
      <trkpt lat="42.94504" lon="0.28819">
        <ele>1117.4</ele>
        <time>2022-08-07T08:22:14Z</time>
      </trkpt>
      <trkpt lat="42.94495" lon="0.28819">
        <ele>1116.8</ele>
        <time>2022-08-07T08:22:15Z</time>
      </trkpt>
      <trkpt lat="42.94478" lon="0.28816">
        <ele>1115</ele>
        <time>2022-08-07T08:22:17Z</time>
      </trkpt>
      <trkpt lat="42.94471" lon="0.28813">
        <ele>1114</ele>
        <time>2022-08-07T08:22:18Z</time>
      </trkpt>
      <trkpt lat="42.94455" lon="0.28806">
        <ele>1112</ele>
        <time>2022-08-07T08:22:20Z</time>
      </trkpt>
      <trkpt lat="42.94448" lon="0.28802">
        <ele>1111.4</ele>
        <time>2022-08-07T08:22:21Z</time>
      </trkpt>
      <trkpt lat="42.94441" lon="0.28797">
        <ele>1110.8</ele>
        <time>2022-08-07T08:22:22Z</time>
      </trkpt>
      <trkpt lat="42.94437" lon="0.28792">
        <ele>1110.6</ele>
        <time>2022-08-07T08:22:23Z</time>
      </trkpt>
      <trkpt lat="42.94428" lon="0.28776">
        <ele>1110.4</ele>
        <time>2022-08-07T08:22:25Z</time>
      </trkpt>
      <trkpt lat="42.94424" lon="0.28768">
        <ele>1109.6</ele>
        <time>2022-08-07T08:22:26Z</time>
      </trkpt>
      <trkpt lat="42.94414" lon="0.28752">
        <ele>1108.8</ele>
        <time>2022-08-07T08:22:28Z</time>
      </trkpt>
      <trkpt lat="42.94409" lon="0.28744">
        <ele>1108.4</ele>
        <time>2022-08-07T08:22:29Z</time>
      </trkpt>
      <trkpt lat="42.94389" lon="0.28711">
        <ele>1107.2</ele>
        <time>2022-08-07T08:22:33Z</time>
      </trkpt>
      <trkpt lat="42.94384" lon="0.28703">
        <ele>1107.2</ele>
        <time>2022-08-07T08:22:34Z</time>
      </trkpt>
      <trkpt lat="42.94363" lon="0.28667">
        <ele>1106.2</ele>
        <time>2022-08-07T08:22:38Z</time>
      </trkpt>
      <trkpt lat="42.94342" lon="0.28631">
        <ele>1105.4</ele>
        <time>2022-08-07T08:22:42Z</time>
      </trkpt>
      <trkpt lat="42.94338" lon="0.28625">
        <ele>1105</ele>
        <time>2022-08-07T08:22:43Z</time>
      </trkpt>
      <trkpt lat="42.94312" lon="0.28579">
        <ele>1103.6</ele>
        <time>2022-08-07T08:22:48Z</time>
      </trkpt>
      <trkpt lat="42.94296" lon="0.28544">
        <ele>1102.8</ele>
        <time>2022-08-07T08:22:52Z</time>
      </trkpt>
      <trkpt lat="42.94292" lon="0.28534">
        <ele>1102.6</ele>
        <time>2022-08-07T08:22:53Z</time>
      </trkpt>
      <trkpt lat="42.9429" lon="0.28524">
        <ele>1102.4</ele>
        <time>2022-08-07T08:22:54Z</time>
      </trkpt>
      <trkpt lat="42.94288" lon="0.28513">
        <ele>1102.2</ele>
        <time>2022-08-07T08:22:55Z</time>
      </trkpt>
      <trkpt lat="42.94285" lon="0.28483">
        <ele>1101.6</ele>
        <time>2022-08-07T08:22:58Z</time>
      </trkpt>
      <trkpt lat="42.94283" lon="0.28474">
        <ele>1101.4</ele>
        <time>2022-08-07T08:22:59Z</time>
      </trkpt>
      <trkpt lat="42.9428" lon="0.28458">
        <ele>1100.6</ele>
        <time>2022-08-07T08:23:01Z</time>
      </trkpt>
      <trkpt lat="42.94276" lon="0.28452">
        <ele>1100.6</ele>
        <time>2022-08-07T08:23:02Z</time>
      </trkpt>
      <trkpt lat="42.94271" lon="0.28449">
        <ele>1100.2</ele>
        <time>2022-08-07T08:23:03Z</time>
      </trkpt>
      <trkpt lat="42.9426" lon="0.2845">
        <ele>1099.6</ele>
        <time>2022-08-07T08:23:05Z</time>
      </trkpt>
      <trkpt lat="42.94252" lon="0.28459">
        <ele>1099</ele>
        <time>2022-08-07T08:23:07Z</time>
      </trkpt>
      <trkpt lat="42.94249" lon="0.28463">
        <ele>1098.8</ele>
        <time>2022-08-07T08:23:08Z</time>
      </trkpt>
      <trkpt lat="42.9423" lon="0.28479">
        <ele>1098.4</ele>
        <time>2022-08-07T08:23:14Z</time>
      </trkpt>
      <trkpt lat="42.94213" lon="0.28496">
        <ele>1099.2</ele>
        <time>2022-08-07T08:23:21Z</time>
      </trkpt>
      <trkpt lat="42.94201" lon="0.28513">
        <ele>1100</ele>
        <time>2022-08-07T08:23:27Z</time>
      </trkpt>
      <trkpt lat="42.94197" lon="0.28517">
        <ele>1100.2</ele>
        <time>2022-08-07T08:23:29Z</time>
      </trkpt>
      <trkpt lat="42.94193" lon="0.28521">
        <ele>1100.6</ele>
        <time>2022-08-07T08:23:31Z</time>
      </trkpt>
      <trkpt lat="42.94189" lon="0.28523">
        <ele>1100.8</ele>
        <time>2022-08-07T08:23:33Z</time>
      </trkpt>
      <trkpt lat="42.94182" lon="0.28531">
        <ele>1101</ele>
        <time>2022-08-07T08:23:37Z</time>
      </trkpt>
      <trkpt lat="42.9418" lon="0.28533">
        <ele>1101</ele>
        <time>2022-08-07T08:23:38Z</time>
      </trkpt>
      <trkpt lat="42.94172" lon="0.28542">
        <ele>1101</ele>
        <time>2022-08-07T08:23:43Z</time>
      </trkpt>
      <trkpt lat="42.94161" lon="0.28552">
        <ele>1101.4</ele>
        <time>2022-08-07T08:23:49Z</time>
      </trkpt>
      <trkpt lat="42.94157" lon="0.28562">
        <ele>1101.6</ele>
        <time>2022-08-07T08:23:54Z</time>
      </trkpt>
      <trkpt lat="42.94158" lon="0.28564">
        <ele>1101.6</ele>
        <time>2022-08-07T08:23:55Z</time>
      </trkpt>
      <trkpt lat="42.94162" lon="0.28562">
        <ele>1101.6</ele>
        <time>2022-08-07T08:23:57Z</time>
      </trkpt>
      <trkpt lat="42.94165" lon="0.2856">
        <ele>1102</ele>
        <time>2022-08-07T08:23:59Z</time>
      </trkpt>
      <trkpt lat="42.94175" lon="0.28547">
        <ele>1102</ele>
        <time>2022-08-07T08:24:05Z</time>
      </trkpt>
      <trkpt lat="42.94196" lon="0.28523">
        <ele>1101.8</ele>
        <time>2022-08-07T08:24:15Z</time>
      </trkpt>
      <trkpt lat="42.94215" lon="0.28505">
        <ele>1101.6</ele>
        <time>2022-08-07T08:24:22Z</time>
      </trkpt>
      <trkpt lat="42.94225" lon="0.28498">
        <ele>1101.2</ele>
        <time>2022-08-07T08:24:27Z</time>
      </trkpt>
      <trkpt lat="42.9423" lon="0.28494">
        <ele>1100.6</ele>
        <time>2022-08-07T08:24:30Z</time>
      </trkpt>
      <trkpt lat="42.94232" lon="0.28493">
        <ele>1100.2</ele>
        <time>2022-08-07T08:24:33Z</time>
      </trkpt>
      <trkpt lat="42.94232" lon="0.28493">
        <ele>1099.6</ele>
        <time>2022-08-07T08:24:36Z</time>
      </trkpt>
      <trkpt lat="42.94232" lon="0.28493">
        <ele>1099.6</ele>
        <time>2022-08-07T08:24:37Z</time>
      </trkpt>
      <trkpt lat="42.94233" lon="0.28493">
        <ele>1099.4</ele>
        <time>2022-08-07T08:24:43Z</time>
      </trkpt>
      <trkpt lat="42.94233" lon="0.28493">
        <ele>1099.6</ele>
        <time>2022-08-07T08:24:48Z</time>
      </trkpt>
    </trkseg>
  </trk>
</gpx>